<?xml version="1.0" encoding="UTF-8" standalone="no" ?>
<gpx xmlns="http://www.topografix.com/GPX/1/1" xmlns:xsi="http://www.w3.org/2001/XMLSchema-instance" xsi:schemaLocation="http://www.topografix.com/GPX/1/1 http://www.topografix.com/GPX/1/1/gpx.xsd" version="1.1" creator="VisuGPX - https://www.visugpx.com">
  <metadata>
    <name>Cols de Jambaz - Terramont - Torchebise</name>
  </metadata>
  <trk>
    <name><![CDATA[11469332-Cols de Jambaz - Terramont - Torchebise]]></name>
    <trkseg>
      <trkpt lat="46.19958" lon="6.24075">
        <ele>436</ele>
        <time>2020-08-25T19:05:04Z</time>
      </trkpt>
      <trkpt lat="46.19972" lon="6.24107">
        <ele>436</ele>
        <time>2020-08-25T19:05:09Z</time>
      </trkpt>
      <trkpt lat="46.19973" lon="6.24136">
        <ele>437</ele>
        <time>2020-08-25T19:05:12Z</time>
      </trkpt>
      <trkpt lat="46.19953" lon="6.24189">
        <ele>438</ele>
        <time>2020-08-25T19:05:20Z</time>
      </trkpt>
      <trkpt lat="46.1992" lon="6.24233">
        <ele>438</ele>
        <time>2020-08-25T19:05:28Z</time>
      </trkpt>
      <trkpt lat="46.19908" lon="6.24272">
        <ele>438</ele>
        <time>2020-08-25T19:05:33Z</time>
      </trkpt>
      <trkpt lat="46.19886" lon="6.24314">
        <ele>439</ele>
        <time>2020-08-25T19:05:39Z</time>
      </trkpt>
      <trkpt lat="46.19868" lon="6.24388">
        <ele>440</ele>
        <time>2020-08-25T19:05:49Z</time>
      </trkpt>
      <trkpt lat="46.19859" lon="6.24398">
        <ele>441</ele>
        <time>2020-08-25T19:05:51Z</time>
      </trkpt>
      <trkpt lat="46.19848" lon="6.24396">
        <ele>441</ele>
        <time>2020-08-25T19:05:53Z</time>
      </trkpt>
      <trkpt lat="46.19839" lon="6.2439">
        <ele>441</ele>
        <time>2020-08-25T19:05:55Z</time>
      </trkpt>
      <trkpt lat="46.19668" lon="6.24245">
        <ele>438</ele>
        <time>2020-08-25T19:06:30Z</time>
      </trkpt>
      <trkpt lat="46.19658" lon="6.2424">
        <ele>438</ele>
        <time>2020-08-25T19:06:32Z</time>
      </trkpt>
      <trkpt lat="46.19627" lon="6.24214">
        <ele>439</ele>
        <time>2020-08-25T19:06:38Z</time>
      </trkpt>
      <trkpt lat="46.19627" lon="6.2421">
        <ele>439</ele>
        <time>2020-08-25T19:06:39Z</time>
      </trkpt>
      <trkpt lat="46.19615" lon="6.24221">
        <ele>439</ele>
        <time>2020-08-25T19:06:41Z</time>
      </trkpt>
      <trkpt lat="46.19579" lon="6.2428">
        <ele>441</ele>
        <time>2020-08-25T19:06:51Z</time>
      </trkpt>
      <trkpt lat="46.19546" lon="6.24321">
        <ele>440</ele>
        <time>2020-08-25T19:06:59Z</time>
      </trkpt>
      <trkpt lat="46.19531" lon="6.24334">
        <ele>440</ele>
        <time>2020-08-25T19:07:02Z</time>
      </trkpt>
      <trkpt lat="46.19505" lon="6.24409">
        <ele>438</ele>
        <time>2020-08-25T19:07:12Z</time>
      </trkpt>
      <trkpt lat="46.19482" lon="6.24449">
        <ele>438</ele>
        <time>2020-08-25T19:07:19Z</time>
      </trkpt>
      <trkpt lat="46.1942" lon="6.24529">
        <ele>439</ele>
        <time>2020-08-25T19:07:33Z</time>
      </trkpt>
      <trkpt lat="46.19413" lon="6.24533">
        <ele>439</ele>
        <time>2020-08-25T19:07:35Z</time>
      </trkpt>
      <trkpt lat="46.19384" lon="6.24517">
        <ele>440</ele>
        <time>2020-08-25T19:07:40Z</time>
      </trkpt>
      <trkpt lat="46.19359" lon="6.24499">
        <ele>440</ele>
        <time>2020-08-25T19:07:45Z</time>
      </trkpt>
      <trkpt lat="46.19334" lon="6.24486">
        <ele>441</ele>
        <time>2020-08-25T19:07:50Z</time>
      </trkpt>
      <trkpt lat="46.19315" lon="6.2448">
        <ele>441</ele>
        <time>2020-08-25T19:07:53Z</time>
      </trkpt>
      <trkpt lat="46.19295" lon="6.2447">
        <ele>441</ele>
        <time>2020-08-25T19:07:57Z</time>
      </trkpt>
      <trkpt lat="46.19269" lon="6.24453">
        <ele>441</ele>
        <time>2020-08-25T19:08:02Z</time>
      </trkpt>
      <trkpt lat="46.19143" lon="6.24358">
        <ele>441</ele>
        <time>2020-08-25T19:08:28Z</time>
      </trkpt>
      <trkpt lat="46.19122" lon="6.24337">
        <ele>441</ele>
        <time>2020-08-25T19:08:32Z</time>
      </trkpt>
      <trkpt lat="46.19113" lon="6.24337">
        <ele>441</ele>
        <time>2020-08-25T19:08:34Z</time>
      </trkpt>
      <trkpt lat="46.19107" lon="6.24351">
        <ele>441</ele>
        <time>2020-08-25T19:08:36Z</time>
      </trkpt>
      <trkpt lat="46.19097" lon="6.24388">
        <ele>442</ele>
        <time>2020-08-25T19:08:41Z</time>
      </trkpt>
      <trkpt lat="46.19095" lon="6.24413">
        <ele>442</ele>
        <time>2020-08-25T19:08:44Z</time>
      </trkpt>
      <trkpt lat="46.19074" lon="6.24524">
        <ele>445</ele>
        <time>2020-08-25T19:08:58Z</time>
      </trkpt>
      <trkpt lat="46.19072" lon="6.2456">
        <ele>446</ele>
        <time>2020-08-25T19:09:02Z</time>
      </trkpt>
      <trkpt lat="46.19051" lon="6.2473">
        <ele>450</ele>
        <time>2020-08-25T19:09:24Z</time>
      </trkpt>
      <trkpt lat="46.19041" lon="6.24803">
        <ele>452</ele>
        <time>2020-08-25T19:09:33Z</time>
      </trkpt>
      <trkpt lat="46.19027" lon="6.2487">
        <ele>453</ele>
        <time>2020-08-25T19:09:41Z</time>
      </trkpt>
      <trkpt lat="46.19021" lon="6.24939">
        <ele>454</ele>
        <time>2020-08-25T19:09:50Z</time>
      </trkpt>
      <trkpt lat="46.19024" lon="6.24979">
        <ele>454</ele>
        <time>2020-08-25T19:09:55Z</time>
      </trkpt>
      <trkpt lat="46.19021" lon="6.25005">
        <ele>455</ele>
        <time>2020-08-25T19:09:58Z</time>
      </trkpt>
      <trkpt lat="46.19022" lon="6.25052">
        <ele>457</ele>
        <time>2020-08-25T19:10:04Z</time>
      </trkpt>
      <trkpt lat="46.19039" lon="6.25107">
        <ele>458</ele>
        <time>2020-08-25T19:10:11Z</time>
      </trkpt>
      <trkpt lat="46.1904" lon="6.2518">
        <ele>461</ele>
        <time>2020-08-25T19:10:20Z</time>
      </trkpt>
      <trkpt lat="46.19046" lon="6.25202">
        <ele>461</ele>
        <time>2020-08-25T19:10:23Z</time>
      </trkpt>
      <trkpt lat="46.19051" lon="6.2524">
        <ele>462</ele>
        <time>2020-08-25T19:10:28Z</time>
      </trkpt>
      <trkpt lat="46.19063" lon="6.25297">
        <ele>462</ele>
        <time>2020-08-25T19:10:35Z</time>
      </trkpt>
      <trkpt lat="46.19058" lon="6.25331">
        <ele>464</ele>
        <time>2020-08-25T19:10:40Z</time>
      </trkpt>
      <trkpt lat="46.19061" lon="6.25356">
        <ele>466</ele>
        <time>2020-08-25T19:10:43Z</time>
      </trkpt>
      <trkpt lat="46.1906" lon="6.25419">
        <ele>472</ele>
        <time>2020-08-25T19:10:51Z</time>
      </trkpt>
      <trkpt lat="46.19064" lon="6.25458">
        <ele>473</ele>
        <time>2020-08-25T19:10:55Z</time>
      </trkpt>
      <trkpt lat="46.19062" lon="6.25503">
        <ele>475</ele>
        <time>2020-08-25T19:11:01Z</time>
      </trkpt>
      <trkpt lat="46.19069" lon="6.25582">
        <ele>475</ele>
        <time>2020-08-25T19:11:11Z</time>
      </trkpt>
      <trkpt lat="46.19066" lon="6.2562">
        <ele>476</ele>
        <time>2020-08-25T19:11:16Z</time>
      </trkpt>
      <trkpt lat="46.19034" lon="6.25773">
        <ele>477</ele>
        <time>2020-08-25T19:11:35Z</time>
      </trkpt>
      <trkpt lat="46.19025" lon="6.25853">
        <ele>478</ele>
        <time>2020-08-25T19:11:45Z</time>
      </trkpt>
      <trkpt lat="46.19015" lon="6.25896">
        <ele>479</ele>
        <time>2020-08-25T19:11:51Z</time>
      </trkpt>
      <trkpt lat="46.19005" lon="6.25956">
        <ele>481</ele>
        <time>2020-08-25T19:11:58Z</time>
      </trkpt>
      <trkpt lat="46.18996" lon="6.2599">
        <ele>483</ele>
        <time>2020-08-25T19:12:03Z</time>
      </trkpt>
      <trkpt lat="46.1899" lon="6.26004">
        <ele>484</ele>
        <time>2020-08-25T19:12:05Z</time>
      </trkpt>
      <trkpt lat="46.18981" lon="6.26055">
        <ele>484</ele>
        <time>2020-08-25T19:12:11Z</time>
      </trkpt>
      <trkpt lat="46.18983" lon="6.26093">
        <ele>483</ele>
        <time>2020-08-25T19:12:16Z</time>
      </trkpt>
      <trkpt lat="46.18969" lon="6.26118">
        <ele>483</ele>
        <time>2020-08-25T19:12:20Z</time>
      </trkpt>
      <trkpt lat="46.18949" lon="6.26166">
        <ele>483</ele>
        <time>2020-08-25T19:12:27Z</time>
      </trkpt>
      <trkpt lat="46.1893" lon="6.26196">
        <ele>484</ele>
        <time>2020-08-25T19:12:32Z</time>
      </trkpt>
      <trkpt lat="46.18915" lon="6.26255">
        <ele>483</ele>
        <time>2020-08-25T19:12:40Z</time>
      </trkpt>
      <trkpt lat="46.18892" lon="6.26296">
        <ele>486</ele>
        <time>2020-08-25T19:12:46Z</time>
      </trkpt>
      <trkpt lat="46.18877" lon="6.26351">
        <ele>486</ele>
        <time>2020-08-25T19:12:53Z</time>
      </trkpt>
      <trkpt lat="46.1886" lon="6.26392">
        <ele>486</ele>
        <time>2020-08-25T19:12:59Z</time>
      </trkpt>
      <trkpt lat="46.18853" lon="6.26438">
        <ele>486</ele>
        <time>2020-08-25T19:13:05Z</time>
      </trkpt>
      <trkpt lat="46.18849" lon="6.26449">
        <ele>486</ele>
        <time>2020-08-25T19:13:07Z</time>
      </trkpt>
      <trkpt lat="46.18832" lon="6.26538">
        <ele>487</ele>
        <time>2020-08-25T19:13:18Z</time>
      </trkpt>
      <trkpt lat="46.18823" lon="6.26563">
        <ele>487</ele>
        <time>2020-08-25T19:13:22Z</time>
      </trkpt>
      <trkpt lat="46.18808" lon="6.26627">
        <ele>486</ele>
        <time>2020-08-25T19:13:30Z</time>
      </trkpt>
      <trkpt lat="46.188" lon="6.26685">
        <ele>485</ele>
        <time>2020-08-25T19:13:37Z</time>
      </trkpt>
      <trkpt lat="46.18781" lon="6.26778">
        <ele>486</ele>
        <time>2020-08-25T19:13:49Z</time>
      </trkpt>
      <trkpt lat="46.18768" lon="6.26873">
        <ele>485</ele>
        <time>2020-08-25T19:14:01Z</time>
      </trkpt>
      <trkpt lat="46.18756" lon="6.26913">
        <ele>485</ele>
        <time>2020-08-25T19:14:06Z</time>
      </trkpt>
      <trkpt lat="46.18727" lon="6.26974">
        <ele>486</ele>
        <time>2020-08-25T19:14:16Z</time>
      </trkpt>
      <trkpt lat="46.18713" lon="6.26993">
        <ele>486</ele>
        <time>2020-08-25T19:14:19Z</time>
      </trkpt>
      <trkpt lat="46.18706" lon="6.27021">
        <ele>487</ele>
        <time>2020-08-25T19:14:23Z</time>
      </trkpt>
      <trkpt lat="46.18705" lon="6.27051">
        <ele>487</ele>
        <time>2020-08-25T19:14:26Z</time>
      </trkpt>
      <trkpt lat="46.18728" lon="6.2708">
        <ele>487</ele>
        <time>2020-08-25T19:14:32Z</time>
      </trkpt>
      <trkpt lat="46.18727" lon="6.27089">
        <ele>487</ele>
        <time>2020-08-25T19:14:33Z</time>
      </trkpt>
      <trkpt lat="46.18712" lon="6.27118">
        <ele>487</ele>
        <time>2020-08-25T19:14:37Z</time>
      </trkpt>
      <trkpt lat="46.18725" lon="6.27146">
        <ele>487</ele>
        <time>2020-08-25T19:14:41Z</time>
      </trkpt>
      <trkpt lat="46.18738" lon="6.27163">
        <ele>487</ele>
        <time>2020-08-25T19:14:45Z</time>
      </trkpt>
      <trkpt lat="46.18757" lon="6.27168">
        <ele>487</ele>
        <time>2020-08-25T19:14:48Z</time>
      </trkpt>
      <trkpt lat="46.18759" lon="6.27186">
        <ele>488</ele>
        <time>2020-08-25T19:14:50Z</time>
      </trkpt>
      <trkpt lat="46.1875" lon="6.27233">
        <ele>489</ele>
        <time>2020-08-25T19:14:56Z</time>
      </trkpt>
      <trkpt lat="46.18731" lon="6.27269">
        <ele>489</ele>
        <time>2020-08-25T19:15:02Z</time>
      </trkpt>
      <trkpt lat="46.18723" lon="6.27302">
        <ele>489</ele>
        <time>2020-08-25T19:15:06Z</time>
      </trkpt>
      <trkpt lat="46.18733" lon="6.27336">
        <ele>489</ele>
        <time>2020-08-25T19:15:11Z</time>
      </trkpt>
      <trkpt lat="46.18742" lon="6.27395">
        <ele>490</ele>
        <time>2020-08-25T19:15:18Z</time>
      </trkpt>
      <trkpt lat="46.18752" lon="6.27494">
        <ele>490</ele>
        <time>2020-08-25T19:15:30Z</time>
      </trkpt>
      <trkpt lat="46.18751" lon="6.27535">
        <ele>490</ele>
        <time>2020-08-25T19:15:36Z</time>
      </trkpt>
      <trkpt lat="46.18755" lon="6.27561">
        <ele>491</ele>
        <time>2020-08-25T19:15:39Z</time>
      </trkpt>
      <trkpt lat="46.18756" lon="6.27671">
        <ele>492</ele>
        <time>2020-08-25T19:15:52Z</time>
      </trkpt>
      <trkpt lat="46.18755" lon="6.27834">
        <ele>494</ele>
        <time>2020-08-25T19:16:12Z</time>
      </trkpt>
      <trkpt lat="46.18742" lon="6.2794">
        <ele>495</ele>
        <time>2020-08-25T19:16:26Z</time>
      </trkpt>
      <trkpt lat="46.18724" lon="6.2802">
        <ele>497</ele>
        <time>2020-08-25T19:16:36Z</time>
      </trkpt>
      <trkpt lat="46.18715" lon="6.28086">
        <ele>497</ele>
        <time>2020-08-25T19:16:44Z</time>
      </trkpt>
      <trkpt lat="46.18702" lon="6.28249">
        <ele>498</ele>
        <time>2020-08-25T19:17:05Z</time>
      </trkpt>
      <trkpt lat="46.18681" lon="6.28299">
        <ele>497</ele>
        <time>2020-08-25T19:17:12Z</time>
      </trkpt>
      <trkpt lat="46.18683" lon="6.28318">
        <ele>497</ele>
        <time>2020-08-25T19:17:14Z</time>
      </trkpt>
      <trkpt lat="46.18749" lon="6.28455">
        <ele>500</ele>
        <time>2020-08-25T19:17:35Z</time>
      </trkpt>
      <trkpt lat="46.18764" lon="6.28481">
        <ele>502</ele>
        <time>2020-08-25T19:17:39Z</time>
      </trkpt>
      <trkpt lat="46.18757" lon="6.28499">
        <ele>502</ele>
        <time>2020-08-25T19:17:41Z</time>
      </trkpt>
      <trkpt lat="46.18753" lon="6.28527">
        <ele>503</ele>
        <time>2020-08-25T19:17:45Z</time>
      </trkpt>
      <trkpt lat="46.18711" lon="6.28649">
        <ele>505</ele>
        <time>2020-08-25T19:18:02Z</time>
      </trkpt>
      <trkpt lat="46.18707" lon="6.28685">
        <ele>506</ele>
        <time>2020-08-25T19:18:06Z</time>
      </trkpt>
      <trkpt lat="46.18707" lon="6.28722">
        <ele>508</ele>
        <time>2020-08-25T19:18:11Z</time>
      </trkpt>
      <trkpt lat="46.18704" lon="6.28755">
        <ele>510</ele>
        <time>2020-08-25T19:18:15Z</time>
      </trkpt>
      <trkpt lat="46.1868" lon="6.28912">
        <ele>520</ele>
        <time>2020-08-25T19:18:35Z</time>
      </trkpt>
      <trkpt lat="46.18647" lon="6.28986">
        <ele>524</ele>
        <time>2020-08-25T19:18:45Z</time>
      </trkpt>
      <trkpt lat="46.18642" lon="6.29002">
        <ele>525</ele>
        <time>2020-08-25T19:18:48Z</time>
      </trkpt>
      <trkpt lat="46.1864" lon="6.2902">
        <ele>525</ele>
        <time>2020-08-25T19:18:50Z</time>
      </trkpt>
      <trkpt lat="46.18635" lon="6.29028">
        <ele>526</ele>
        <time>2020-08-25T19:18:51Z</time>
      </trkpt>
      <trkpt lat="46.18599" lon="6.29025">
        <ele>525</ele>
        <time>2020-08-25T19:18:58Z</time>
      </trkpt>
      <trkpt lat="46.18561" lon="6.29025">
        <ele>524</ele>
        <time>2020-08-25T19:19:04Z</time>
      </trkpt>
      <trkpt lat="46.18556" lon="6.29033">
        <ele>525</ele>
        <time>2020-08-25T19:19:06Z</time>
      </trkpt>
      <trkpt lat="46.18556" lon="6.29036">
        <ele>525</ele>
        <time>2020-08-25T19:19:06Z</time>
      </trkpt>
      <trkpt lat="46.18575" lon="6.29063">
        <ele>527</ele>
        <time>2020-08-25T19:19:11Z</time>
      </trkpt>
      <trkpt lat="46.18617" lon="6.29116">
        <ele>530</ele>
        <time>2020-08-25T19:19:21Z</time>
      </trkpt>
      <trkpt lat="46.18624" lon="6.29129">
        <ele>531</ele>
        <time>2020-08-25T19:19:23Z</time>
      </trkpt>
      <trkpt lat="46.18624" lon="6.29136">
        <ele>531</ele>
        <time>2020-08-25T19:19:24Z</time>
      </trkpt>
      <trkpt lat="46.18617" lon="6.2915">
        <ele>532</ele>
        <time>2020-08-25T19:19:26Z</time>
      </trkpt>
      <trkpt lat="46.18607" lon="6.29183">
        <ele>532</ele>
        <time>2020-08-25T19:19:30Z</time>
      </trkpt>
      <trkpt lat="46.18586" lon="6.2924">
        <ele>529</ele>
        <time>2020-08-25T19:19:38Z</time>
      </trkpt>
      <trkpt lat="46.18575" lon="6.29263">
        <ele>527</ele>
        <time>2020-08-25T19:19:42Z</time>
      </trkpt>
      <trkpt lat="46.1853" lon="6.29308">
        <ele>520</ele>
        <time>2020-08-25T19:19:51Z</time>
      </trkpt>
      <trkpt lat="46.18473" lon="6.29372">
        <ele>514</ele>
        <time>2020-08-25T19:20:04Z</time>
      </trkpt>
      <trkpt lat="46.18426" lon="6.2942">
        <ele>511</ele>
        <time>2020-08-25T19:20:14Z</time>
      </trkpt>
      <trkpt lat="46.18391" lon="6.29466">
        <ele>507</ele>
        <time>2020-08-25T19:20:23Z</time>
      </trkpt>
      <trkpt lat="46.18378" lon="6.29476">
        <ele>506</ele>
        <time>2020-08-25T19:20:25Z</time>
      </trkpt>
      <trkpt lat="46.18365" lon="6.29482">
        <ele>505</ele>
        <time>2020-08-25T19:20:28Z</time>
      </trkpt>
      <trkpt lat="46.18335" lon="6.29488">
        <ele>503</ele>
        <time>2020-08-25T19:20:33Z</time>
      </trkpt>
      <trkpt lat="46.18308" lon="6.29499">
        <ele>500</ele>
        <time>2020-08-25T19:20:38Z</time>
      </trkpt>
      <trkpt lat="46.18284" lon="6.29521">
        <ele>498</ele>
        <time>2020-08-25T19:20:43Z</time>
      </trkpt>
      <trkpt lat="46.18205" lon="6.29628">
        <ele>493</ele>
        <time>2020-08-25T19:21:03Z</time>
      </trkpt>
      <trkpt lat="46.18193" lon="6.29651">
        <ele>493</ele>
        <time>2020-08-25T19:21:06Z</time>
      </trkpt>
      <trkpt lat="46.18173" lon="6.297">
        <ele>495</ele>
        <time>2020-08-25T19:21:13Z</time>
      </trkpt>
      <trkpt lat="46.18165" lon="6.29712">
        <ele>495</ele>
        <time>2020-08-25T19:21:15Z</time>
      </trkpt>
      <trkpt lat="46.18124" lon="6.29743">
        <ele>497</ele>
        <time>2020-08-25T19:21:23Z</time>
      </trkpt>
      <trkpt lat="46.18087" lon="6.29789">
        <ele>499</ele>
        <time>2020-08-25T19:21:32Z</time>
      </trkpt>
      <trkpt lat="46.18067" lon="6.29805">
        <ele>500</ele>
        <time>2020-08-25T19:21:36Z</time>
      </trkpt>
      <trkpt lat="46.18048" lon="6.29815">
        <ele>500</ele>
        <time>2020-08-25T19:21:40Z</time>
      </trkpt>
      <trkpt lat="46.18033" lon="6.29817">
        <ele>500</ele>
        <time>2020-08-25T19:21:43Z</time>
      </trkpt>
      <trkpt lat="46.18025" lon="6.29826">
        <ele>500</ele>
        <time>2020-08-25T19:21:44Z</time>
      </trkpt>
      <trkpt lat="46.17984" lon="6.29978">
        <ele>504</ele>
        <time>2020-08-25T19:22:04Z</time>
      </trkpt>
      <trkpt lat="46.17974" lon="6.29998">
        <ele>505</ele>
        <time>2020-08-25T19:22:07Z</time>
      </trkpt>
      <trkpt lat="46.17959" lon="6.3004">
        <ele>507</ele>
        <time>2020-08-25T19:22:13Z</time>
      </trkpt>
      <trkpt lat="46.17956" lon="6.30041">
        <ele>507</ele>
        <time>2020-08-25T19:22:14Z</time>
      </trkpt>
      <trkpt lat="46.17943" lon="6.30037">
        <ele>507</ele>
        <time>2020-08-25T19:22:16Z</time>
      </trkpt>
      <trkpt lat="46.17926" lon="6.30029">
        <ele>507</ele>
        <time>2020-08-25T19:22:19Z</time>
      </trkpt>
      <trkpt lat="46.1791" lon="6.30028">
        <ele>507</ele>
        <time>2020-08-25T19:22:22Z</time>
      </trkpt>
      <trkpt lat="46.17896" lon="6.30048">
        <ele>507</ele>
        <time>2020-08-25T19:22:26Z</time>
      </trkpt>
      <trkpt lat="46.17895" lon="6.30067">
        <ele>507</ele>
        <time>2020-08-25T19:22:28Z</time>
      </trkpt>
      <trkpt lat="46.17889" lon="6.30077">
        <ele>507</ele>
        <time>2020-08-25T19:22:30Z</time>
      </trkpt>
      <trkpt lat="46.17858" lon="6.30102">
        <ele>506</ele>
        <time>2020-08-25T19:22:36Z</time>
      </trkpt>
      <trkpt lat="46.17846" lon="6.30104">
        <ele>505</ele>
        <time>2020-08-25T19:22:38Z</time>
      </trkpt>
      <trkpt lat="46.17834" lon="6.30096">
        <ele>504</ele>
        <time>2020-08-25T19:22:41Z</time>
      </trkpt>
      <trkpt lat="46.17816" lon="6.30079">
        <ele>501</ele>
        <time>2020-08-25T19:22:44Z</time>
      </trkpt>
      <trkpt lat="46.17792" lon="6.30067">
        <ele>499</ele>
        <time>2020-08-25T19:22:49Z</time>
      </trkpt>
      <trkpt lat="46.17727" lon="6.30056">
        <ele>491</ele>
        <time>2020-08-25T19:23:00Z</time>
      </trkpt>
      <trkpt lat="46.177" lon="6.30055">
        <ele>486</ele>
        <time>2020-08-25T19:23:05Z</time>
      </trkpt>
      <trkpt lat="46.17675" lon="6.30038">
        <ele>481</ele>
        <time>2020-08-25T19:23:10Z</time>
      </trkpt>
      <trkpt lat="46.17616" lon="6.30018">
        <ele>477</ele>
        <time>2020-08-25T19:23:21Z</time>
      </trkpt>
      <trkpt lat="46.17545" lon="6.29999">
        <ele>475</ele>
        <time>2020-08-25T19:23:34Z</time>
      </trkpt>
      <trkpt lat="46.17531" lon="6.3">
        <ele>474</ele>
        <time>2020-08-25T19:23:36Z</time>
      </trkpt>
      <trkpt lat="46.17524" lon="6.30003">
        <ele>474</ele>
        <time>2020-08-25T19:23:38Z</time>
      </trkpt>
      <trkpt lat="46.17518" lon="6.30017">
        <ele>474</ele>
        <time>2020-08-25T19:23:40Z</time>
      </trkpt>
      <trkpt lat="46.17513" lon="6.30045">
        <ele>474</ele>
        <time>2020-08-25T19:23:43Z</time>
      </trkpt>
      <trkpt lat="46.17477" lon="6.30278">
        <ele>475</ele>
        <time>2020-08-25T19:24:13Z</time>
      </trkpt>
      <trkpt lat="46.17472" lon="6.30387">
        <ele>477</ele>
        <time>2020-08-25T19:24:26Z</time>
      </trkpt>
      <trkpt lat="46.17466" lon="6.30444">
        <ele>479</ele>
        <time>2020-08-25T19:24:33Z</time>
      </trkpt>
      <trkpt lat="46.17466" lon="6.30496">
        <ele>480</ele>
        <time>2020-08-25T19:24:40Z</time>
      </trkpt>
      <trkpt lat="46.17461" lon="6.30577">
        <ele>482</ele>
        <time>2020-08-25T19:24:50Z</time>
      </trkpt>
      <trkpt lat="46.1746" lon="6.30616">
        <ele>483</ele>
        <time>2020-08-25T19:24:54Z</time>
      </trkpt>
      <trkpt lat="46.17465" lon="6.30676">
        <ele>484</ele>
        <time>2020-08-25T19:25:02Z</time>
      </trkpt>
      <trkpt lat="46.17457" lon="6.30695">
        <ele>484</ele>
        <time>2020-08-25T19:25:05Z</time>
      </trkpt>
      <trkpt lat="46.17438" lon="6.30726">
        <ele>484</ele>
        <time>2020-08-25T19:25:10Z</time>
      </trkpt>
      <trkpt lat="46.17389" lon="6.30763">
        <ele>483</ele>
        <time>2020-08-25T19:25:20Z</time>
      </trkpt>
      <trkpt lat="46.17349" lon="6.30776">
        <ele>483</ele>
        <time>2020-08-25T19:25:27Z</time>
      </trkpt>
      <trkpt lat="46.17347" lon="6.30773">
        <ele>483</ele>
        <time>2020-08-25T19:25:27Z</time>
      </trkpt>
      <trkpt lat="46.17342" lon="6.30773">
        <ele>482</ele>
        <time>2020-08-25T19:25:28Z</time>
      </trkpt>
      <trkpt lat="46.17327" lon="6.3078">
        <ele>482</ele>
        <time>2020-08-25T19:25:31Z</time>
      </trkpt>
      <trkpt lat="46.17297" lon="6.30799">
        <ele>483</ele>
        <time>2020-08-25T19:25:37Z</time>
      </trkpt>
      <trkpt lat="46.17273" lon="6.30823">
        <ele>484</ele>
        <time>2020-08-25T19:25:42Z</time>
      </trkpt>
      <trkpt lat="46.17255" lon="6.30859">
        <ele>484</ele>
        <time>2020-08-25T19:25:48Z</time>
      </trkpt>
      <trkpt lat="46.1722" lon="6.30992">
        <ele>484</ele>
        <time>2020-08-25T19:26:05Z</time>
      </trkpt>
      <trkpt lat="46.1721" lon="6.31009">
        <ele>484</ele>
        <time>2020-08-25T19:26:08Z</time>
      </trkpt>
      <trkpt lat="46.17184" lon="6.31037">
        <ele>484</ele>
        <time>2020-08-25T19:26:14Z</time>
      </trkpt>
      <trkpt lat="46.17108" lon="6.31102">
        <ele>484</ele>
        <time>2020-08-25T19:26:29Z</time>
      </trkpt>
      <trkpt lat="46.17045" lon="6.3116">
        <ele>484</ele>
        <time>2020-08-25T19:26:43Z</time>
      </trkpt>
      <trkpt lat="46.17009" lon="6.31202">
        <ele>485</ele>
        <time>2020-08-25T19:26:51Z</time>
      </trkpt>
      <trkpt lat="46.16982" lon="6.31239">
        <ele>485</ele>
        <time>2020-08-25T19:26:57Z</time>
      </trkpt>
      <trkpt lat="46.16966" lon="6.31267">
        <ele>485</ele>
        <time>2020-08-25T19:27:02Z</time>
      </trkpt>
      <trkpt lat="46.16961" lon="6.31262">
        <ele>485</ele>
        <time>2020-08-25T19:27:03Z</time>
      </trkpt>
      <trkpt lat="46.16939" lon="6.31287">
        <ele>486</ele>
        <time>2020-08-25T19:27:08Z</time>
      </trkpt>
      <trkpt lat="46.16927" lon="6.31305">
        <ele>486</ele>
        <time>2020-08-25T19:27:11Z</time>
      </trkpt>
      <trkpt lat="46.16925" lon="6.31337">
        <ele>487</ele>
        <time>2020-08-25T19:27:15Z</time>
      </trkpt>
      <trkpt lat="46.16885" lon="6.31438">
        <ele>489</ele>
        <time>2020-08-25T19:27:29Z</time>
      </trkpt>
      <trkpt lat="46.16862" lon="6.31483">
        <ele>489</ele>
        <time>2020-08-25T19:27:36Z</time>
      </trkpt>
      <trkpt lat="46.16848" lon="6.31517">
        <ele>488</ele>
        <time>2020-08-25T19:27:41Z</time>
      </trkpt>
      <trkpt lat="46.16821" lon="6.31567">
        <ele>488</ele>
        <time>2020-08-25T19:27:49Z</time>
      </trkpt>
      <trkpt lat="46.16792" lon="6.31616">
        <ele>488</ele>
        <time>2020-08-25T19:27:57Z</time>
      </trkpt>
      <trkpt lat="46.16775" lon="6.3164">
        <ele>488</ele>
        <time>2020-08-25T19:28:01Z</time>
      </trkpt>
      <trkpt lat="46.16732" lon="6.31687">
        <ele>492</ele>
        <time>2020-08-25T19:28:11Z</time>
      </trkpt>
      <trkpt lat="46.16714" lon="6.31703">
        <ele>495</ele>
        <time>2020-08-25T19:28:15Z</time>
      </trkpt>
      <trkpt lat="46.1671" lon="6.31699">
        <ele>496</ele>
        <time>2020-08-25T19:28:15Z</time>
      </trkpt>
      <trkpt lat="46.16711" lon="6.31691">
        <ele>495</ele>
        <time>2020-08-25T19:28:16Z</time>
      </trkpt>
      <trkpt lat="46.16726" lon="6.31668">
        <ele>492</ele>
        <time>2020-08-25T19:28:20Z</time>
      </trkpt>
      <trkpt lat="46.16736" lon="6.31663">
        <ele>491</ele>
        <time>2020-08-25T19:28:22Z</time>
      </trkpt>
      <trkpt lat="46.16744" lon="6.31664">
        <ele>490</ele>
        <time>2020-08-25T19:28:24Z</time>
      </trkpt>
      <trkpt lat="46.1675" lon="6.31671">
        <ele>489</ele>
        <time>2020-08-25T19:28:25Z</time>
      </trkpt>
      <trkpt lat="46.16762" lon="6.31701">
        <ele>490</ele>
        <time>2020-08-25T19:28:29Z</time>
      </trkpt>
      <trkpt lat="46.16771" lon="6.31728">
        <ele>490</ele>
        <time>2020-08-25T19:28:33Z</time>
      </trkpt>
      <trkpt lat="46.16773" lon="6.31741">
        <ele>491</ele>
        <time>2020-08-25T19:28:35Z</time>
      </trkpt>
      <trkpt lat="46.1677" lon="6.31759">
        <ele>491</ele>
        <time>2020-08-25T19:28:37Z</time>
      </trkpt>
      <trkpt lat="46.16764" lon="6.31769">
        <ele>492</ele>
        <time>2020-08-25T19:28:38Z</time>
      </trkpt>
      <trkpt lat="46.16759" lon="6.31786">
        <ele>493</ele>
        <time>2020-08-25T19:28:41Z</time>
      </trkpt>
      <trkpt lat="46.16762" lon="6.31813">
        <ele>494</ele>
        <time>2020-08-25T19:28:44Z</time>
      </trkpt>
      <trkpt lat="46.16757" lon="6.31839">
        <ele>495</ele>
        <time>2020-08-25T19:28:47Z</time>
      </trkpt>
      <trkpt lat="46.16723" lon="6.31898">
        <ele>497</ele>
        <time>2020-08-25T19:28:57Z</time>
      </trkpt>
      <trkpt lat="46.16678" lon="6.31961">
        <ele>496</ele>
        <time>2020-08-25T19:29:08Z</time>
      </trkpt>
      <trkpt lat="46.16644" lon="6.3199">
        <ele>498</ele>
        <time>2020-08-25T19:29:15Z</time>
      </trkpt>
      <trkpt lat="46.16615" lon="6.32023">
        <ele>501</ele>
        <time>2020-08-25T19:29:22Z</time>
      </trkpt>
      <trkpt lat="46.16607" lon="6.3203">
        <ele>501</ele>
        <time>2020-08-25T19:29:23Z</time>
      </trkpt>
      <trkpt lat="46.16596" lon="6.32035">
        <ele>502</ele>
        <time>2020-08-25T19:29:25Z</time>
      </trkpt>
      <trkpt lat="46.16591" lon="6.3204">
        <ele>502</ele>
        <time>2020-08-25T19:29:26Z</time>
      </trkpt>
      <trkpt lat="46.16587" lon="6.3205">
        <ele>502</ele>
        <time>2020-08-25T19:29:28Z</time>
      </trkpt>
      <trkpt lat="46.1657" lon="6.32068">
        <ele>501</ele>
        <time>2020-08-25T19:29:32Z</time>
      </trkpt>
      <trkpt lat="46.16499" lon="6.32061">
        <ele>508</ele>
        <time>2020-08-25T19:29:44Z</time>
      </trkpt>
      <trkpt lat="46.16473" lon="6.32061">
        <ele>510</ele>
        <time>2020-08-25T19:29:49Z</time>
      </trkpt>
      <trkpt lat="46.16454" lon="6.32055">
        <ele>511</ele>
        <time>2020-08-25T19:29:52Z</time>
      </trkpt>
      <trkpt lat="46.16442" lon="6.32045">
        <ele>513</ele>
        <time>2020-08-25T19:29:55Z</time>
      </trkpt>
      <trkpt lat="46.16419" lon="6.32017">
        <ele>515</ele>
        <time>2020-08-25T19:30:00Z</time>
      </trkpt>
      <trkpt lat="46.164" lon="6.31977">
        <ele>515</ele>
        <time>2020-08-25T19:30:06Z</time>
      </trkpt>
      <trkpt lat="46.16369" lon="6.31876">
        <ele>517</ele>
        <time>2020-08-25T19:30:20Z</time>
      </trkpt>
      <trkpt lat="46.16331" lon="6.318">
        <ele>520</ele>
        <time>2020-08-25T19:30:31Z</time>
      </trkpt>
      <trkpt lat="46.16302" lon="6.31753">
        <ele>519</ele>
        <time>2020-08-25T19:30:39Z</time>
      </trkpt>
      <trkpt lat="46.16278" lon="6.31732">
        <ele>518</ele>
        <time>2020-08-25T19:30:44Z</time>
      </trkpt>
      <trkpt lat="46.16266" lon="6.31717">
        <ele>518</ele>
        <time>2020-08-25T19:30:47Z</time>
      </trkpt>
      <trkpt lat="46.16228" lon="6.3168">
        <ele>518</ele>
        <time>2020-08-25T19:30:55Z</time>
      </trkpt>
      <trkpt lat="46.16202" lon="6.31668">
        <ele>518</ele>
        <time>2020-08-25T19:31:00Z</time>
      </trkpt>
      <trkpt lat="46.16158" lon="6.31643">
        <ele>518</ele>
        <time>2020-08-25T19:31:08Z</time>
      </trkpt>
      <trkpt lat="46.16113" lon="6.31655">
        <ele>521</ele>
        <time>2020-08-25T19:31:16Z</time>
      </trkpt>
      <trkpt lat="46.16092" lon="6.31665">
        <ele>522</ele>
        <time>2020-08-25T19:31:20Z</time>
      </trkpt>
      <trkpt lat="46.16074" lon="6.31684">
        <ele>521</ele>
        <time>2020-08-25T19:31:24Z</time>
      </trkpt>
      <trkpt lat="46.16039" lon="6.3174">
        <ele>520</ele>
        <time>2020-08-25T19:31:34Z</time>
      </trkpt>
      <trkpt lat="46.15967" lon="6.31921">
        <ele>520</ele>
        <time>2020-08-25T19:31:59Z</time>
      </trkpt>
      <trkpt lat="46.15947" lon="6.31951">
        <ele>523</ele>
        <time>2020-08-25T19:32:05Z</time>
      </trkpt>
      <trkpt lat="46.15785" lon="6.3204">
        <ele>530</ele>
        <time>2020-08-25T19:32:35Z</time>
      </trkpt>
      <trkpt lat="46.15742" lon="6.32071">
        <ele>532</ele>
        <time>2020-08-25T19:32:44Z</time>
      </trkpt>
      <trkpt lat="46.15688" lon="6.32116">
        <ele>534</ele>
        <time>2020-08-25T19:32:55Z</time>
      </trkpt>
      <trkpt lat="46.1568" lon="6.32127">
        <ele>534</ele>
        <time>2020-08-25T19:32:57Z</time>
      </trkpt>
      <trkpt lat="46.15677" lon="6.32141">
        <ele>535</ele>
        <time>2020-08-25T19:32:59Z</time>
      </trkpt>
      <trkpt lat="46.15667" lon="6.32153">
        <ele>535</ele>
        <time>2020-08-25T19:33:01Z</time>
      </trkpt>
      <trkpt lat="46.15668" lon="6.32161">
        <ele>536</ele>
        <time>2020-08-25T19:33:02Z</time>
      </trkpt>
      <trkpt lat="46.15666" lon="6.32167">
        <ele>536</ele>
        <time>2020-08-25T19:33:03Z</time>
      </trkpt>
      <trkpt lat="46.15642" lon="6.32225">
        <ele>535</ele>
        <time>2020-08-25T19:33:11Z</time>
      </trkpt>
      <trkpt lat="46.15598" lon="6.32309">
        <ele>532</ele>
        <time>2020-08-25T19:33:24Z</time>
      </trkpt>
      <trkpt lat="46.15563" lon="6.32352">
        <ele>531</ele>
        <time>2020-08-25T19:33:32Z</time>
      </trkpt>
      <trkpt lat="46.15511" lon="6.32374">
        <ele>530</ele>
        <time>2020-08-25T19:33:42Z</time>
      </trkpt>
      <trkpt lat="46.15504" lon="6.32382">
        <ele>530</ele>
        <time>2020-08-25T19:33:44Z</time>
      </trkpt>
      <trkpt lat="46.15481" lon="6.32439">
        <ele>528</ele>
        <time>2020-08-25T19:33:52Z</time>
      </trkpt>
      <trkpt lat="46.15451" lon="6.32534">
        <ele>529</ele>
        <time>2020-08-25T19:34:05Z</time>
      </trkpt>
      <trkpt lat="46.15439" lon="6.32552">
        <ele>529</ele>
        <time>2020-08-25T19:34:08Z</time>
      </trkpt>
      <trkpt lat="46.15418" lon="6.32571">
        <ele>528</ele>
        <time>2020-08-25T19:34:12Z</time>
      </trkpt>
      <trkpt lat="46.15407" lon="6.32585">
        <ele>528</ele>
        <time>2020-08-25T19:34:15Z</time>
      </trkpt>
      <trkpt lat="46.15398" lon="6.32607">
        <ele>529</ele>
        <time>2020-08-25T19:34:18Z</time>
      </trkpt>
      <trkpt lat="46.15391" lon="6.32639">
        <ele>531</ele>
        <time>2020-08-25T19:34:22Z</time>
      </trkpt>
      <trkpt lat="46.1539" lon="6.32663">
        <ele>532</ele>
        <time>2020-08-25T19:34:25Z</time>
      </trkpt>
      <trkpt lat="46.15396" lon="6.32715">
        <ele>534</ele>
        <time>2020-08-25T19:34:31Z</time>
      </trkpt>
      <trkpt lat="46.15391" lon="6.32739">
        <ele>535</ele>
        <time>2020-08-25T19:34:35Z</time>
      </trkpt>
      <trkpt lat="46.15375" lon="6.32775">
        <ele>534</ele>
        <time>2020-08-25T19:34:40Z</time>
      </trkpt>
      <trkpt lat="46.15344" lon="6.32825">
        <ele>536</ele>
        <time>2020-08-25T19:34:48Z</time>
      </trkpt>
      <trkpt lat="46.15325" lon="6.32862">
        <ele>535</ele>
        <time>2020-08-25T19:34:54Z</time>
      </trkpt>
      <trkpt lat="46.15291" lon="6.32964">
        <ele>536</ele>
        <time>2020-08-25T19:35:08Z</time>
      </trkpt>
      <trkpt lat="46.15264" lon="6.33072">
        <ele>532</ele>
        <time>2020-08-25T19:35:22Z</time>
      </trkpt>
      <trkpt lat="46.15256" lon="6.33093">
        <ele>532</ele>
        <time>2020-08-25T19:35:25Z</time>
      </trkpt>
      <trkpt lat="46.15204" lon="6.33192">
        <ele>529</ele>
        <time>2020-08-25T19:35:40Z</time>
      </trkpt>
      <trkpt lat="46.1519" lon="6.3323">
        <ele>530</ele>
        <time>2020-08-25T19:35:45Z</time>
      </trkpt>
      <trkpt lat="46.15212" lon="6.33268">
        <ele>531</ele>
        <time>2020-08-25T19:35:52Z</time>
      </trkpt>
      <trkpt lat="46.15219" lon="6.33289">
        <ele>532</ele>
        <time>2020-08-25T19:35:54Z</time>
      </trkpt>
      <trkpt lat="46.15224" lon="6.3334">
        <ele>534</ele>
        <time>2020-08-25T19:36:01Z</time>
      </trkpt>
      <trkpt lat="46.15211" lon="6.33402">
        <ele>536</ele>
        <time>2020-08-25T19:36:09Z</time>
      </trkpt>
      <trkpt lat="46.15177" lon="6.33505">
        <ele>540</ele>
        <time>2020-08-25T19:36:23Z</time>
      </trkpt>
      <trkpt lat="46.15173" lon="6.33538">
        <ele>540</ele>
        <time>2020-08-25T19:36:27Z</time>
      </trkpt>
      <trkpt lat="46.15176" lon="6.33585">
        <ele>540</ele>
        <time>2020-08-25T19:36:33Z</time>
      </trkpt>
      <trkpt lat="46.15209" lon="6.33695">
        <ele>540</ele>
        <time>2020-08-25T19:36:48Z</time>
      </trkpt>
      <trkpt lat="46.15231" lon="6.33813">
        <ele>538</ele>
        <time>2020-08-25T19:37:03Z</time>
      </trkpt>
      <trkpt lat="46.15244" lon="6.33915">
        <ele>544</ele>
        <time>2020-08-25T19:37:15Z</time>
      </trkpt>
      <trkpt lat="46.1526" lon="6.33966">
        <ele>545</ele>
        <time>2020-08-25T19:37:22Z</time>
      </trkpt>
      <trkpt lat="46.15271" lon="6.34012">
        <ele>545</ele>
        <time>2020-08-25T19:37:28Z</time>
      </trkpt>
      <trkpt lat="46.15278" lon="6.34055">
        <ele>546</ele>
        <time>2020-08-25T19:37:34Z</time>
      </trkpt>
      <trkpt lat="46.15278" lon="6.34091">
        <ele>548</ele>
        <time>2020-08-25T19:37:38Z</time>
      </trkpt>
      <trkpt lat="46.15281" lon="6.34122">
        <ele>547</ele>
        <time>2020-08-25T19:37:42Z</time>
      </trkpt>
      <trkpt lat="46.1528" lon="6.34173">
        <ele>548</ele>
        <time>2020-08-25T19:37:48Z</time>
      </trkpt>
      <trkpt lat="46.15283" lon="6.34194">
        <ele>548</ele>
        <time>2020-08-25T19:37:51Z</time>
      </trkpt>
      <trkpt lat="46.15292" lon="6.34223">
        <ele>548</ele>
        <time>2020-08-25T19:37:55Z</time>
      </trkpt>
      <trkpt lat="46.15355" lon="6.34386">
        <ele>551</ele>
        <time>2020-08-25T19:38:18Z</time>
      </trkpt>
      <trkpt lat="46.15362" lon="6.3441">
        <ele>552</ele>
        <time>2020-08-25T19:38:21Z</time>
      </trkpt>
      <trkpt lat="46.15356" lon="6.34426">
        <ele>554</ele>
        <time>2020-08-25T19:38:23Z</time>
      </trkpt>
      <trkpt lat="46.1535" lon="6.34432">
        <ele>555</ele>
        <time>2020-08-25T19:38:25Z</time>
      </trkpt>
      <trkpt lat="46.15338" lon="6.34438">
        <ele>556</ele>
        <time>2020-08-25T19:38:27Z</time>
      </trkpt>
      <trkpt lat="46.15327" lon="6.34436">
        <ele>557</ele>
        <time>2020-08-25T19:38:29Z</time>
      </trkpt>
      <trkpt lat="46.15294" lon="6.34414">
        <ele>558</ele>
        <time>2020-08-25T19:38:35Z</time>
      </trkpt>
      <trkpt lat="46.15277" lon="6.34397">
        <ele>559</ele>
        <time>2020-08-25T19:38:39Z</time>
      </trkpt>
      <trkpt lat="46.15266" lon="6.34382">
        <ele>559</ele>
        <time>2020-08-25T19:38:42Z</time>
      </trkpt>
      <trkpt lat="46.15257" lon="6.34377">
        <ele>560</ele>
        <time>2020-08-25T19:38:43Z</time>
      </trkpt>
      <trkpt lat="46.15253" lon="6.3438">
        <ele>560</ele>
        <time>2020-08-25T19:38:44Z</time>
      </trkpt>
      <trkpt lat="46.15252" lon="6.34397">
        <ele>561</ele>
        <time>2020-08-25T19:38:46Z</time>
      </trkpt>
      <trkpt lat="46.15265" lon="6.34462">
        <ele>563</ele>
        <time>2020-08-25T19:38:55Z</time>
      </trkpt>
      <trkpt lat="46.15266" lon="6.34533">
        <ele>566</ele>
        <time>2020-08-25T19:39:03Z</time>
      </trkpt>
      <trkpt lat="46.15273" lon="6.34606">
        <ele>568</ele>
        <time>2020-08-25T19:39:13Z</time>
      </trkpt>
      <trkpt lat="46.1527" lon="6.34635">
        <ele>569</ele>
        <time>2020-08-25T19:39:16Z</time>
      </trkpt>
      <trkpt lat="46.15256" lon="6.34663">
        <ele>569</ele>
        <time>2020-08-25T19:39:20Z</time>
      </trkpt>
      <trkpt lat="46.15221" lon="6.34718">
        <ele>572</ele>
        <time>2020-08-25T19:39:30Z</time>
      </trkpt>
      <trkpt lat="46.15137" lon="6.34868">
        <ele>578</ele>
        <time>2020-08-25T19:39:53Z</time>
      </trkpt>
      <trkpt lat="46.15095" lon="6.34931">
        <ele>583</ele>
        <time>2020-08-25T19:40:04Z</time>
      </trkpt>
      <trkpt lat="46.15085" lon="6.34955">
        <ele>584</ele>
        <time>2020-08-25T19:40:08Z</time>
      </trkpt>
      <trkpt lat="46.15079" lon="6.34984">
        <ele>585</ele>
        <time>2020-08-25T19:40:11Z</time>
      </trkpt>
      <trkpt lat="46.15079" lon="6.35024">
        <ele>586</ele>
        <time>2020-08-25T19:40:16Z</time>
      </trkpt>
      <trkpt lat="46.15091" lon="6.35114">
        <ele>586</ele>
        <time>2020-08-25T19:40:28Z</time>
      </trkpt>
      <trkpt lat="46.15091" lon="6.35128">
        <ele>586</ele>
        <time>2020-08-25T19:40:29Z</time>
      </trkpt>
      <trkpt lat="46.15107" lon="6.35218">
        <ele>588</ele>
        <time>2020-08-25T19:40:41Z</time>
      </trkpt>
      <trkpt lat="46.1511" lon="6.35255">
        <ele>590</ele>
        <time>2020-08-25T19:40:45Z</time>
      </trkpt>
      <trkpt lat="46.15117" lon="6.35294">
        <ele>591</ele>
        <time>2020-08-25T19:40:50Z</time>
      </trkpt>
      <trkpt lat="46.15122" lon="6.35355">
        <ele>594</ele>
        <time>2020-08-25T19:40:58Z</time>
      </trkpt>
      <trkpt lat="46.15171" lon="6.35609">
        <ele>604</ele>
        <time>2020-08-25T19:41:30Z</time>
      </trkpt>
      <trkpt lat="46.15173" lon="6.35659">
        <ele>607</ele>
        <time>2020-08-25T19:41:37Z</time>
      </trkpt>
      <trkpt lat="46.15172" lon="6.35917">
        <ele>615</ele>
        <time>2020-08-25T19:42:08Z</time>
      </trkpt>
      <trkpt lat="46.15168" lon="6.35952">
        <ele>615</ele>
        <time>2020-08-25T19:42:13Z</time>
      </trkpt>
      <trkpt lat="46.15141" lon="6.36083">
        <ele>618</ele>
        <time>2020-08-25T19:42:30Z</time>
      </trkpt>
      <trkpt lat="46.15131" lon="6.36113">
        <ele>618</ele>
        <time>2020-08-25T19:42:34Z</time>
      </trkpt>
      <trkpt lat="46.15091" lon="6.36197">
        <ele>622</ele>
        <time>2020-08-25T19:42:46Z</time>
      </trkpt>
      <trkpt lat="46.15044" lon="6.36285">
        <ele>624</ele>
        <time>2020-08-25T19:43:00Z</time>
      </trkpt>
      <trkpt lat="46.14963" lon="6.36403">
        <ele>628</ele>
        <time>2020-08-25T19:43:20Z</time>
      </trkpt>
      <trkpt lat="46.14919" lon="6.36457">
        <ele>630</ele>
        <time>2020-08-25T19:43:31Z</time>
      </trkpt>
      <trkpt lat="46.14863" lon="6.36511">
        <ele>631</ele>
        <time>2020-08-25T19:43:43Z</time>
      </trkpt>
      <trkpt lat="46.14832" lon="6.36545">
        <ele>632</ele>
        <time>2020-08-25T19:43:50Z</time>
      </trkpt>
      <trkpt lat="46.14496" lon="6.36873">
        <ele>633</ele>
        <time>2020-08-25T19:45:02Z</time>
      </trkpt>
      <trkpt lat="46.14377" lon="6.36995">
        <ele>630</ele>
        <time>2020-08-25T19:45:28Z</time>
      </trkpt>
      <trkpt lat="46.14261" lon="6.37107">
        <ele>636</ele>
        <time>2020-08-25T19:45:53Z</time>
      </trkpt>
      <trkpt lat="46.14133" lon="6.37236">
        <ele>630</ele>
        <time>2020-08-25T19:46:20Z</time>
      </trkpt>
      <trkpt lat="46.14091" lon="6.3729">
        <ele>627</ele>
        <time>2020-08-25T19:46:30Z</time>
      </trkpt>
      <trkpt lat="46.14045" lon="6.37377">
        <ele>624</ele>
        <time>2020-08-25T19:46:44Z</time>
      </trkpt>
      <trkpt lat="46.1397" lon="6.37554">
        <ele>617</ele>
        <time>2020-08-25T19:47:09Z</time>
      </trkpt>
      <trkpt lat="46.13946" lon="6.37599">
        <ele>617</ele>
        <time>2020-08-25T19:47:16Z</time>
      </trkpt>
      <trkpt lat="46.1391" lon="6.3765">
        <ele>618</ele>
        <time>2020-08-25T19:47:25Z</time>
      </trkpt>
      <trkpt lat="46.13891" lon="6.37702">
        <ele>619</ele>
        <time>2020-08-25T19:47:33Z</time>
      </trkpt>
      <trkpt lat="46.13886" lon="6.37732">
        <ele>619</ele>
        <time>2020-08-25T19:47:36Z</time>
      </trkpt>
      <trkpt lat="46.13884" lon="6.37763">
        <ele>618</ele>
        <time>2020-08-25T19:47:40Z</time>
      </trkpt>
      <trkpt lat="46.13889" lon="6.3787">
        <ele>612</ele>
        <time>2020-08-25T19:47:53Z</time>
      </trkpt>
      <trkpt lat="46.13886" lon="6.379">
        <ele>611</ele>
        <time>2020-08-25T19:47:57Z</time>
      </trkpt>
      <trkpt lat="46.13878" lon="6.37928">
        <ele>611</ele>
        <time>2020-08-25T19:48:01Z</time>
      </trkpt>
      <trkpt lat="46.13801" lon="6.38081">
        <ele>609</ele>
        <time>2020-08-25T19:48:24Z</time>
      </trkpt>
      <trkpt lat="46.13788" lon="6.38101">
        <ele>609</ele>
        <time>2020-08-25T19:48:28Z</time>
      </trkpt>
      <trkpt lat="46.13746" lon="6.38152">
        <ele>610</ele>
        <time>2020-08-25T19:48:37Z</time>
      </trkpt>
      <trkpt lat="46.13717" lon="6.38192">
        <ele>610</ele>
        <time>2020-08-25T19:48:45Z</time>
      </trkpt>
      <trkpt lat="46.13704" lon="6.38214">
        <ele>610</ele>
        <time>2020-08-25T19:48:48Z</time>
      </trkpt>
      <trkpt lat="46.13688" lon="6.38247">
        <ele>609</ele>
        <time>2020-08-25T19:48:53Z</time>
      </trkpt>
      <trkpt lat="46.13618" lon="6.38416">
        <ele>604</ele>
        <time>2020-08-25T19:49:17Z</time>
      </trkpt>
      <trkpt lat="46.13603" lon="6.38445">
        <ele>603</ele>
        <time>2020-08-25T19:49:22Z</time>
      </trkpt>
      <trkpt lat="46.13555" lon="6.38517">
        <ele>599</ele>
        <time>2020-08-25T19:49:34Z</time>
      </trkpt>
      <trkpt lat="46.13533" lon="6.3857">
        <ele>594</ele>
        <time>2020-08-25T19:49:42Z</time>
      </trkpt>
      <trkpt lat="46.13474" lon="6.38753">
        <ele>591</ele>
        <time>2020-08-25T19:50:07Z</time>
      </trkpt>
      <trkpt lat="46.13468" lon="6.38805">
        <ele>591</ele>
        <time>2020-08-25T19:50:13Z</time>
      </trkpt>
      <trkpt lat="46.13458" lon="6.3928">
        <ele>592</ele>
        <time>2020-08-25T19:51:12Z</time>
      </trkpt>
      <trkpt lat="46.13454" lon="6.39298">
        <ele>592</ele>
        <time>2020-08-25T19:51:14Z</time>
      </trkpt>
      <trkpt lat="46.13444" lon="6.39325">
        <ele>592</ele>
        <time>2020-08-25T19:51:18Z</time>
      </trkpt>
      <trkpt lat="46.13444" lon="6.39352">
        <ele>592</ele>
        <time>2020-08-25T19:51:21Z</time>
      </trkpt>
      <trkpt lat="46.13425" lon="6.39485">
        <ele>594</ele>
        <time>2020-08-25T19:51:38Z</time>
      </trkpt>
      <trkpt lat="46.13421" lon="6.39536">
        <ele>594</ele>
        <time>2020-08-25T19:51:44Z</time>
      </trkpt>
      <trkpt lat="46.13416" lon="6.39558">
        <ele>594</ele>
        <time>2020-08-25T19:51:47Z</time>
      </trkpt>
      <trkpt lat="46.13394" lon="6.39621">
        <ele>596</ele>
        <time>2020-08-25T19:51:56Z</time>
      </trkpt>
      <trkpt lat="46.13388" lon="6.39651">
        <ele>597</ele>
        <time>2020-08-25T19:52:00Z</time>
      </trkpt>
      <trkpt lat="46.1338" lon="6.39736">
        <ele>599</ele>
        <time>2020-08-25T19:52:10Z</time>
      </trkpt>
      <trkpt lat="46.1337" lon="6.39792">
        <ele>599</ele>
        <time>2020-08-25T19:52:17Z</time>
      </trkpt>
      <trkpt lat="46.13356" lon="6.39842">
        <ele>600</ele>
        <time>2020-08-25T19:52:24Z</time>
      </trkpt>
      <trkpt lat="46.1331" lon="6.39966">
        <ele>605</ele>
        <time>2020-08-25T19:52:41Z</time>
      </trkpt>
      <trkpt lat="46.13295" lon="6.40029">
        <ele>605</ele>
        <time>2020-08-25T19:52:50Z</time>
      </trkpt>
      <trkpt lat="46.13253" lon="6.40359">
        <ele>602</ele>
        <time>2020-08-25T19:53:31Z</time>
      </trkpt>
      <trkpt lat="46.13247" lon="6.40556">
        <ele>601</ele>
        <time>2020-08-25T19:53:55Z</time>
      </trkpt>
      <trkpt lat="46.13247" lon="6.40596">
        <ele>601</ele>
        <time>2020-08-25T19:54:00Z</time>
      </trkpt>
      <trkpt lat="46.13253" lon="6.40713">
        <ele>600</ele>
        <time>2020-08-25T19:54:15Z</time>
      </trkpt>
      <trkpt lat="46.13252" lon="6.40915">
        <ele>608</ele>
        <time>2020-08-25T19:54:40Z</time>
      </trkpt>
      <trkpt lat="46.13232" lon="6.41239">
        <ele>613</ele>
        <time>2020-08-25T19:55:20Z</time>
      </trkpt>
      <trkpt lat="46.1321" lon="6.41387">
        <ele>614</ele>
        <time>2020-08-25T19:55:38Z</time>
      </trkpt>
      <trkpt lat="46.13207" lon="6.41395">
        <ele>614</ele>
        <time>2020-08-25T19:55:39Z</time>
      </trkpt>
      <trkpt lat="46.13208" lon="6.41403">
        <ele>614</ele>
        <time>2020-08-25T19:55:40Z</time>
      </trkpt>
      <trkpt lat="46.13201" lon="6.4145">
        <ele>615</ele>
        <time>2020-08-25T19:55:46Z</time>
      </trkpt>
      <trkpt lat="46.13198" lon="6.41499">
        <ele>616</ele>
        <time>2020-08-25T19:55:52Z</time>
      </trkpt>
      <trkpt lat="46.13201" lon="6.41592">
        <ele>616</ele>
        <time>2020-08-25T19:56:04Z</time>
      </trkpt>
      <trkpt lat="46.13212" lon="6.41699">
        <ele>617</ele>
        <time>2020-08-25T19:56:17Z</time>
      </trkpt>
      <trkpt lat="46.13224" lon="6.41971">
        <ele>619</ele>
        <time>2020-08-25T19:56:51Z</time>
      </trkpt>
      <trkpt lat="46.13247" lon="6.42311">
        <ele>620</ele>
        <time>2020-08-25T19:57:33Z</time>
      </trkpt>
      <trkpt lat="46.13248" lon="6.42381">
        <ele>621</ele>
        <time>2020-08-25T19:57:42Z</time>
      </trkpt>
      <trkpt lat="46.13263" lon="6.42615">
        <ele>624</ele>
        <time>2020-08-25T19:58:11Z</time>
      </trkpt>
      <trkpt lat="46.13267" lon="6.42729">
        <ele>624</ele>
        <time>2020-08-25T19:58:25Z</time>
      </trkpt>
      <trkpt lat="46.13275" lon="6.42821">
        <ele>625</ele>
        <time>2020-08-25T19:58:36Z</time>
      </trkpt>
      <trkpt lat="46.13288" lon="6.42879">
        <ele>626</ele>
        <time>2020-08-25T19:58:44Z</time>
      </trkpt>
      <trkpt lat="46.133" lon="6.4295">
        <ele>628</ele>
        <time>2020-08-25T19:58:53Z</time>
      </trkpt>
      <trkpt lat="46.13314" lon="6.43015">
        <ele>632</ele>
        <time>2020-08-25T19:59:01Z</time>
      </trkpt>
      <trkpt lat="46.13324" lon="6.43029">
        <ele>633</ele>
        <time>2020-08-25T19:59:04Z</time>
      </trkpt>
      <trkpt lat="46.13331" lon="6.43051">
        <ele>635</ele>
        <time>2020-08-25T19:59:07Z</time>
      </trkpt>
      <trkpt lat="46.13332" lon="6.43079">
        <ele>638</ele>
        <time>2020-08-25T19:59:10Z</time>
      </trkpt>
      <trkpt lat="46.13317" lon="6.43133">
        <ele>641</ele>
        <time>2020-08-25T19:59:17Z</time>
      </trkpt>
      <trkpt lat="46.13313" lon="6.43173">
        <ele>644</ele>
        <time>2020-08-25T19:59:22Z</time>
      </trkpt>
      <trkpt lat="46.13313" lon="6.43209">
        <ele>645</ele>
        <time>2020-08-25T19:59:27Z</time>
      </trkpt>
      <trkpt lat="46.13322" lon="6.43286">
        <ele>644</ele>
        <time>2020-08-25T19:59:36Z</time>
      </trkpt>
      <trkpt lat="46.13331" lon="6.43321">
        <ele>641</ele>
        <time>2020-08-25T19:59:41Z</time>
      </trkpt>
      <trkpt lat="46.13347" lon="6.43359">
        <ele>638</ele>
        <time>2020-08-25T19:59:46Z</time>
      </trkpt>
      <trkpt lat="46.13372" lon="6.43392">
        <ele>636</ele>
        <time>2020-08-25T19:59:52Z</time>
      </trkpt>
      <trkpt lat="46.13393" lon="6.43405">
        <ele>635</ele>
        <time>2020-08-25T19:59:56Z</time>
      </trkpt>
      <trkpt lat="46.1341" lon="6.43407">
        <ele>635</ele>
        <time>2020-08-25T19:59:59Z</time>
      </trkpt>
      <trkpt lat="46.13497" lon="6.43402">
        <ele>632</ele>
        <time>2020-08-25T20:00:15Z</time>
      </trkpt>
      <trkpt lat="46.1354" lon="6.43411">
        <ele>630</ele>
        <time>2020-08-25T20:00:23Z</time>
      </trkpt>
      <trkpt lat="46.13573" lon="6.43414">
        <ele>629</ele>
        <time>2020-08-25T20:00:29Z</time>
      </trkpt>
      <trkpt lat="46.13587" lon="6.43412">
        <ele>628</ele>
        <time>2020-08-25T20:00:31Z</time>
      </trkpt>
      <trkpt lat="46.13616" lon="6.43402">
        <ele>627</ele>
        <time>2020-08-25T20:00:36Z</time>
      </trkpt>
      <trkpt lat="46.13663" lon="6.43378">
        <ele>625</ele>
        <time>2020-08-25T20:00:45Z</time>
      </trkpt>
      <trkpt lat="46.13678" lon="6.43374">
        <ele>623</ele>
        <time>2020-08-25T20:00:48Z</time>
      </trkpt>
      <trkpt lat="46.13694" lon="6.43375">
        <ele>621</ele>
        <time>2020-08-25T20:00:51Z</time>
      </trkpt>
      <trkpt lat="46.13708" lon="6.43383">
        <ele>619</ele>
        <time>2020-08-25T20:00:53Z</time>
      </trkpt>
      <trkpt lat="46.13721" lon="6.43395">
        <ele>618</ele>
        <time>2020-08-25T20:00:56Z</time>
      </trkpt>
      <trkpt lat="46.13764" lon="6.43492">
        <ele>618</ele>
        <time>2020-08-25T20:01:10Z</time>
      </trkpt>
      <trkpt lat="46.13781" lon="6.43522">
        <ele>617</ele>
        <time>2020-08-25T20:01:15Z</time>
      </trkpt>
      <trkpt lat="46.13784" lon="6.43537">
        <ele>617</ele>
        <time>2020-08-25T20:01:17Z</time>
      </trkpt>
      <trkpt lat="46.13779" lon="6.43553">
        <ele>617</ele>
        <time>2020-08-25T20:01:19Z</time>
      </trkpt>
      <trkpt lat="46.13698" lon="6.43655">
        <ele>612</ele>
        <time>2020-08-25T20:01:38Z</time>
      </trkpt>
      <trkpt lat="46.13621" lon="6.43765">
        <ele>610</ele>
        <time>2020-08-25T20:01:58Z</time>
      </trkpt>
      <trkpt lat="46.13589" lon="6.43837">
        <ele>610</ele>
        <time>2020-08-25T20:02:08Z</time>
      </trkpt>
      <trkpt lat="46.1357" lon="6.43913">
        <ele>608</ele>
        <time>2020-08-25T20:02:18Z</time>
      </trkpt>
      <trkpt lat="46.13553" lon="6.44017">
        <ele>606</ele>
        <time>2020-08-25T20:02:31Z</time>
      </trkpt>
      <trkpt lat="46.13506" lon="6.44244">
        <ele>602</ele>
        <time>2020-08-25T20:03:01Z</time>
      </trkpt>
      <trkpt lat="46.13493" lon="6.4427">
        <ele>602</ele>
        <time>2020-08-25T20:03:04Z</time>
      </trkpt>
      <trkpt lat="46.13467" lon="6.44309">
        <ele>601</ele>
        <time>2020-08-25T20:03:11Z</time>
      </trkpt>
      <trkpt lat="46.1346" lon="6.44334">
        <ele>601</ele>
        <time>2020-08-25T20:03:14Z</time>
      </trkpt>
      <trkpt lat="46.13466" lon="6.4436">
        <ele>601</ele>
        <time>2020-08-25T20:03:18Z</time>
      </trkpt>
      <trkpt lat="46.13494" lon="6.44414">
        <ele>599</ele>
        <time>2020-08-25T20:03:26Z</time>
      </trkpt>
      <trkpt lat="46.135" lon="6.44434">
        <ele>599</ele>
        <time>2020-08-25T20:03:29Z</time>
      </trkpt>
      <trkpt lat="46.13502" lon="6.4447">
        <ele>598</ele>
        <time>2020-08-25T20:03:33Z</time>
      </trkpt>
      <trkpt lat="46.13509" lon="6.44494">
        <ele>599</ele>
        <time>2020-08-25T20:03:37Z</time>
      </trkpt>
      <trkpt lat="46.13539" lon="6.44531">
        <ele>599</ele>
        <time>2020-08-25T20:03:44Z</time>
      </trkpt>
      <trkpt lat="46.13547" lon="6.44549">
        <ele>599</ele>
        <time>2020-08-25T20:03:46Z</time>
      </trkpt>
      <trkpt lat="46.13587" lon="6.44746">
        <ele>595</ele>
        <time>2020-08-25T20:04:12Z</time>
      </trkpt>
      <trkpt lat="46.13597" lon="6.44783">
        <ele>596</ele>
        <time>2020-08-25T20:04:16Z</time>
      </trkpt>
      <trkpt lat="46.13709" lon="6.45129">
        <ele>586</ele>
        <time>2020-08-25T20:05:03Z</time>
      </trkpt>
      <trkpt lat="46.13721" lon="6.45158">
        <ele>585</ele>
        <time>2020-08-25T20:05:08Z</time>
      </trkpt>
      <trkpt lat="46.13809" lon="6.45419">
        <ele>581</ele>
        <time>2020-08-25T20:05:43Z</time>
      </trkpt>
      <trkpt lat="46.1382" lon="6.45462">
        <ele>581</ele>
        <time>2020-08-25T20:05:49Z</time>
      </trkpt>
      <trkpt lat="46.13829" lon="6.4548">
        <ele>581</ele>
        <time>2020-08-25T20:05:52Z</time>
      </trkpt>
      <trkpt lat="46.13845" lon="6.45544">
        <ele>583</ele>
        <time>2020-08-25T20:06:00Z</time>
      </trkpt>
      <trkpt lat="46.13853" lon="6.45611">
        <ele>584</ele>
        <time>2020-08-25T20:06:09Z</time>
      </trkpt>
      <trkpt lat="46.13853" lon="6.45652">
        <ele>583</ele>
        <time>2020-08-25T20:06:14Z</time>
      </trkpt>
      <trkpt lat="46.13856" lon="6.45672">
        <ele>584</ele>
        <time>2020-08-25T20:06:16Z</time>
      </trkpt>
      <trkpt lat="46.1386" lon="6.45672">
        <ele>584</ele>
        <time>2020-08-25T20:06:17Z</time>
      </trkpt>
      <trkpt lat="46.13861" lon="6.45667">
        <ele>584</ele>
        <time>2020-08-25T20:06:18Z</time>
      </trkpt>
      <trkpt lat="46.1386" lon="6.45649">
        <ele>584</ele>
        <time>2020-08-25T20:06:20Z</time>
      </trkpt>
      <trkpt lat="46.13864" lon="6.45577">
        <ele>586</ele>
        <time>2020-08-25T20:06:29Z</time>
      </trkpt>
      <trkpt lat="46.13863" lon="6.45539">
        <ele>585</ele>
        <time>2020-08-25T20:06:33Z</time>
      </trkpt>
      <trkpt lat="46.13867" lon="6.45507">
        <ele>585</ele>
        <time>2020-08-25T20:06:37Z</time>
      </trkpt>
      <trkpt lat="46.13879" lon="6.45481">
        <ele>587</ele>
        <time>2020-08-25T20:06:41Z</time>
      </trkpt>
      <trkpt lat="46.13888" lon="6.45473">
        <ele>589</ele>
        <time>2020-08-25T20:06:43Z</time>
      </trkpt>
      <trkpt lat="46.13899" lon="6.45469">
        <ele>591</ele>
        <time>2020-08-25T20:06:45Z</time>
      </trkpt>
      <trkpt lat="46.13928" lon="6.45485">
        <ele>596</ele>
        <time>2020-08-25T20:06:51Z</time>
      </trkpt>
      <trkpt lat="46.1394" lon="6.45498">
        <ele>598</ele>
        <time>2020-08-25T20:06:53Z</time>
      </trkpt>
      <trkpt lat="46.13944" lon="6.45525">
        <ele>599</ele>
        <time>2020-08-25T20:06:57Z</time>
      </trkpt>
      <trkpt lat="46.13944" lon="6.45562">
        <ele>600</ele>
        <time>2020-08-25T20:07:01Z</time>
      </trkpt>
      <trkpt lat="46.13953" lon="6.45615">
        <ele>601</ele>
        <time>2020-08-25T20:07:08Z</time>
      </trkpt>
      <trkpt lat="46.13961" lon="6.45635">
        <ele>601</ele>
        <time>2020-08-25T20:07:11Z</time>
      </trkpt>
      <trkpt lat="46.13986" lon="6.45676">
        <ele>603</ele>
        <time>2020-08-25T20:07:18Z</time>
      </trkpt>
      <trkpt lat="46.1401" lon="6.45729">
        <ele>603</ele>
        <time>2020-08-25T20:07:25Z</time>
      </trkpt>
      <trkpt lat="46.14031" lon="6.45765">
        <ele>605</ele>
        <time>2020-08-25T20:07:31Z</time>
      </trkpt>
      <trkpt lat="46.14042" lon="6.45798">
        <ele>606</ele>
        <time>2020-08-25T20:07:36Z</time>
      </trkpt>
      <trkpt lat="46.14041" lon="6.45804">
        <ele>606</ele>
        <time>2020-08-25T20:07:36Z</time>
      </trkpt>
      <trkpt lat="46.14044" lon="6.45813">
        <ele>607</ele>
        <time>2020-08-25T20:07:38Z</time>
      </trkpt>
      <trkpt lat="46.14053" lon="6.45828">
        <ele>608</ele>
        <time>2020-08-25T20:07:40Z</time>
      </trkpt>
      <trkpt lat="46.14056" lon="6.45838">
        <ele>608</ele>
        <time>2020-08-25T20:07:41Z</time>
      </trkpt>
      <trkpt lat="46.14054" lon="6.4586">
        <ele>609</ele>
        <time>2020-08-25T20:07:44Z</time>
      </trkpt>
      <trkpt lat="46.14043" lon="6.45883">
        <ele>609</ele>
        <time>2020-08-25T20:07:48Z</time>
      </trkpt>
      <trkpt lat="46.14005" lon="6.45907">
        <ele>608</ele>
        <time>2020-08-25T20:07:55Z</time>
      </trkpt>
      <trkpt lat="46.13996" lon="6.45927">
        <ele>608</ele>
        <time>2020-08-25T20:07:58Z</time>
      </trkpt>
      <trkpt lat="46.13987" lon="6.45987">
        <ele>612</ele>
        <time>2020-08-25T20:08:06Z</time>
      </trkpt>
      <trkpt lat="46.13985" lon="6.46022">
        <ele>614</ele>
        <time>2020-08-25T20:08:10Z</time>
      </trkpt>
      <trkpt lat="46.13988" lon="6.46046">
        <ele>616</ele>
        <time>2020-08-25T20:08:13Z</time>
      </trkpt>
      <trkpt lat="46.13997" lon="6.46076">
        <ele>618</ele>
        <time>2020-08-25T20:08:17Z</time>
      </trkpt>
      <trkpt lat="46.14008" lon="6.46093">
        <ele>620</ele>
        <time>2020-08-25T20:08:20Z</time>
      </trkpt>
      <trkpt lat="46.1403" lon="6.4612">
        <ele>623</ele>
        <time>2020-08-25T20:08:25Z</time>
      </trkpt>
      <trkpt lat="46.14094" lon="6.46188">
        <ele>627</ele>
        <time>2020-08-25T20:08:39Z</time>
      </trkpt>
      <trkpt lat="46.14145" lon="6.46234">
        <ele>628</ele>
        <time>2020-08-25T20:08:50Z</time>
      </trkpt>
      <trkpt lat="46.14167" lon="6.46258">
        <ele>628</ele>
        <time>2020-08-25T20:08:55Z</time>
      </trkpt>
      <trkpt lat="46.14268" lon="6.46355">
        <ele>644</ele>
        <time>2020-08-25T20:09:16Z</time>
      </trkpt>
      <trkpt lat="46.14278" lon="6.46361">
        <ele>644</ele>
        <time>2020-08-25T20:09:18Z</time>
      </trkpt>
      <trkpt lat="46.14302" lon="6.46383">
        <ele>645</ele>
        <time>2020-08-25T20:09:23Z</time>
      </trkpt>
      <trkpt lat="46.1434" lon="6.46424">
        <ele>644</ele>
        <time>2020-08-25T20:09:32Z</time>
      </trkpt>
      <trkpt lat="46.14358" lon="6.46448">
        <ele>647</ele>
        <time>2020-08-25T20:09:36Z</time>
      </trkpt>
      <trkpt lat="46.14379" lon="6.46467">
        <ele>646</ele>
        <time>2020-08-25T20:09:40Z</time>
      </trkpt>
      <trkpt lat="46.14401" lon="6.46493">
        <ele>643</ele>
        <time>2020-08-25T20:09:46Z</time>
      </trkpt>
      <trkpt lat="46.14468" lon="6.46557">
        <ele>649</ele>
        <time>2020-08-25T20:10:00Z</time>
      </trkpt>
      <trkpt lat="46.14532" lon="6.46612">
        <ele>648</ele>
        <time>2020-08-25T20:10:13Z</time>
      </trkpt>
      <trkpt lat="46.14593" lon="6.46651">
        <ele>641</ele>
        <time>2020-08-25T20:10:25Z</time>
      </trkpt>
      <trkpt lat="46.14609" lon="6.46658">
        <ele>642</ele>
        <time>2020-08-25T20:10:28Z</time>
      </trkpt>
      <trkpt lat="46.14637" lon="6.46678">
        <ele>643</ele>
        <time>2020-08-25T20:10:33Z</time>
      </trkpt>
      <trkpt lat="46.14645" lon="6.46681">
        <ele>644</ele>
        <time>2020-08-25T20:10:35Z</time>
      </trkpt>
      <trkpt lat="46.14669" lon="6.467">
        <ele>645</ele>
        <time>2020-08-25T20:10:40Z</time>
      </trkpt>
      <trkpt lat="46.14753" lon="6.46748">
        <ele>648</ele>
        <time>2020-08-25T20:10:56Z</time>
      </trkpt>
      <trkpt lat="46.14786" lon="6.46763">
        <ele>647</ele>
        <time>2020-08-25T20:11:02Z</time>
      </trkpt>
      <trkpt lat="46.14836" lon="6.4678">
        <ele>647</ele>
        <time>2020-08-25T20:11:11Z</time>
      </trkpt>
      <trkpt lat="46.14864" lon="6.46787">
        <ele>649</ele>
        <time>2020-08-25T20:11:16Z</time>
      </trkpt>
      <trkpt lat="46.14892" lon="6.46799">
        <ele>650</ele>
        <time>2020-08-25T20:11:21Z</time>
      </trkpt>
      <trkpt lat="46.14925" lon="6.46806">
        <ele>652</ele>
        <time>2020-08-25T20:11:27Z</time>
      </trkpt>
      <trkpt lat="46.14977" lon="6.46824">
        <ele>659</ele>
        <time>2020-08-25T20:11:37Z</time>
      </trkpt>
      <trkpt lat="46.1499" lon="6.46834">
        <ele>660</ele>
        <time>2020-08-25T20:11:39Z</time>
      </trkpt>
      <trkpt lat="46.14997" lon="6.46843">
        <ele>661</ele>
        <time>2020-08-25T20:11:41Z</time>
      </trkpt>
      <trkpt lat="46.1503" lon="6.46888">
        <ele>665</ele>
        <time>2020-08-25T20:11:49Z</time>
      </trkpt>
      <trkpt lat="46.15052" lon="6.46924">
        <ele>664</ele>
        <time>2020-08-25T20:11:55Z</time>
      </trkpt>
      <trkpt lat="46.15065" lon="6.46929">
        <ele>665</ele>
        <time>2020-08-25T20:11:58Z</time>
      </trkpt>
      <trkpt lat="46.15096" lon="6.46951">
        <ele>665</ele>
        <time>2020-08-25T20:12:04Z</time>
      </trkpt>
      <trkpt lat="46.1512" lon="6.46974">
        <ele>664</ele>
        <time>2020-08-25T20:12:09Z</time>
      </trkpt>
      <trkpt lat="46.15159" lon="6.46998">
        <ele>665</ele>
        <time>2020-08-25T20:12:16Z</time>
      </trkpt>
      <trkpt lat="46.15173" lon="6.47011">
        <ele>667</ele>
        <time>2020-08-25T20:12:19Z</time>
      </trkpt>
      <trkpt lat="46.15208" lon="6.47026">
        <ele>675</ele>
        <time>2020-08-25T20:12:26Z</time>
      </trkpt>
      <trkpt lat="46.15223" lon="6.47037">
        <ele>678</ele>
        <time>2020-08-25T20:12:29Z</time>
      </trkpt>
      <trkpt lat="46.15237" lon="6.47053">
        <ele>681</ele>
        <time>2020-08-25T20:12:32Z</time>
      </trkpt>
      <trkpt lat="46.15239" lon="6.47084">
        <ele>679</ele>
        <time>2020-08-25T20:12:36Z</time>
      </trkpt>
      <trkpt lat="46.15252" lon="6.47108">
        <ele>680</ele>
        <time>2020-08-25T20:12:40Z</time>
      </trkpt>
      <trkpt lat="46.15285" lon="6.4714">
        <ele>692</ele>
        <time>2020-08-25T20:12:47Z</time>
      </trkpt>
      <trkpt lat="46.1529" lon="6.47157">
        <ele>693</ele>
        <time>2020-08-25T20:12:49Z</time>
      </trkpt>
      <trkpt lat="46.15285" lon="6.47174">
        <ele>688</ele>
        <time>2020-08-25T20:12:51Z</time>
      </trkpt>
      <trkpt lat="46.15287" lon="6.47186">
        <ele>687</ele>
        <time>2020-08-25T20:12:53Z</time>
      </trkpt>
      <trkpt lat="46.15316" lon="6.47231">
        <ele>692</ele>
        <time>2020-08-25T20:13:00Z</time>
      </trkpt>
      <trkpt lat="46.15334" lon="6.47285">
        <ele>684</ele>
        <time>2020-08-25T20:13:08Z</time>
      </trkpt>
      <trkpt lat="46.15355" lon="6.47312">
        <ele>686</ele>
        <time>2020-08-25T20:13:13Z</time>
      </trkpt>
      <trkpt lat="46.15412" lon="6.47373">
        <ele>691</ele>
        <time>2020-08-25T20:13:25Z</time>
      </trkpt>
      <trkpt lat="46.15448" lon="6.47429">
        <ele>685</ele>
        <time>2020-08-25T20:13:35Z</time>
      </trkpt>
      <trkpt lat="46.15471" lon="6.47444">
        <ele>691</ele>
        <time>2020-08-25T20:13:39Z</time>
      </trkpt>
      <trkpt lat="46.15488" lon="6.47452">
        <ele>695</ele>
        <time>2020-08-25T20:13:42Z</time>
      </trkpt>
      <trkpt lat="46.15488" lon="6.47454">
        <ele>695</ele>
        <time>2020-08-25T20:13:43Z</time>
      </trkpt>
      <trkpt lat="46.15499" lon="6.47461">
        <ele>697</ele>
        <time>2020-08-25T20:13:45Z</time>
      </trkpt>
      <trkpt lat="46.15508" lon="6.47466">
        <ele>699</ele>
        <time>2020-08-25T20:13:47Z</time>
      </trkpt>
      <trkpt lat="46.15514" lon="6.47466">
        <ele>701</ele>
        <time>2020-08-25T20:13:48Z</time>
      </trkpt>
      <trkpt lat="46.15542" lon="6.47485">
        <ele>702</ele>
        <time>2020-08-25T20:13:53Z</time>
      </trkpt>
      <trkpt lat="46.15583" lon="6.47497">
        <ele>707</ele>
        <time>2020-08-25T20:14:01Z</time>
      </trkpt>
      <trkpt lat="46.1562" lon="6.47496">
        <ele>716</ele>
        <time>2020-08-25T20:14:07Z</time>
      </trkpt>
      <trkpt lat="46.15636" lon="6.47501">
        <ele>717</ele>
        <time>2020-08-25T20:14:10Z</time>
      </trkpt>
      <trkpt lat="46.15653" lon="6.47503">
        <ele>720</ele>
        <time>2020-08-25T20:14:13Z</time>
      </trkpt>
      <trkpt lat="46.15668" lon="6.47516">
        <ele>718</ele>
        <time>2020-08-25T20:14:16Z</time>
      </trkpt>
      <trkpt lat="46.15683" lon="6.47537">
        <ele>715</ele>
        <time>2020-08-25T20:14:20Z</time>
      </trkpt>
      <trkpt lat="46.15726" lon="6.4755">
        <ele>729</ele>
        <time>2020-08-25T20:14:28Z</time>
      </trkpt>
      <trkpt lat="46.15731" lon="6.47548">
        <ele>732</ele>
        <time>2020-08-25T20:14:29Z</time>
      </trkpt>
      <trkpt lat="46.15771" lon="6.47554">
        <ele>754</ele>
        <time>2020-08-25T20:14:36Z</time>
      </trkpt>
      <trkpt lat="46.15791" lon="6.47567">
        <ele>759</ele>
        <time>2020-08-25T20:14:40Z</time>
      </trkpt>
      <trkpt lat="46.15803" lon="6.47587">
        <ele>750</ele>
        <time>2020-08-25T20:14:43Z</time>
      </trkpt>
      <trkpt lat="46.15809" lon="6.47602">
        <ele>744</ele>
        <time>2020-08-25T20:14:45Z</time>
      </trkpt>
      <trkpt lat="46.15829" lon="6.47612">
        <ele>748</ele>
        <time>2020-08-25T20:14:49Z</time>
      </trkpt>
      <trkpt lat="46.15829" lon="6.47642">
        <ele>724</ele>
        <time>2020-08-25T20:14:53Z</time>
      </trkpt>
      <trkpt lat="46.15816" lon="6.47678">
        <ele>704</ele>
        <time>2020-08-25T20:14:58Z</time>
      </trkpt>
      <trkpt lat="46.15814" lon="6.47704">
        <ele>707</ele>
        <time>2020-08-25T20:15:01Z</time>
      </trkpt>
      <trkpt lat="46.15829" lon="6.4771">
        <ele>709</ele>
        <time>2020-08-25T20:15:04Z</time>
      </trkpt>
      <trkpt lat="46.15837" lon="6.47721">
        <ele>711</ele>
        <time>2020-08-25T20:15:06Z</time>
      </trkpt>
      <trkpt lat="46.15838" lon="6.47757">
        <ele>717</ele>
        <time>2020-08-25T20:15:10Z</time>
      </trkpt>
      <trkpt lat="46.15849" lon="6.47763">
        <ele>723</ele>
        <time>2020-08-25T20:15:12Z</time>
      </trkpt>
      <trkpt lat="46.1586" lon="6.4778">
        <ele>735</ele>
        <time>2020-08-25T20:15:15Z</time>
      </trkpt>
      <trkpt lat="46.15886" lon="6.47783">
        <ele>739</ele>
        <time>2020-08-25T20:15:20Z</time>
      </trkpt>
      <trkpt lat="46.15903" lon="6.47799">
        <ele>749</ele>
        <time>2020-08-25T20:15:23Z</time>
      </trkpt>
      <trkpt lat="46.15917" lon="6.47807">
        <ele>755</ele>
        <time>2020-08-25T20:15:26Z</time>
      </trkpt>
      <trkpt lat="46.15962" lon="6.47768">
        <ele>737</ele>
        <time>2020-08-25T20:15:35Z</time>
      </trkpt>
      <trkpt lat="46.15972" lon="6.47765">
        <ele>736</ele>
        <time>2020-08-25T20:15:37Z</time>
      </trkpt>
      <trkpt lat="46.15995" lon="6.4774">
        <ele>735</ele>
        <time>2020-08-25T20:15:42Z</time>
      </trkpt>
      <trkpt lat="46.16002" lon="6.47737">
        <ele>736</ele>
        <time>2020-08-25T20:15:43Z</time>
      </trkpt>
      <trkpt lat="46.16025" lon="6.47717">
        <ele>742</ele>
        <time>2020-08-25T20:15:48Z</time>
      </trkpt>
      <trkpt lat="46.16027" lon="6.47692">
        <ele>748</ele>
        <time>2020-08-25T20:15:51Z</time>
      </trkpt>
      <trkpt lat="46.16038" lon="6.47668">
        <ele>753</ele>
        <time>2020-08-25T20:15:55Z</time>
      </trkpt>
      <trkpt lat="46.16051" lon="6.47658">
        <ele>757</ele>
        <time>2020-08-25T20:15:57Z</time>
      </trkpt>
      <trkpt lat="46.16083" lon="6.47664">
        <ele>749</ele>
        <time>2020-08-25T20:16:03Z</time>
      </trkpt>
      <trkpt lat="46.161" lon="6.47661">
        <ele>753</ele>
        <time>2020-08-25T20:16:06Z</time>
      </trkpt>
      <trkpt lat="46.16171" lon="6.47696">
        <ele>754</ele>
        <time>2020-08-25T20:16:20Z</time>
      </trkpt>
      <trkpt lat="46.16176" lon="6.47716">
        <ele>750</ele>
        <time>2020-08-25T20:16:22Z</time>
      </trkpt>
      <trkpt lat="46.16179" lon="6.4772">
        <ele>749</ele>
        <time>2020-08-25T20:16:23Z</time>
      </trkpt>
      <trkpt lat="46.16177" lon="6.47737">
        <ele>744</ele>
        <time>2020-08-25T20:16:25Z</time>
      </trkpt>
      <trkpt lat="46.16188" lon="6.47763">
        <ele>743</ele>
        <time>2020-08-25T20:16:29Z</time>
      </trkpt>
      <trkpt lat="46.16196" lon="6.47766">
        <ele>744</ele>
        <time>2020-08-25T20:16:30Z</time>
      </trkpt>
      <trkpt lat="46.1621" lon="6.47758">
        <ele>743</ele>
        <time>2020-08-25T20:16:33Z</time>
      </trkpt>
      <trkpt lat="46.16245" lon="6.47754">
        <ele>744</ele>
        <time>2020-08-25T20:16:39Z</time>
      </trkpt>
      <trkpt lat="46.1626" lon="6.47748">
        <ele>746</ele>
        <time>2020-08-25T20:16:42Z</time>
      </trkpt>
      <trkpt lat="46.16271" lon="6.47748">
        <ele>745</ele>
        <time>2020-08-25T20:16:44Z</time>
      </trkpt>
      <trkpt lat="46.16282" lon="6.47741">
        <ele>748</ele>
        <time>2020-08-25T20:16:46Z</time>
      </trkpt>
      <trkpt lat="46.16294" lon="6.47739">
        <ele>748</ele>
        <time>2020-08-25T20:16:48Z</time>
      </trkpt>
      <trkpt lat="46.1631" lon="6.47732">
        <ele>750</ele>
        <time>2020-08-25T20:16:51Z</time>
      </trkpt>
      <trkpt lat="46.16315" lon="6.47731">
        <ele>750</ele>
        <time>2020-08-25T20:16:52Z</time>
      </trkpt>
      <trkpt lat="46.16324" lon="6.47735">
        <ele>749</ele>
        <time>2020-08-25T20:16:54Z</time>
      </trkpt>
      <trkpt lat="46.16336" lon="6.47736">
        <ele>748</ele>
        <time>2020-08-25T20:16:56Z</time>
      </trkpt>
      <trkpt lat="46.16354" lon="6.47724">
        <ele>748</ele>
        <time>2020-08-25T20:16:59Z</time>
      </trkpt>
      <trkpt lat="46.16368" lon="6.47706">
        <ele>751</ele>
        <time>2020-08-25T20:17:03Z</time>
      </trkpt>
      <trkpt lat="46.16411" lon="6.4762">
        <ele>763</ele>
        <time>2020-08-25T20:17:16Z</time>
      </trkpt>
      <trkpt lat="46.16417" lon="6.47615">
        <ele>762</ele>
        <time>2020-08-25T20:17:17Z</time>
      </trkpt>
      <trkpt lat="46.16429" lon="6.47611">
        <ele>764</ele>
        <time>2020-08-25T20:17:19Z</time>
      </trkpt>
      <trkpt lat="46.16442" lon="6.47613">
        <ele>763</ele>
        <time>2020-08-25T20:17:22Z</time>
      </trkpt>
      <trkpt lat="46.1645" lon="6.47611">
        <ele>764</ele>
        <time>2020-08-25T20:17:23Z</time>
      </trkpt>
      <trkpt lat="46.16469" lon="6.47618">
        <ele>763</ele>
        <time>2020-08-25T20:17:27Z</time>
      </trkpt>
      <trkpt lat="46.16494" lon="6.47632">
        <ele>761</ele>
        <time>2020-08-25T20:17:31Z</time>
      </trkpt>
      <trkpt lat="46.16499" lon="6.47638">
        <ele>760</ele>
        <time>2020-08-25T20:17:32Z</time>
      </trkpt>
      <trkpt lat="46.16521" lon="6.47647">
        <ele>761</ele>
        <time>2020-08-25T20:17:37Z</time>
      </trkpt>
      <trkpt lat="46.16536" lon="6.47658">
        <ele>761</ele>
        <time>2020-08-25T20:17:40Z</time>
      </trkpt>
      <trkpt lat="46.16554" lon="6.47677">
        <ele>760</ele>
        <time>2020-08-25T20:17:44Z</time>
      </trkpt>
      <trkpt lat="46.16577" lon="6.47691">
        <ele>760</ele>
        <time>2020-08-25T20:17:48Z</time>
      </trkpt>
      <trkpt lat="46.16596" lon="6.47698">
        <ele>762</ele>
        <time>2020-08-25T20:17:51Z</time>
      </trkpt>
      <trkpt lat="46.16614" lon="6.47701">
        <ele>764</ele>
        <time>2020-08-25T20:17:55Z</time>
      </trkpt>
      <trkpt lat="46.16636" lon="6.47702">
        <ele>766</ele>
        <time>2020-08-25T20:17:59Z</time>
      </trkpt>
      <trkpt lat="46.16682" lon="6.47672">
        <ele>776</ele>
        <time>2020-08-25T20:18:08Z</time>
      </trkpt>
      <trkpt lat="46.16698" lon="6.47674">
        <ele>777</ele>
        <time>2020-08-25T20:18:10Z</time>
      </trkpt>
      <trkpt lat="46.16712" lon="6.4768">
        <ele>777</ele>
        <time>2020-08-25T20:18:13Z</time>
      </trkpt>
      <trkpt lat="46.16744" lon="6.47704">
        <ele>774</ele>
        <time>2020-08-25T20:18:19Z</time>
      </trkpt>
      <trkpt lat="46.16756" lon="6.47711">
        <ele>773</ele>
        <time>2020-08-25T20:18:22Z</time>
      </trkpt>
      <trkpt lat="46.16769" lon="6.47715">
        <ele>773</ele>
        <time>2020-08-25T20:18:24Z</time>
      </trkpt>
      <trkpt lat="46.16785" lon="6.47708">
        <ele>773</ele>
        <time>2020-08-25T20:18:27Z</time>
      </trkpt>
      <trkpt lat="46.16803" lon="6.47696">
        <ele>775</ele>
        <time>2020-08-25T20:18:31Z</time>
      </trkpt>
      <trkpt lat="46.16823" lon="6.47682">
        <ele>776</ele>
        <time>2020-08-25T20:18:35Z</time>
      </trkpt>
      <trkpt lat="46.16836" lon="6.47669">
        <ele>777</ele>
        <time>2020-08-25T20:18:37Z</time>
      </trkpt>
      <trkpt lat="46.16853" lon="6.47659">
        <ele>780</ele>
        <time>2020-08-25T20:18:41Z</time>
      </trkpt>
      <trkpt lat="46.16871" lon="6.47658">
        <ele>781</ele>
        <time>2020-08-25T20:18:44Z</time>
      </trkpt>
      <trkpt lat="46.16889" lon="6.47663">
        <ele>783</ele>
        <time>2020-08-25T20:18:47Z</time>
      </trkpt>
      <trkpt lat="46.16909" lon="6.47687">
        <ele>782</ele>
        <time>2020-08-25T20:18:52Z</time>
      </trkpt>
      <trkpt lat="46.16924" lon="6.47722">
        <ele>780</ele>
        <time>2020-08-25T20:18:57Z</time>
      </trkpt>
      <trkpt lat="46.16945" lon="6.47749">
        <ele>780</ele>
        <time>2020-08-25T20:19:02Z</time>
      </trkpt>
      <trkpt lat="46.16964" lon="6.47763">
        <ele>781</ele>
        <time>2020-08-25T20:19:06Z</time>
      </trkpt>
      <trkpt lat="46.16985" lon="6.47772">
        <ele>783</ele>
        <time>2020-08-25T20:19:09Z</time>
      </trkpt>
      <trkpt lat="46.17025" lon="6.47783">
        <ele>787</ele>
        <time>2020-08-25T20:19:17Z</time>
      </trkpt>
      <trkpt lat="46.17044" lon="6.47793">
        <ele>788</ele>
        <time>2020-08-25T20:19:20Z</time>
      </trkpt>
      <trkpt lat="46.17057" lon="6.47803">
        <ele>788</ele>
        <time>2020-08-25T20:19:23Z</time>
      </trkpt>
      <trkpt lat="46.17067" lon="6.47813">
        <ele>788</ele>
        <time>2020-08-25T20:19:25Z</time>
      </trkpt>
      <trkpt lat="46.17096" lon="6.47855">
        <ele>790</ele>
        <time>2020-08-25T20:19:32Z</time>
      </trkpt>
      <trkpt lat="46.17108" lon="6.47889">
        <ele>792</ele>
        <time>2020-08-25T20:19:37Z</time>
      </trkpt>
      <trkpt lat="46.17111" lon="6.47906">
        <ele>792</ele>
        <time>2020-08-25T20:19:39Z</time>
      </trkpt>
      <trkpt lat="46.17115" lon="6.48011">
        <ele>793</ele>
        <time>2020-08-25T20:19:52Z</time>
      </trkpt>
      <trkpt lat="46.17126" lon="6.48037">
        <ele>793</ele>
        <time>2020-08-25T20:19:56Z</time>
      </trkpt>
      <trkpt lat="46.17164" lon="6.48078">
        <ele>794</ele>
        <time>2020-08-25T20:20:04Z</time>
      </trkpt>
      <trkpt lat="46.17249" lon="6.4816">
        <ele>792</ele>
        <time>2020-08-25T20:20:23Z</time>
      </trkpt>
      <trkpt lat="46.17251" lon="6.48171">
        <ele>792</ele>
        <time>2020-08-25T20:20:24Z</time>
      </trkpt>
      <trkpt lat="46.1729" lon="6.48228">
        <ele>793</ele>
        <time>2020-08-25T20:20:34Z</time>
      </trkpt>
      <trkpt lat="46.17325" lon="6.48285">
        <ele>794</ele>
        <time>2020-08-25T20:20:43Z</time>
      </trkpt>
      <trkpt lat="46.1741" lon="6.48457">
        <ele>798</ele>
        <time>2020-08-25T20:21:09Z</time>
      </trkpt>
      <trkpt lat="46.17442" lon="6.48529">
        <ele>800</ele>
        <time>2020-08-25T20:21:20Z</time>
      </trkpt>
      <trkpt lat="46.17524" lon="6.48616">
        <ele>810</ele>
        <time>2020-08-25T20:21:38Z</time>
      </trkpt>
      <trkpt lat="46.17542" lon="6.48645">
        <ele>815</ele>
        <time>2020-08-25T20:21:43Z</time>
      </trkpt>
      <trkpt lat="46.17573" lon="6.48728">
        <ele>823</ele>
        <time>2020-08-25T20:21:54Z</time>
      </trkpt>
      <trkpt lat="46.17581" lon="6.48758">
        <ele>823</ele>
        <time>2020-08-25T20:21:58Z</time>
      </trkpt>
      <trkpt lat="46.17588" lon="6.48811">
        <ele>821</ele>
        <time>2020-08-25T20:22:05Z</time>
      </trkpt>
      <trkpt lat="46.17589" lon="6.48836">
        <ele>819</ele>
        <time>2020-08-25T20:22:08Z</time>
      </trkpt>
      <trkpt lat="46.17595" lon="6.48858">
        <ele>818</ele>
        <time>2020-08-25T20:22:11Z</time>
      </trkpt>
      <trkpt lat="46.17609" lon="6.48884">
        <ele>821</ele>
        <time>2020-08-25T20:22:15Z</time>
      </trkpt>
      <trkpt lat="46.17629" lon="6.48913">
        <ele>825</ele>
        <time>2020-08-25T20:22:20Z</time>
      </trkpt>
      <trkpt lat="46.17658" lon="6.48944">
        <ele>833</ele>
        <time>2020-08-25T20:22:27Z</time>
      </trkpt>
      <trkpt lat="46.17674" lon="6.48956">
        <ele>838</ele>
        <time>2020-08-25T20:22:30Z</time>
      </trkpt>
      <trkpt lat="46.17687" lon="6.48985">
        <ele>838</ele>
        <time>2020-08-25T20:22:34Z</time>
      </trkpt>
      <trkpt lat="46.17694" lon="6.49008">
        <ele>837</ele>
        <time>2020-08-25T20:22:37Z</time>
      </trkpt>
      <trkpt lat="46.17699" lon="6.4904">
        <ele>835</ele>
        <time>2020-08-25T20:22:41Z</time>
      </trkpt>
      <trkpt lat="46.1771" lon="6.49073">
        <ele>835</ele>
        <time>2020-08-25T20:22:46Z</time>
      </trkpt>
      <trkpt lat="46.17713" lon="6.49091">
        <ele>834</ele>
        <time>2020-08-25T20:22:48Z</time>
      </trkpt>
      <trkpt lat="46.17729" lon="6.49137">
        <ele>835</ele>
        <time>2020-08-25T20:22:54Z</time>
      </trkpt>
      <trkpt lat="46.17742" lon="6.4919">
        <ele>834</ele>
        <time>2020-08-25T20:23:01Z</time>
      </trkpt>
      <trkpt lat="46.17748" lon="6.4923">
        <ele>832</ele>
        <time>2020-08-25T20:23:06Z</time>
      </trkpt>
      <trkpt lat="46.17749" lon="6.49268">
        <ele>829</ele>
        <time>2020-08-25T20:23:11Z</time>
      </trkpt>
      <trkpt lat="46.17757" lon="6.49302">
        <ele>829</ele>
        <time>2020-08-25T20:23:15Z</time>
      </trkpt>
      <trkpt lat="46.17817" lon="6.49465">
        <ele>830</ele>
        <time>2020-08-25T20:23:38Z</time>
      </trkpt>
      <trkpt lat="46.17855" lon="6.49542">
        <ele>831</ele>
        <time>2020-08-25T20:23:50Z</time>
      </trkpt>
      <trkpt lat="46.17875" lon="6.49564">
        <ele>832</ele>
        <time>2020-08-25T20:23:54Z</time>
      </trkpt>
      <trkpt lat="46.17889" lon="6.49571">
        <ele>835</ele>
        <time>2020-08-25T20:23:57Z</time>
      </trkpt>
      <trkpt lat="46.17911" lon="6.49573">
        <ele>840</ele>
        <time>2020-08-25T20:24:01Z</time>
      </trkpt>
      <trkpt lat="46.17935" lon="6.4958">
        <ele>848</ele>
        <time>2020-08-25T20:24:05Z</time>
      </trkpt>
      <trkpt lat="46.17949" lon="6.49587">
        <ele>851</ele>
        <time>2020-08-25T20:24:08Z</time>
      </trkpt>
      <trkpt lat="46.17973" lon="6.49606">
        <ele>853</ele>
        <time>2020-08-25T20:24:13Z</time>
      </trkpt>
      <trkpt lat="46.17996" lon="6.49631">
        <ele>851</ele>
        <time>2020-08-25T20:24:18Z</time>
      </trkpt>
      <trkpt lat="46.18043" lon="6.49674">
        <ele>862</ele>
        <time>2020-08-25T20:24:28Z</time>
      </trkpt>
      <trkpt lat="46.18065" lon="6.49691">
        <ele>870</ele>
        <time>2020-08-25T20:24:32Z</time>
      </trkpt>
      <trkpt lat="46.1807" lon="6.49697">
        <ele>871</ele>
        <time>2020-08-25T20:24:33Z</time>
      </trkpt>
      <trkpt lat="46.18077" lon="6.49714">
        <ele>870</ele>
        <time>2020-08-25T20:24:36Z</time>
      </trkpt>
      <trkpt lat="46.18089" lon="6.49761">
        <ele>861</ele>
        <time>2020-08-25T20:24:42Z</time>
      </trkpt>
      <trkpt lat="46.18115" lon="6.49814">
        <ele>852</ele>
        <time>2020-08-25T20:24:50Z</time>
      </trkpt>
      <trkpt lat="46.18131" lon="6.49832">
        <ele>855</ele>
        <time>2020-08-25T20:24:53Z</time>
      </trkpt>
      <trkpt lat="46.18167" lon="6.49845">
        <ele>871</ele>
        <time>2020-08-25T20:25:00Z</time>
      </trkpt>
      <trkpt lat="46.18223" lon="6.49876">
        <ele>877</ele>
        <time>2020-08-25T20:25:11Z</time>
      </trkpt>
      <trkpt lat="46.18229" lon="6.49884">
        <ele>876</ele>
        <time>2020-08-25T20:25:12Z</time>
      </trkpt>
      <trkpt lat="46.18257" lon="6.49968">
        <ele>847</ele>
        <time>2020-08-25T20:25:24Z</time>
      </trkpt>
      <trkpt lat="46.18264" lon="6.49985">
        <ele>841</ele>
        <time>2020-08-25T20:25:26Z</time>
      </trkpt>
      <trkpt lat="46.1827" lon="6.49993">
        <ele>839</ele>
        <time>2020-08-25T20:25:28Z</time>
      </trkpt>
      <trkpt lat="46.18284" lon="6.5">
        <ele>838</ele>
        <time>2020-08-25T20:25:30Z</time>
      </trkpt>
      <trkpt lat="46.18303" lon="6.49996">
        <ele>843</ele>
        <time>2020-08-25T20:25:34Z</time>
      </trkpt>
      <trkpt lat="46.18309" lon="6.49991">
        <ele>845</ele>
        <time>2020-08-25T20:25:35Z</time>
      </trkpt>
      <trkpt lat="46.18342" lon="6.49952">
        <ele>859</ele>
        <time>2020-08-25T20:25:42Z</time>
      </trkpt>
      <trkpt lat="46.1837" lon="6.49889">
        <ele>876</ele>
        <time>2020-08-25T20:25:52Z</time>
      </trkpt>
      <trkpt lat="46.18377" lon="6.49879">
        <ele>879</ele>
        <time>2020-08-25T20:25:53Z</time>
      </trkpt>
      <trkpt lat="46.1839" lon="6.49868">
        <ele>881</ele>
        <time>2020-08-25T20:25:56Z</time>
      </trkpt>
      <trkpt lat="46.18435" lon="6.49845">
        <ele>881</ele>
        <time>2020-08-25T20:26:05Z</time>
      </trkpt>
      <trkpt lat="46.18493" lon="6.49794">
        <ele>889</ele>
        <time>2020-08-25T20:26:17Z</time>
      </trkpt>
      <trkpt lat="46.18548" lon="6.49718">
        <ele>891</ele>
        <time>2020-08-25T20:26:30Z</time>
      </trkpt>
      <trkpt lat="46.18601" lon="6.49617">
        <ele>891</ele>
        <time>2020-08-25T20:26:46Z</time>
      </trkpt>
      <trkpt lat="46.18619" lon="6.49602">
        <ele>888</ele>
        <time>2020-08-25T20:26:50Z</time>
      </trkpt>
      <trkpt lat="46.18666" lon="6.49581">
        <ele>874</ele>
        <time>2020-08-25T20:26:58Z</time>
      </trkpt>
      <trkpt lat="46.1871" lon="6.49569">
        <ele>868</ele>
        <time>2020-08-25T20:27:06Z</time>
      </trkpt>
      <trkpt lat="46.18772" lon="6.49472">
        <ele>868</ele>
        <time>2020-08-25T20:27:22Z</time>
      </trkpt>
      <trkpt lat="46.18782" lon="6.4946">
        <ele>869</ele>
        <time>2020-08-25T20:27:25Z</time>
      </trkpt>
      <trkpt lat="46.18805" lon="6.49447">
        <ele>870</ele>
        <time>2020-08-25T20:27:29Z</time>
      </trkpt>
      <trkpt lat="46.18827" lon="6.49449">
        <ele>870</ele>
        <time>2020-08-25T20:27:33Z</time>
      </trkpt>
      <trkpt lat="46.1887" lon="6.4947">
        <ele>868</ele>
        <time>2020-08-25T20:27:41Z</time>
      </trkpt>
      <trkpt lat="46.18899" lon="6.49473">
        <ele>868</ele>
        <time>2020-08-25T20:27:46Z</time>
      </trkpt>
      <trkpt lat="46.18916" lon="6.49459">
        <ele>870</ele>
        <time>2020-08-25T20:27:50Z</time>
      </trkpt>
      <trkpt lat="46.18976" lon="6.4937">
        <ele>876</ele>
        <time>2020-08-25T20:28:05Z</time>
      </trkpt>
      <trkpt lat="46.19001" lon="6.49357">
        <ele>877</ele>
        <time>2020-08-25T20:28:10Z</time>
      </trkpt>
      <trkpt lat="46.19019" lon="6.49357">
        <ele>878</ele>
        <time>2020-08-25T20:28:13Z</time>
      </trkpt>
      <trkpt lat="46.19033" lon="6.4936">
        <ele>879</ele>
        <time>2020-08-25T20:28:16Z</time>
      </trkpt>
      <trkpt lat="46.19087" lon="6.49387">
        <ele>878</ele>
        <time>2020-08-25T20:28:26Z</time>
      </trkpt>
      <trkpt lat="46.1914" lon="6.49439">
        <ele>877</ele>
        <time>2020-08-25T20:28:37Z</time>
      </trkpt>
      <trkpt lat="46.19165" lon="6.49459">
        <ele>878</ele>
        <time>2020-08-25T20:28:42Z</time>
      </trkpt>
      <trkpt lat="46.19187" lon="6.49466">
        <ele>879</ele>
        <time>2020-08-25T20:28:46Z</time>
      </trkpt>
      <trkpt lat="46.19259" lon="6.4947">
        <ele>884</ele>
        <time>2020-08-25T20:28:59Z</time>
      </trkpt>
      <trkpt lat="46.19297" lon="6.49479">
        <ele>885</ele>
        <time>2020-08-25T20:29:06Z</time>
      </trkpt>
      <trkpt lat="46.19342" lon="6.49513">
        <ele>885</ele>
        <time>2020-08-25T20:29:15Z</time>
      </trkpt>
      <trkpt lat="46.19393" lon="6.49559">
        <ele>886</ele>
        <time>2020-08-25T20:29:26Z</time>
      </trkpt>
      <trkpt lat="46.19426" lon="6.49583">
        <ele>887</ele>
        <time>2020-08-25T20:29:32Z</time>
      </trkpt>
      <trkpt lat="46.19459" lon="6.49599">
        <ele>886</ele>
        <time>2020-08-25T20:29:38Z</time>
      </trkpt>
      <trkpt lat="46.19595" lon="6.49655">
        <ele>883</ele>
        <time>2020-08-25T20:30:04Z</time>
      </trkpt>
      <trkpt lat="46.1979" lon="6.4974">
        <ele>886</ele>
        <time>2020-08-25T20:30:40Z</time>
      </trkpt>
      <trkpt lat="46.1997" lon="6.49796">
        <ele>888</ele>
        <time>2020-08-25T20:31:13Z</time>
      </trkpt>
      <trkpt lat="46.19985" lon="6.49819">
        <ele>887</ele>
        <time>2020-08-25T20:31:16Z</time>
      </trkpt>
      <trkpt lat="46.19993" lon="6.49821">
        <ele>886</ele>
        <time>2020-08-25T20:31:18Z</time>
      </trkpt>
      <trkpt lat="46.20017" lon="6.49818">
        <ele>887</ele>
        <time>2020-08-25T20:31:22Z</time>
      </trkpt>
      <trkpt lat="46.2003" lon="6.49819">
        <ele>887</ele>
        <time>2020-08-25T20:31:25Z</time>
      </trkpt>
      <trkpt lat="46.20068" lon="6.4983">
        <ele>886</ele>
        <time>2020-08-25T20:31:31Z</time>
      </trkpt>
      <trkpt lat="46.20218" lon="6.49884">
        <ele>886</ele>
        <time>2020-08-25T20:31:59Z</time>
      </trkpt>
      <trkpt lat="46.20388" lon="6.4994">
        <ele>888</ele>
        <time>2020-08-25T20:32:30Z</time>
      </trkpt>
      <trkpt lat="46.20452" lon="6.49964">
        <ele>888</ele>
        <time>2020-08-25T20:32:42Z</time>
      </trkpt>
      <trkpt lat="46.20554" lon="6.49995">
        <ele>885</ele>
        <time>2020-08-25T20:33:00Z</time>
      </trkpt>
      <trkpt lat="46.20787" lon="6.50073">
        <ele>889</ele>
        <time>2020-08-25T20:33:43Z</time>
      </trkpt>
      <trkpt lat="46.20895" lon="6.50106">
        <ele>891</ele>
        <time>2020-08-25T20:34:02Z</time>
      </trkpt>
      <trkpt lat="46.2094" lon="6.50123">
        <ele>892</ele>
        <time>2020-08-25T20:34:11Z</time>
      </trkpt>
      <trkpt lat="46.20976" lon="6.50133">
        <ele>892</ele>
        <time>2020-08-25T20:34:17Z</time>
      </trkpt>
      <trkpt lat="46.21048" lon="6.50158">
        <ele>894</ele>
        <time>2020-08-25T20:34:30Z</time>
      </trkpt>
      <trkpt lat="46.21115" lon="6.50184">
        <ele>897</ele>
        <time>2020-08-25T20:34:43Z</time>
      </trkpt>
      <trkpt lat="46.21273" lon="6.50234">
        <ele>903</ele>
        <time>2020-08-25T20:35:12Z</time>
      </trkpt>
      <trkpt lat="46.21319" lon="6.50252">
        <ele>903</ele>
        <time>2020-08-25T20:35:20Z</time>
      </trkpt>
      <trkpt lat="46.21387" lon="6.50274">
        <ele>907</ele>
        <time>2020-08-25T20:35:32Z</time>
      </trkpt>
      <trkpt lat="46.2141" lon="6.50279">
        <ele>908</ele>
        <time>2020-08-25T20:35:37Z</time>
      </trkpt>
      <trkpt lat="46.21468" lon="6.50301">
        <ele>909</ele>
        <time>2020-08-25T20:35:47Z</time>
      </trkpt>
      <trkpt lat="46.21486" lon="6.50311">
        <ele>910</ele>
        <time>2020-08-25T20:35:51Z</time>
      </trkpt>
      <trkpt lat="46.21528" lon="6.50343">
        <ele>912</ele>
        <time>2020-08-25T20:35:59Z</time>
      </trkpt>
      <trkpt lat="46.21544" lon="6.50359">
        <ele>912</ele>
        <time>2020-08-25T20:36:03Z</time>
      </trkpt>
      <trkpt lat="46.2156" lon="6.50381">
        <ele>913</ele>
        <time>2020-08-25T20:36:07Z</time>
      </trkpt>
      <trkpt lat="46.21585" lon="6.50403">
        <ele>914</ele>
        <time>2020-08-25T20:36:12Z</time>
      </trkpt>
      <trkpt lat="46.21619" lon="6.50449">
        <ele>917</ele>
        <time>2020-08-25T20:36:20Z</time>
      </trkpt>
      <trkpt lat="46.21693" lon="6.50541">
        <ele>933</ele>
        <time>2020-08-25T20:36:37Z</time>
      </trkpt>
      <trkpt lat="46.21701" lon="6.50556">
        <ele>937</ele>
        <time>2020-08-25T20:36:40Z</time>
      </trkpt>
      <trkpt lat="46.21716" lon="6.50575">
        <ele>940</ele>
        <time>2020-08-25T20:36:43Z</time>
      </trkpt>
      <trkpt lat="46.21794" lon="6.50659">
        <ele>943</ele>
        <time>2020-08-25T20:37:01Z</time>
      </trkpt>
      <trkpt lat="46.21807" lon="6.50679">
        <ele>944</ele>
        <time>2020-08-25T20:37:04Z</time>
      </trkpt>
      <trkpt lat="46.2184" lon="6.50705">
        <ele>942</ele>
        <time>2020-08-25T20:37:11Z</time>
      </trkpt>
      <trkpt lat="46.21861" lon="6.50727">
        <ele>944</ele>
        <time>2020-08-25T20:37:15Z</time>
      </trkpt>
      <trkpt lat="46.21879" lon="6.50759">
        <ele>947</ele>
        <time>2020-08-25T20:37:20Z</time>
      </trkpt>
      <trkpt lat="46.21916" lon="6.5079">
        <ele>942</ele>
        <time>2020-08-25T20:37:28Z</time>
      </trkpt>
      <trkpt lat="46.21941" lon="6.50817">
        <ele>947</ele>
        <time>2020-08-25T20:37:34Z</time>
      </trkpt>
      <trkpt lat="46.21976" lon="6.50838">
        <ele>947</ele>
        <time>2020-08-25T20:37:40Z</time>
      </trkpt>
      <trkpt lat="46.22003" lon="6.50873">
        <ele>956</ele>
        <time>2020-08-25T20:37:47Z</time>
      </trkpt>
      <trkpt lat="46.2203" lon="6.50892">
        <ele>954</ele>
        <time>2020-08-25T20:37:52Z</time>
      </trkpt>
      <trkpt lat="46.22051" lon="6.50912">
        <ele>954</ele>
        <time>2020-08-25T20:37:57Z</time>
      </trkpt>
      <trkpt lat="46.22089" lon="6.50952">
        <ele>962</ele>
        <time>2020-08-25T20:38:05Z</time>
      </trkpt>
      <trkpt lat="46.22094" lon="6.5096">
        <ele>965</ele>
        <time>2020-08-25T20:38:06Z</time>
      </trkpt>
      <trkpt lat="46.22123" lon="6.50986">
        <ele>968</ele>
        <time>2020-08-25T20:38:12Z</time>
      </trkpt>
      <trkpt lat="46.22144" lon="6.51012">
        <ele>972</ele>
        <time>2020-08-25T20:38:17Z</time>
      </trkpt>
      <trkpt lat="46.22159" lon="6.51017">
        <ele>969</ele>
        <time>2020-08-25T20:38:20Z</time>
      </trkpt>
      <trkpt lat="46.222" lon="6.5104">
        <ele>967</ele>
        <time>2020-08-25T20:38:28Z</time>
      </trkpt>
      <trkpt lat="46.22218" lon="6.51047">
        <ele>965</ele>
        <time>2020-08-25T20:38:31Z</time>
      </trkpt>
      <trkpt lat="46.22252" lon="6.5107">
        <ele>964</ele>
        <time>2020-08-25T20:38:38Z</time>
      </trkpt>
      <trkpt lat="46.22282" lon="6.511">
        <ele>968</ele>
        <time>2020-08-25T20:38:44Z</time>
      </trkpt>
      <trkpt lat="46.22295" lon="6.51108">
        <ele>967</ele>
        <time>2020-08-25T20:38:47Z</time>
      </trkpt>
      <trkpt lat="46.22312" lon="6.51124">
        <ele>969</ele>
        <time>2020-08-25T20:38:50Z</time>
      </trkpt>
      <trkpt lat="46.22338" lon="6.51132">
        <ele>963</ele>
        <time>2020-08-25T20:38:55Z</time>
      </trkpt>
      <trkpt lat="46.22366" lon="6.5115">
        <ele>963</ele>
        <time>2020-08-25T20:39:01Z</time>
      </trkpt>
      <trkpt lat="46.22425" lon="6.51217">
        <ele>975</ele>
        <time>2020-08-25T20:39:14Z</time>
      </trkpt>
      <trkpt lat="46.22449" lon="6.51239">
        <ele>977</ele>
        <time>2020-08-25T20:39:19Z</time>
      </trkpt>
      <trkpt lat="46.22463" lon="6.51257">
        <ele>979</ele>
        <time>2020-08-25T20:39:22Z</time>
      </trkpt>
      <trkpt lat="46.22475" lon="6.51265">
        <ele>978</ele>
        <time>2020-08-25T20:39:25Z</time>
      </trkpt>
      <trkpt lat="46.22477" lon="6.51273">
        <ele>981</ele>
        <time>2020-08-25T20:39:26Z</time>
      </trkpt>
      <trkpt lat="46.22486" lon="6.51283">
        <ele>982</ele>
        <time>2020-08-25T20:39:28Z</time>
      </trkpt>
      <trkpt lat="46.22497" lon="6.51288">
        <ele>980</ele>
        <time>2020-08-25T20:39:30Z</time>
      </trkpt>
      <trkpt lat="46.22524" lon="6.51307">
        <ele>980</ele>
        <time>2020-08-25T20:39:35Z</time>
      </trkpt>
      <trkpt lat="46.22561" lon="6.5132">
        <ele>976</ele>
        <time>2020-08-25T20:39:42Z</time>
      </trkpt>
      <trkpt lat="46.22578" lon="6.5133">
        <ele>975</ele>
        <time>2020-08-25T20:39:45Z</time>
      </trkpt>
      <trkpt lat="46.22587" lon="6.51337">
        <ele>976</ele>
        <time>2020-08-25T20:39:47Z</time>
      </trkpt>
      <trkpt lat="46.22591" lon="6.51345">
        <ele>979</ele>
        <time>2020-08-25T20:39:48Z</time>
      </trkpt>
      <trkpt lat="46.22604" lon="6.51355">
        <ele>981</ele>
        <time>2020-08-25T20:39:51Z</time>
      </trkpt>
      <trkpt lat="46.22628" lon="6.51381">
        <ele>987</ele>
        <time>2020-08-25T20:39:56Z</time>
      </trkpt>
      <trkpt lat="46.22641" lon="6.51388">
        <ele>987</ele>
        <time>2020-08-25T20:39:59Z</time>
      </trkpt>
      <trkpt lat="46.2265" lon="6.51396">
        <ele>988</ele>
        <time>2020-08-25T20:40:00Z</time>
      </trkpt>
      <trkpt lat="46.22686" lon="6.5141">
        <ele>986</ele>
        <time>2020-08-25T20:40:07Z</time>
      </trkpt>
      <trkpt lat="46.22689" lon="6.51416">
        <ele>988</ele>
        <time>2020-08-25T20:40:08Z</time>
      </trkpt>
      <trkpt lat="46.22703" lon="6.51427">
        <ele>992</ele>
        <time>2020-08-25T20:40:11Z</time>
      </trkpt>
      <trkpt lat="46.22722" lon="6.51436">
        <ele>993</ele>
        <time>2020-08-25T20:40:14Z</time>
      </trkpt>
      <trkpt lat="46.22731" lon="6.51443">
        <ele>994</ele>
        <time>2020-08-25T20:40:16Z</time>
      </trkpt>
      <trkpt lat="46.22757" lon="6.51448">
        <ele>992</ele>
        <time>2020-08-25T20:40:21Z</time>
      </trkpt>
      <trkpt lat="46.22766" lon="6.51453">
        <ele>993</ele>
        <time>2020-08-25T20:40:23Z</time>
      </trkpt>
      <trkpt lat="46.22782" lon="6.5147">
        <ele>999</ele>
        <time>2020-08-25T20:40:26Z</time>
      </trkpt>
      <trkpt lat="46.22804" lon="6.51486">
        <ele>1003</ele>
        <time>2020-08-25T20:40:31Z</time>
      </trkpt>
      <trkpt lat="46.22839" lon="6.515">
        <ele>1004</ele>
        <time>2020-08-25T20:40:37Z</time>
      </trkpt>
      <trkpt lat="46.22862" lon="6.51505">
        <ele>1002</ele>
        <time>2020-08-25T20:40:41Z</time>
      </trkpt>
      <trkpt lat="46.22891" lon="6.51507">
        <ele>998</ele>
        <time>2020-08-25T20:40:46Z</time>
      </trkpt>
      <trkpt lat="46.22917" lon="6.51516">
        <ele>998</ele>
        <time>2020-08-25T20:40:51Z</time>
      </trkpt>
      <trkpt lat="46.2299" lon="6.51554">
        <ele>1003</ele>
        <time>2020-08-25T20:41:05Z</time>
      </trkpt>
      <trkpt lat="46.22992" lon="6.5156">
        <ele>1006</ele>
        <time>2020-08-25T20:41:06Z</time>
      </trkpt>
      <trkpt lat="46.22993" lon="6.51558">
        <ele>1005</ele>
        <time>2020-08-25T20:41:06Z</time>
      </trkpt>
      <trkpt lat="46.23019" lon="6.51572">
        <ele>1006</ele>
        <time>2020-08-25T20:41:11Z</time>
      </trkpt>
      <trkpt lat="46.23033" lon="6.51582">
        <ele>1008</ele>
        <time>2020-08-25T20:41:14Z</time>
      </trkpt>
      <trkpt lat="46.23061" lon="6.5161">
        <ele>1017</ele>
        <time>2020-08-25T20:41:20Z</time>
      </trkpt>
      <trkpt lat="46.23079" lon="6.51623">
        <ele>1020</ele>
        <time>2020-08-25T20:41:23Z</time>
      </trkpt>
      <trkpt lat="46.23112" lon="6.51655">
        <ele>1026</ele>
        <time>2020-08-25T20:41:30Z</time>
      </trkpt>
      <trkpt lat="46.2315" lon="6.51683">
        <ele>1023</ele>
        <time>2020-08-25T20:41:38Z</time>
      </trkpt>
      <trkpt lat="46.2316" lon="6.51688">
        <ele>1021</ele>
        <time>2020-08-25T20:41:40Z</time>
      </trkpt>
      <trkpt lat="46.2319" lon="6.5172">
        <ele>1029</ele>
        <time>2020-08-25T20:41:47Z</time>
      </trkpt>
      <trkpt lat="46.2326" lon="6.5176">
        <ele>1027</ele>
        <time>2020-08-25T20:42:00Z</time>
      </trkpt>
      <trkpt lat="46.23272" lon="6.51773">
        <ele>1030</ele>
        <time>2020-08-25T20:42:03Z</time>
      </trkpt>
      <trkpt lat="46.2333" lon="6.5182">
        <ele>1040</ele>
        <time>2020-08-25T20:42:14Z</time>
      </trkpt>
      <trkpt lat="46.23331" lon="6.51825">
        <ele>1042</ele>
        <time>2020-08-25T20:42:15Z</time>
      </trkpt>
      <trkpt lat="46.23353" lon="6.5185">
        <ele>1046</ele>
        <time>2020-08-25T20:42:20Z</time>
      </trkpt>
      <trkpt lat="46.23372" lon="6.51863">
        <ele>1045</ele>
        <time>2020-08-25T20:42:24Z</time>
      </trkpt>
      <trkpt lat="46.23399" lon="6.51876">
        <ele>1041</ele>
        <time>2020-08-25T20:42:29Z</time>
      </trkpt>
      <trkpt lat="46.23439" lon="6.519">
        <ele>1040</ele>
        <time>2020-08-25T20:42:37Z</time>
      </trkpt>
      <trkpt lat="46.23443" lon="6.51908">
        <ele>1042</ele>
        <time>2020-08-25T20:42:38Z</time>
      </trkpt>
      <trkpt lat="46.23498" lon="6.51972">
        <ele>1040</ele>
        <time>2020-08-25T20:42:50Z</time>
      </trkpt>
      <trkpt lat="46.23503" lon="6.51989">
        <ele>1040</ele>
        <time>2020-08-25T20:42:53Z</time>
      </trkpt>
      <trkpt lat="46.23506" lon="6.51991">
        <ele>1040</ele>
        <time>2020-08-25T20:42:53Z</time>
      </trkpt>
      <trkpt lat="46.23514" lon="6.51986">
        <ele>1040</ele>
        <time>2020-08-25T20:42:55Z</time>
      </trkpt>
      <trkpt lat="46.2352" lon="6.51998">
        <ele>1040</ele>
        <time>2020-08-25T20:42:57Z</time>
      </trkpt>
      <trkpt lat="46.23534" lon="6.52">
        <ele>1040</ele>
        <time>2020-08-25T20:42:59Z</time>
      </trkpt>
      <trkpt lat="46.23551" lon="6.51991">
        <ele>1039</ele>
        <time>2020-08-25T20:43:02Z</time>
      </trkpt>
      <trkpt lat="46.23632" lon="6.5196">
        <ele>1041</ele>
        <time>2020-08-25T20:43:17Z</time>
      </trkpt>
      <trkpt lat="46.23647" lon="6.51952">
        <ele>1041</ele>
        <time>2020-08-25T20:43:20Z</time>
      </trkpt>
      <trkpt lat="46.23666" lon="6.51936">
        <ele>1040</ele>
        <time>2020-08-25T20:43:24Z</time>
      </trkpt>
      <trkpt lat="46.23676" lon="6.51922">
        <ele>1039</ele>
        <time>2020-08-25T20:43:26Z</time>
      </trkpt>
      <trkpt lat="46.23685" lon="6.51901">
        <ele>1039</ele>
        <time>2020-08-25T20:43:29Z</time>
      </trkpt>
      <trkpt lat="46.23694" lon="6.5184">
        <ele>1037</ele>
        <time>2020-08-25T20:43:37Z</time>
      </trkpt>
      <trkpt lat="46.23708" lon="6.51806">
        <ele>1035</ele>
        <time>2020-08-25T20:43:42Z</time>
      </trkpt>
      <trkpt lat="46.23745" lon="6.51763">
        <ele>1036</ele>
        <time>2020-08-25T20:43:50Z</time>
      </trkpt>
      <trkpt lat="46.23787" lon="6.51726">
        <ele>1038</ele>
        <time>2020-08-25T20:43:59Z</time>
      </trkpt>
      <trkpt lat="46.23815" lon="6.51708">
        <ele>1041</ele>
        <time>2020-08-25T20:44:05Z</time>
      </trkpt>
      <trkpt lat="46.23839" lon="6.51687">
        <ele>1042</ele>
        <time>2020-08-25T20:44:10Z</time>
      </trkpt>
      <trkpt lat="46.23863" lon="6.51659">
        <ele>1040</ele>
        <time>2020-08-25T20:44:15Z</time>
      </trkpt>
      <trkpt lat="46.23889" lon="6.51642">
        <ele>1042</ele>
        <time>2020-08-25T20:44:20Z</time>
      </trkpt>
      <trkpt lat="46.23917" lon="6.51634">
        <ele>1044</ele>
        <time>2020-08-25T20:44:25Z</time>
      </trkpt>
      <trkpt lat="46.23952" lon="6.51633">
        <ele>1047</ele>
        <time>2020-08-25T20:44:32Z</time>
      </trkpt>
      <trkpt lat="46.23974" lon="6.51628">
        <ele>1049</ele>
        <time>2020-08-25T20:44:35Z</time>
      </trkpt>
      <trkpt lat="46.23989" lon="6.51619">
        <ele>1049</ele>
        <time>2020-08-25T20:44:38Z</time>
      </trkpt>
      <trkpt lat="46.23988" lon="6.51608">
        <ele>1047</ele>
        <time>2020-08-25T20:44:40Z</time>
      </trkpt>
      <trkpt lat="46.24014" lon="6.51595">
        <ele>1046</ele>
        <time>2020-08-25T20:44:45Z</time>
      </trkpt>
      <trkpt lat="46.24033" lon="6.51595">
        <ele>1047</ele>
        <time>2020-08-25T20:44:48Z</time>
      </trkpt>
      <trkpt lat="46.2408" lon="6.51582">
        <ele>1047</ele>
        <time>2020-08-25T20:44:57Z</time>
      </trkpt>
      <trkpt lat="46.24228" lon="6.51528">
        <ele>1056</ele>
        <time>2020-08-25T20:45:24Z</time>
      </trkpt>
      <trkpt lat="46.24279" lon="6.51507">
        <ele>1056</ele>
        <time>2020-08-25T20:45:33Z</time>
      </trkpt>
      <trkpt lat="46.24314" lon="6.51488">
        <ele>1059</ele>
        <time>2020-08-25T20:45:40Z</time>
      </trkpt>
      <trkpt lat="46.24324" lon="6.51485">
        <ele>1061</ele>
        <time>2020-08-25T20:45:42Z</time>
      </trkpt>
      <trkpt lat="46.24343" lon="6.51473">
        <ele>1062</ele>
        <time>2020-08-25T20:45:45Z</time>
      </trkpt>
      <trkpt lat="46.24363" lon="6.51467">
        <ele>1065</ele>
        <time>2020-08-25T20:45:49Z</time>
      </trkpt>
      <trkpt lat="46.24371" lon="6.51458">
        <ele>1065</ele>
        <time>2020-08-25T20:45:51Z</time>
      </trkpt>
      <trkpt lat="46.24371" lon="6.51455">
        <ele>1064</ele>
        <time>2020-08-25T20:45:51Z</time>
      </trkpt>
      <trkpt lat="46.24379" lon="6.5145">
        <ele>1065</ele>
        <time>2020-08-25T20:45:53Z</time>
      </trkpt>
      <trkpt lat="46.24391" lon="6.51449">
        <ele>1066</ele>
        <time>2020-08-25T20:45:55Z</time>
      </trkpt>
      <trkpt lat="46.244" lon="6.51445">
        <ele>1067</ele>
        <time>2020-08-25T20:45:56Z</time>
      </trkpt>
      <trkpt lat="46.24413" lon="6.51446">
        <ele>1069</ele>
        <time>2020-08-25T20:45:59Z</time>
      </trkpt>
      <trkpt lat="46.24423" lon="6.51443">
        <ele>1070</ele>
        <time>2020-08-25T20:46:01Z</time>
      </trkpt>
      <trkpt lat="46.24449" lon="6.51445">
        <ele>1073</ele>
        <time>2020-08-25T20:46:05Z</time>
      </trkpt>
      <trkpt lat="46.24505" lon="6.51432">
        <ele>1076</ele>
        <time>2020-08-25T20:46:15Z</time>
      </trkpt>
      <trkpt lat="46.24533" lon="6.51431">
        <ele>1079</ele>
        <time>2020-08-25T20:46:20Z</time>
      </trkpt>
      <trkpt lat="46.24544" lon="6.51426">
        <ele>1079</ele>
        <time>2020-08-25T20:46:22Z</time>
      </trkpt>
      <trkpt lat="46.24562" lon="6.5141">
        <ele>1080</ele>
        <time>2020-08-25T20:46:26Z</time>
      </trkpt>
      <trkpt lat="46.24568" lon="6.51401">
        <ele>1081</ele>
        <time>2020-08-25T20:46:28Z</time>
      </trkpt>
      <trkpt lat="46.2458" lon="6.51396">
        <ele>1082</ele>
        <time>2020-08-25T20:46:30Z</time>
      </trkpt>
      <trkpt lat="46.24602" lon="6.51391">
        <ele>1084</ele>
        <time>2020-08-25T20:46:34Z</time>
      </trkpt>
      <trkpt lat="46.2462" lon="6.51396">
        <ele>1086</ele>
        <time>2020-08-25T20:46:37Z</time>
      </trkpt>
      <trkpt lat="46.24641" lon="6.51394">
        <ele>1087</ele>
        <time>2020-08-25T20:46:41Z</time>
      </trkpt>
      <trkpt lat="46.24674" lon="6.51368">
        <ele>1090</ele>
        <time>2020-08-25T20:46:48Z</time>
      </trkpt>
      <trkpt lat="46.24746" lon="6.51322">
        <ele>1099</ele>
        <time>2020-08-25T20:47:02Z</time>
      </trkpt>
      <trkpt lat="46.24763" lon="6.51321">
        <ele>1100</ele>
        <time>2020-08-25T20:47:05Z</time>
      </trkpt>
      <trkpt lat="46.24806" lon="6.51325">
        <ele>1102</ele>
        <time>2020-08-25T20:47:12Z</time>
      </trkpt>
      <trkpt lat="46.24819" lon="6.51315">
        <ele>1103</ele>
        <time>2020-08-25T20:47:15Z</time>
      </trkpt>
      <trkpt lat="46.24825" lon="6.51303">
        <ele>1104</ele>
        <time>2020-08-25T20:47:17Z</time>
      </trkpt>
      <trkpt lat="46.24826" lon="6.51299">
        <ele>1104</ele>
        <time>2020-08-25T20:47:17Z</time>
      </trkpt>
      <trkpt lat="46.2482" lon="6.51292">
        <ele>1104</ele>
        <time>2020-08-25T20:47:19Z</time>
      </trkpt>
      <trkpt lat="46.24834" lon="6.51311">
        <ele>1104</ele>
        <time>2020-08-25T20:47:22Z</time>
      </trkpt>
      <trkpt lat="46.24831" lon="6.51325">
        <ele>1104</ele>
        <time>2020-08-25T20:47:24Z</time>
      </trkpt>
      <trkpt lat="46.24837" lon="6.5133">
        <ele>1104</ele>
        <time>2020-08-25T20:47:25Z</time>
      </trkpt>
      <trkpt lat="46.24851" lon="6.51331">
        <ele>1105</ele>
        <time>2020-08-25T20:47:28Z</time>
      </trkpt>
      <trkpt lat="46.24877" lon="6.51314">
        <ele>1106</ele>
        <time>2020-08-25T20:47:33Z</time>
      </trkpt>
      <trkpt lat="46.24882" lon="6.51313">
        <ele>1106</ele>
        <time>2020-08-25T20:47:33Z</time>
      </trkpt>
      <trkpt lat="46.24899" lon="6.51288">
        <ele>1107</ele>
        <time>2020-08-25T20:47:38Z</time>
      </trkpt>
      <trkpt lat="46.24915" lon="6.5127">
        <ele>1108</ele>
        <time>2020-08-25T20:47:41Z</time>
      </trkpt>
      <trkpt lat="46.24939" lon="6.51253">
        <ele>1109</ele>
        <time>2020-08-25T20:47:46Z</time>
      </trkpt>
      <trkpt lat="46.24958" lon="6.51252">
        <ele>1110</ele>
        <time>2020-08-25T20:47:50Z</time>
      </trkpt>
      <trkpt lat="46.24995" lon="6.51256">
        <ele>1113</ele>
        <time>2020-08-25T20:47:56Z</time>
      </trkpt>
      <trkpt lat="46.25043" lon="6.51265">
        <ele>1113</ele>
        <time>2020-08-25T20:48:05Z</time>
      </trkpt>
      <trkpt lat="46.25145" lon="6.51278">
        <ele>1114</ele>
        <time>2020-08-25T20:48:23Z</time>
      </trkpt>
      <trkpt lat="46.25179" lon="6.5128">
        <ele>1114</ele>
        <time>2020-08-25T20:48:29Z</time>
      </trkpt>
      <trkpt lat="46.25227" lon="6.51289">
        <ele>1112</ele>
        <time>2020-08-25T20:48:38Z</time>
      </trkpt>
      <trkpt lat="46.25266" lon="6.51291">
        <ele>1111</ele>
        <time>2020-08-25T20:48:45Z</time>
      </trkpt>
      <trkpt lat="46.25357" lon="6.51308">
        <ele>1107</ele>
        <time>2020-08-25T20:49:01Z</time>
      </trkpt>
      <trkpt lat="46.25371" lon="6.51304">
        <ele>1107</ele>
        <time>2020-08-25T20:49:03Z</time>
      </trkpt>
      <trkpt lat="46.25381" lon="6.51293">
        <ele>1107</ele>
        <time>2020-08-25T20:49:06Z</time>
      </trkpt>
      <trkpt lat="46.25385" lon="6.51283">
        <ele>1107</ele>
        <time>2020-08-25T20:49:07Z</time>
      </trkpt>
      <trkpt lat="46.25388" lon="6.51266">
        <ele>1108</ele>
        <time>2020-08-25T20:49:09Z</time>
      </trkpt>
      <trkpt lat="46.25394" lon="6.511">
        <ele>1107</ele>
        <time>2020-08-25T20:49:30Z</time>
      </trkpt>
      <trkpt lat="46.25392" lon="6.51062">
        <ele>1106</ele>
        <time>2020-08-25T20:49:34Z</time>
      </trkpt>
      <trkpt lat="46.25382" lon="6.51042">
        <ele>1107</ele>
        <time>2020-08-25T20:49:37Z</time>
      </trkpt>
      <trkpt lat="46.25334" lon="6.50976">
        <ele>1111</ele>
        <time>2020-08-25T20:49:49Z</time>
      </trkpt>
      <trkpt lat="46.25318" lon="6.50943">
        <ele>1113</ele>
        <time>2020-08-25T20:49:54Z</time>
      </trkpt>
      <trkpt lat="46.25304" lon="6.50899">
        <ele>1115</ele>
        <time>2020-08-25T20:50:00Z</time>
      </trkpt>
      <trkpt lat="46.25287" lon="6.50857">
        <ele>1118</ele>
        <time>2020-08-25T20:50:06Z</time>
      </trkpt>
      <trkpt lat="46.25268" lon="6.50817">
        <ele>1120</ele>
        <time>2020-08-25T20:50:12Z</time>
      </trkpt>
      <trkpt lat="46.25231" lon="6.50751">
        <ele>1120</ele>
        <time>2020-08-25T20:50:23Z</time>
      </trkpt>
      <trkpt lat="46.25215" lon="6.50703">
        <ele>1117</ele>
        <time>2020-08-25T20:50:29Z</time>
      </trkpt>
      <trkpt lat="46.2518" lon="6.50563">
        <ele>1115</ele>
        <time>2020-08-25T20:50:47Z</time>
      </trkpt>
      <trkpt lat="46.2518" lon="6.50547">
        <ele>1116</ele>
        <time>2020-08-25T20:50:49Z</time>
      </trkpt>
      <trkpt lat="46.25184" lon="6.50532">
        <ele>1116</ele>
        <time>2020-08-25T20:50:51Z</time>
      </trkpt>
      <trkpt lat="46.25227" lon="6.50492">
        <ele>1110</ele>
        <time>2020-08-25T20:51:00Z</time>
      </trkpt>
      <trkpt lat="46.25235" lon="6.50478">
        <ele>1107</ele>
        <time>2020-08-25T20:51:03Z</time>
      </trkpt>
      <trkpt lat="46.25237" lon="6.50461">
        <ele>1105</ele>
        <time>2020-08-25T20:51:05Z</time>
      </trkpt>
      <trkpt lat="46.25197" lon="6.50294">
        <ele>1101</ele>
        <time>2020-08-25T20:51:27Z</time>
      </trkpt>
      <trkpt lat="46.25192" lon="6.50219">
        <ele>1096</ele>
        <time>2020-08-25T20:51:36Z</time>
      </trkpt>
      <trkpt lat="46.25187" lon="6.50185">
        <ele>1094</ele>
        <time>2020-08-25T20:51:40Z</time>
      </trkpt>
      <trkpt lat="46.25181" lon="6.50162">
        <ele>1094</ele>
        <time>2020-08-25T20:51:43Z</time>
      </trkpt>
      <trkpt lat="46.25171" lon="6.50137">
        <ele>1093</ele>
        <time>2020-08-25T20:51:47Z</time>
      </trkpt>
      <trkpt lat="46.25138" lon="6.50067">
        <ele>1095</ele>
        <time>2020-08-25T20:51:57Z</time>
      </trkpt>
      <trkpt lat="46.25125" lon="6.50033">
        <ele>1095</ele>
        <time>2020-08-25T20:52:02Z</time>
      </trkpt>
      <trkpt lat="46.25095" lon="6.49902">
        <ele>1085</ele>
        <time>2020-08-25T20:52:19Z</time>
      </trkpt>
      <trkpt lat="46.25084" lon="6.49873">
        <ele>1085</ele>
        <time>2020-08-25T20:52:23Z</time>
      </trkpt>
      <trkpt lat="46.25084" lon="6.49827">
        <ele>1085</ele>
        <time>2020-08-25T20:52:29Z</time>
      </trkpt>
      <trkpt lat="46.25076" lon="6.49794">
        <ele>1090</ele>
        <time>2020-08-25T20:52:33Z</time>
      </trkpt>
      <trkpt lat="46.25065" lon="6.49771">
        <ele>1092</ele>
        <time>2020-08-25T20:52:36Z</time>
      </trkpt>
      <trkpt lat="46.25029" lon="6.49721">
        <ele>1094</ele>
        <time>2020-08-25T20:52:45Z</time>
      </trkpt>
      <trkpt lat="46.24999" lon="6.49654">
        <ele>1092</ele>
        <time>2020-08-25T20:52:55Z</time>
      </trkpt>
      <trkpt lat="46.24947" lon="6.49551">
        <ele>1094</ele>
        <time>2020-08-25T20:53:11Z</time>
      </trkpt>
      <trkpt lat="46.24895" lon="6.49423">
        <ele>1098</ele>
        <time>2020-08-25T20:53:29Z</time>
      </trkpt>
      <trkpt lat="46.24851" lon="6.49339">
        <ele>1096</ele>
        <time>2020-08-25T20:53:42Z</time>
      </trkpt>
      <trkpt lat="46.2481" lon="6.4925">
        <ele>1100</ele>
        <time>2020-08-25T20:53:55Z</time>
      </trkpt>
      <trkpt lat="46.24768" lon="6.49171">
        <ele>1097</ele>
        <time>2020-08-25T20:54:07Z</time>
      </trkpt>
      <trkpt lat="46.24742" lon="6.49125">
        <ele>1096</ele>
        <time>2020-08-25T20:54:15Z</time>
      </trkpt>
      <trkpt lat="46.24696" lon="6.49054">
        <ele>1098</ele>
        <time>2020-08-25T20:54:27Z</time>
      </trkpt>
      <trkpt lat="46.24679" lon="6.4903">
        <ele>1097</ele>
        <time>2020-08-25T20:54:31Z</time>
      </trkpt>
      <trkpt lat="46.24634" lon="6.48978">
        <ele>1099</ele>
        <time>2020-08-25T20:54:41Z</time>
      </trkpt>
      <trkpt lat="46.24616" lon="6.48944">
        <ele>1099</ele>
        <time>2020-08-25T20:54:46Z</time>
      </trkpt>
      <trkpt lat="46.24587" lon="6.48878">
        <ele>1096</ele>
        <time>2020-08-25T20:54:56Z</time>
      </trkpt>
      <trkpt lat="46.24577" lon="6.48863">
        <ele>1096</ele>
        <time>2020-08-25T20:54:59Z</time>
      </trkpt>
      <trkpt lat="46.24571" lon="6.48858">
        <ele>1097</ele>
        <time>2020-08-25T20:55:00Z</time>
      </trkpt>
      <trkpt lat="46.24578" lon="6.4885">
        <ele>1095</ele>
        <time>2020-08-25T20:55:01Z</time>
      </trkpt>
      <trkpt lat="46.24571" lon="6.4884">
        <ele>1096</ele>
        <time>2020-08-25T20:55:03Z</time>
      </trkpt>
      <trkpt lat="46.24523" lon="6.48729">
        <ele>1093</ele>
        <time>2020-08-25T20:55:19Z</time>
      </trkpt>
      <trkpt lat="46.245" lon="6.48687">
        <ele>1091</ele>
        <time>2020-08-25T20:55:26Z</time>
      </trkpt>
      <trkpt lat="46.24398" lon="6.48543">
        <ele>1088</ele>
        <time>2020-08-25T20:55:51Z</time>
      </trkpt>
      <trkpt lat="46.24387" lon="6.48509">
        <ele>1085</ele>
        <time>2020-08-25T20:55:56Z</time>
      </trkpt>
      <trkpt lat="46.24375" lon="6.48377">
        <ele>1078</ele>
        <time>2020-08-25T20:56:12Z</time>
      </trkpt>
      <trkpt lat="46.24359" lon="6.48328">
        <ele>1075</ele>
        <time>2020-08-25T20:56:19Z</time>
      </trkpt>
      <trkpt lat="46.24341" lon="6.48295">
        <ele>1073</ele>
        <time>2020-08-25T20:56:24Z</time>
      </trkpt>
      <trkpt lat="46.24304" lon="6.48244">
        <ele>1069</ele>
        <time>2020-08-25T20:56:33Z</time>
      </trkpt>
      <trkpt lat="46.24288" lon="6.48228">
        <ele>1067</ele>
        <time>2020-08-25T20:56:37Z</time>
      </trkpt>
      <trkpt lat="46.24241" lon="6.48193">
        <ele>1064</ele>
        <time>2020-08-25T20:56:46Z</time>
      </trkpt>
      <trkpt lat="46.24223" lon="6.48175">
        <ele>1066</ele>
        <time>2020-08-25T20:56:50Z</time>
      </trkpt>
      <trkpt lat="46.24147" lon="6.48076">
        <ele>1068</ele>
        <time>2020-08-25T20:57:08Z</time>
      </trkpt>
      <trkpt lat="46.24135" lon="6.4805">
        <ele>1067</ele>
        <time>2020-08-25T20:57:12Z</time>
      </trkpt>
      <trkpt lat="46.24129" lon="6.4802">
        <ele>1064</ele>
        <time>2020-08-25T20:57:16Z</time>
      </trkpt>
      <trkpt lat="46.24136" lon="6.47802">
        <ele>1047</ele>
        <time>2020-08-25T20:57:43Z</time>
      </trkpt>
      <trkpt lat="46.24117" lon="6.47697">
        <ele>1045</ele>
        <time>2020-08-25T20:57:56Z</time>
      </trkpt>
      <trkpt lat="46.24121" lon="6.47675">
        <ele>1045</ele>
        <time>2020-08-25T20:57:59Z</time>
      </trkpt>
      <trkpt lat="46.24127" lon="6.47666">
        <ele>1044</ele>
        <time>2020-08-25T20:58:00Z</time>
      </trkpt>
      <trkpt lat="46.24172" lon="6.47631">
        <ele>1039</ele>
        <time>2020-08-25T20:58:09Z</time>
      </trkpt>
      <trkpt lat="46.24181" lon="6.47616">
        <ele>1038</ele>
        <time>2020-08-25T20:58:12Z</time>
      </trkpt>
      <trkpt lat="46.24199" lon="6.47537">
        <ele>1038</ele>
        <time>2020-08-25T20:58:22Z</time>
      </trkpt>
      <trkpt lat="46.24217" lon="6.47487">
        <ele>1032</ele>
        <time>2020-08-25T20:58:29Z</time>
      </trkpt>
      <trkpt lat="46.2423" lon="6.47441">
        <ele>1028</ele>
        <time>2020-08-25T20:58:35Z</time>
      </trkpt>
      <trkpt lat="46.24226" lon="6.47376">
        <ele>1029</ele>
        <time>2020-08-25T20:58:43Z</time>
      </trkpt>
      <trkpt lat="46.24218" lon="6.47341">
        <ele>1029</ele>
        <time>2020-08-25T20:58:48Z</time>
      </trkpt>
      <trkpt lat="46.24216" lon="6.47319">
        <ele>1027</ele>
        <time>2020-08-25T20:58:51Z</time>
      </trkpt>
      <trkpt lat="46.24216" lon="6.47276">
        <ele>1021</ele>
        <time>2020-08-25T20:58:56Z</time>
      </trkpt>
      <trkpt lat="46.24223" lon="6.47257">
        <ele>1017</ele>
        <time>2020-08-25T20:58:58Z</time>
      </trkpt>
      <trkpt lat="46.24227" lon="6.47256">
        <ele>1016</ele>
        <time>2020-08-25T20:58:59Z</time>
      </trkpt>
      <trkpt lat="46.24235" lon="6.47263">
        <ele>1014</ele>
        <time>2020-08-25T20:59:01Z</time>
      </trkpt>
      <trkpt lat="46.24239" lon="6.47282">
        <ele>1015</ele>
        <time>2020-08-25T20:59:03Z</time>
      </trkpt>
      <trkpt lat="46.24237" lon="6.47385">
        <ele>1024</ele>
        <time>2020-08-25T20:59:16Z</time>
      </trkpt>
      <trkpt lat="46.24238" lon="6.47407">
        <ele>1025</ele>
        <time>2020-08-25T20:59:19Z</time>
      </trkpt>
      <trkpt lat="46.24244" lon="6.4744">
        <ele>1021</ele>
        <time>2020-08-25T20:59:23Z</time>
      </trkpt>
      <trkpt lat="46.24275" lon="6.47522">
        <ele>1008</ele>
        <time>2020-08-25T20:59:34Z</time>
      </trkpt>
      <trkpt lat="46.24297" lon="6.47563">
        <ele>1004</ele>
        <time>2020-08-25T20:59:41Z</time>
      </trkpt>
      <trkpt lat="46.24316" lon="6.47583">
        <ele>1002</ele>
        <time>2020-08-25T20:59:45Z</time>
      </trkpt>
      <trkpt lat="46.24338" lon="6.47595">
        <ele>999</ele>
        <time>2020-08-25T20:59:49Z</time>
      </trkpt>
      <trkpt lat="46.24357" lon="6.47596">
        <ele>997</ele>
        <time>2020-08-25T20:59:52Z</time>
      </trkpt>
      <trkpt lat="46.24366" lon="6.476">
        <ele>996</ele>
        <time>2020-08-25T20:59:54Z</time>
      </trkpt>
      <trkpt lat="46.24381" lon="6.47613">
        <ele>995</ele>
        <time>2020-08-25T20:59:57Z</time>
      </trkpt>
      <trkpt lat="46.24499" lon="6.47787">
        <ele>995</ele>
        <time>2020-08-25T21:00:27Z</time>
      </trkpt>
      <trkpt lat="46.24505" lon="6.4779">
        <ele>995</ele>
        <time>2020-08-25T21:00:28Z</time>
      </trkpt>
      <trkpt lat="46.24525" lon="6.47784">
        <ele>995</ele>
        <time>2020-08-25T21:00:32Z</time>
      </trkpt>
      <trkpt lat="46.24542" lon="6.47757">
        <ele>992</ele>
        <time>2020-08-25T21:00:37Z</time>
      </trkpt>
      <trkpt lat="46.24567" lon="6.47699">
        <ele>986</ele>
        <time>2020-08-25T21:00:45Z</time>
      </trkpt>
      <trkpt lat="46.24598" lon="6.47643">
        <ele>982</ele>
        <time>2020-08-25T21:00:54Z</time>
      </trkpt>
      <trkpt lat="46.24626" lon="6.476">
        <ele>980</ele>
        <time>2020-08-25T21:01:01Z</time>
      </trkpt>
      <trkpt lat="46.2465" lon="6.47575">
        <ele>977</ele>
        <time>2020-08-25T21:01:06Z</time>
      </trkpt>
      <trkpt lat="46.24668" lon="6.47565">
        <ele>975</ele>
        <time>2020-08-25T21:01:10Z</time>
      </trkpt>
      <trkpt lat="46.24747" lon="6.47537">
        <ele>971</ele>
        <time>2020-08-25T21:01:24Z</time>
      </trkpt>
      <trkpt lat="46.24764" lon="6.47528">
        <ele>970</ele>
        <time>2020-08-25T21:01:27Z</time>
      </trkpt>
      <trkpt lat="46.24772" lon="6.47521">
        <ele>969</ele>
        <time>2020-08-25T21:01:29Z</time>
      </trkpt>
      <trkpt lat="46.24801" lon="6.4747">
        <ele>965</ele>
        <time>2020-08-25T21:01:37Z</time>
      </trkpt>
      <trkpt lat="46.24849" lon="6.47365">
        <ele>961</ele>
        <time>2020-08-25T21:01:53Z</time>
      </trkpt>
      <trkpt lat="46.24854" lon="6.47346">
        <ele>960</ele>
        <time>2020-08-25T21:01:55Z</time>
      </trkpt>
      <trkpt lat="46.24847" lon="6.47331">
        <ele>959</ele>
        <time>2020-08-25T21:01:57Z</time>
      </trkpt>
      <trkpt lat="46.24736" lon="6.4728">
        <ele>949</ele>
        <time>2020-08-25T21:02:18Z</time>
      </trkpt>
      <trkpt lat="46.24714" lon="6.47274">
        <ele>948</ele>
        <time>2020-08-25T21:02:22Z</time>
      </trkpt>
      <trkpt lat="46.247" lon="6.47274">
        <ele>947</ele>
        <time>2020-08-25T21:02:25Z</time>
      </trkpt>
      <trkpt lat="46.24686" lon="6.47278">
        <ele>947</ele>
        <time>2020-08-25T21:02:27Z</time>
      </trkpt>
      <trkpt lat="46.24663" lon="6.47292">
        <ele>948</ele>
        <time>2020-08-25T21:02:32Z</time>
      </trkpt>
      <trkpt lat="46.24654" lon="6.47295">
        <ele>948</ele>
        <time>2020-08-25T21:02:33Z</time>
      </trkpt>
      <trkpt lat="46.24637" lon="6.47296">
        <ele>948</ele>
        <time>2020-08-25T21:02:36Z</time>
      </trkpt>
      <trkpt lat="46.24621" lon="6.4729">
        <ele>948</ele>
        <time>2020-08-25T21:02:39Z</time>
      </trkpt>
      <trkpt lat="46.24607" lon="6.47278">
        <ele>947</ele>
        <time>2020-08-25T21:02:42Z</time>
      </trkpt>
      <trkpt lat="46.24597" lon="6.47259">
        <ele>944</ele>
        <time>2020-08-25T21:02:45Z</time>
      </trkpt>
      <trkpt lat="46.24591" lon="6.47237">
        <ele>942</ele>
        <time>2020-08-25T21:02:48Z</time>
      </trkpt>
      <trkpt lat="46.24588" lon="6.47212">
        <ele>941</ele>
        <time>2020-08-25T21:02:51Z</time>
      </trkpt>
      <trkpt lat="46.24588" lon="6.47176">
        <ele>938</ele>
        <time>2020-08-25T21:02:56Z</time>
      </trkpt>
      <trkpt lat="46.2462" lon="6.47003">
        <ele>933</ele>
        <time>2020-08-25T21:03:18Z</time>
      </trkpt>
      <trkpt lat="46.24622" lon="6.46962">
        <ele>931</ele>
        <time>2020-08-25T21:03:23Z</time>
      </trkpt>
      <trkpt lat="46.2462" lon="6.46949">
        <ele>930</ele>
        <time>2020-08-25T21:03:24Z</time>
      </trkpt>
      <trkpt lat="46.24607" lon="6.46908">
        <ele>926</ele>
        <time>2020-08-25T21:03:30Z</time>
      </trkpt>
      <trkpt lat="46.24529" lon="6.46768">
        <ele>918</ele>
        <time>2020-08-25T21:03:52Z</time>
      </trkpt>
      <trkpt lat="46.24476" lon="6.46657">
        <ele>911</ele>
        <time>2020-08-25T21:04:09Z</time>
      </trkpt>
      <trkpt lat="46.24444" lon="6.4661">
        <ele>909</ele>
        <time>2020-08-25T21:04:17Z</time>
      </trkpt>
      <trkpt lat="46.24408" lon="6.46573">
        <ele>907</ele>
        <time>2020-08-25T21:04:24Z</time>
      </trkpt>
      <trkpt lat="46.24253" lon="6.46433">
        <ele>902</ele>
        <time>2020-08-25T21:04:57Z</time>
      </trkpt>
      <trkpt lat="46.242" lon="6.4639">
        <ele>898</ele>
        <time>2020-08-25T21:05:08Z</time>
      </trkpt>
      <trkpt lat="46.24153" lon="6.46362">
        <ele>895</ele>
        <time>2020-08-25T21:05:17Z</time>
      </trkpt>
      <trkpt lat="46.24044" lon="6.46328">
        <ele>895</ele>
        <time>2020-08-25T21:05:37Z</time>
      </trkpt>
      <trkpt lat="46.24018" lon="6.46312">
        <ele>897</ele>
        <time>2020-08-25T21:05:42Z</time>
      </trkpt>
      <trkpt lat="46.23994" lon="6.46276">
        <ele>896</ele>
        <time>2020-08-25T21:05:48Z</time>
      </trkpt>
      <trkpt lat="46.23944" lon="6.46159">
        <ele>890</ele>
        <time>2020-08-25T21:06:05Z</time>
      </trkpt>
      <trkpt lat="46.23914" lon="6.46117">
        <ele>887</ele>
        <time>2020-08-25T21:06:12Z</time>
      </trkpt>
      <trkpt lat="46.23828" lon="6.46037">
        <ele>882</ele>
        <time>2020-08-25T21:06:30Z</time>
      </trkpt>
      <trkpt lat="46.23799" lon="6.46005">
        <ele>880</ele>
        <time>2020-08-25T21:06:37Z</time>
      </trkpt>
      <trkpt lat="46.23741" lon="6.45928">
        <ele>878</ele>
        <time>2020-08-25T21:06:51Z</time>
      </trkpt>
      <trkpt lat="46.2371" lon="6.45892">
        <ele>876</ele>
        <time>2020-08-25T21:06:58Z</time>
      </trkpt>
      <trkpt lat="46.23668" lon="6.45852">
        <ele>874</ele>
        <time>2020-08-25T21:07:07Z</time>
      </trkpt>
      <trkpt lat="46.23644" lon="6.45842">
        <ele>875</ele>
        <time>2020-08-25T21:07:11Z</time>
      </trkpt>
      <trkpt lat="46.23633" lon="6.45841">
        <ele>875</ele>
        <time>2020-08-25T21:07:13Z</time>
      </trkpt>
      <trkpt lat="46.23627" lon="6.45848">
        <ele>876</ele>
        <time>2020-08-25T21:07:15Z</time>
      </trkpt>
      <trkpt lat="46.23617" lon="6.45875">
        <ele>878</ele>
        <time>2020-08-25T21:07:19Z</time>
      </trkpt>
      <trkpt lat="46.23596" lon="6.45912">
        <ele>881</ele>
        <time>2020-08-25T21:07:24Z</time>
      </trkpt>
      <trkpt lat="46.2358" lon="6.45937">
        <ele>884</ele>
        <time>2020-08-25T21:07:29Z</time>
      </trkpt>
      <trkpt lat="46.23559" lon="6.45961">
        <ele>887</ele>
        <time>2020-08-25T21:07:33Z</time>
      </trkpt>
      <trkpt lat="46.2355" lon="6.45961">
        <ele>887</ele>
        <time>2020-08-25T21:07:35Z</time>
      </trkpt>
      <trkpt lat="46.23516" lon="6.45937">
        <ele>886</ele>
        <time>2020-08-25T21:07:42Z</time>
      </trkpt>
      <trkpt lat="46.23505" lon="6.45938">
        <ele>886</ele>
        <time>2020-08-25T21:07:44Z</time>
      </trkpt>
      <trkpt lat="46.23494" lon="6.45947">
        <ele>887</ele>
        <time>2020-08-25T21:07:46Z</time>
      </trkpt>
      <trkpt lat="46.23478" lon="6.45974">
        <ele>889</ele>
        <time>2020-08-25T21:07:50Z</time>
      </trkpt>
      <trkpt lat="46.23472" lon="6.45999">
        <ele>891</ele>
        <time>2020-08-25T21:07:54Z</time>
      </trkpt>
      <trkpt lat="46.23475" lon="6.46023">
        <ele>894</ele>
        <time>2020-08-25T21:07:57Z</time>
      </trkpt>
      <trkpt lat="46.23485" lon="6.4605">
        <ele>895</ele>
        <time>2020-08-25T21:08:00Z</time>
      </trkpt>
      <trkpt lat="46.23486" lon="6.46065">
        <ele>897</ele>
        <time>2020-08-25T21:08:02Z</time>
      </trkpt>
      <trkpt lat="46.23473" lon="6.46109">
        <ele>903</ele>
        <time>2020-08-25T21:08:08Z</time>
      </trkpt>
      <trkpt lat="46.2347" lon="6.4613">
        <ele>905</ele>
        <time>2020-08-25T21:08:11Z</time>
      </trkpt>
      <trkpt lat="46.23471" lon="6.46141">
        <ele>906</ele>
        <time>2020-08-25T21:08:12Z</time>
      </trkpt>
      <trkpt lat="46.23477" lon="6.46156">
        <ele>907</ele>
        <time>2020-08-25T21:08:14Z</time>
      </trkpt>
      <trkpt lat="46.23484" lon="6.46164">
        <ele>907</ele>
        <time>2020-08-25T21:08:16Z</time>
      </trkpt>
      <trkpt lat="46.23499" lon="6.46173">
        <ele>906</ele>
        <time>2020-08-25T21:08:19Z</time>
      </trkpt>
      <trkpt lat="46.23507" lon="6.46181">
        <ele>907</ele>
        <time>2020-08-25T21:08:20Z</time>
      </trkpt>
      <trkpt lat="46.23507" lon="6.46184">
        <ele>907</ele>
        <time>2020-08-25T21:08:21Z</time>
      </trkpt>
      <trkpt lat="46.23503" lon="6.46204">
        <ele>908</ele>
        <time>2020-08-25T21:08:23Z</time>
      </trkpt>
      <trkpt lat="46.23494" lon="6.46212">
        <ele>909</ele>
        <time>2020-08-25T21:08:25Z</time>
      </trkpt>
      <trkpt lat="46.23477" lon="6.46212">
        <ele>911</ele>
        <time>2020-08-25T21:08:28Z</time>
      </trkpt>
      <trkpt lat="46.23464" lon="6.46218">
        <ele>913</ele>
        <time>2020-08-25T21:08:31Z</time>
      </trkpt>
      <trkpt lat="46.23458" lon="6.46229">
        <ele>914</ele>
        <time>2020-08-25T21:08:32Z</time>
      </trkpt>
      <trkpt lat="46.23456" lon="6.46245">
        <ele>915</ele>
        <time>2020-08-25T21:08:34Z</time>
      </trkpt>
      <trkpt lat="46.2346" lon="6.46262">
        <ele>917</ele>
        <time>2020-08-25T21:08:37Z</time>
      </trkpt>
      <trkpt lat="46.23484" lon="6.46287">
        <ele>917</ele>
        <time>2020-08-25T21:08:42Z</time>
      </trkpt>
      <trkpt lat="46.23493" lon="6.46304">
        <ele>918</ele>
        <time>2020-08-25T21:08:44Z</time>
      </trkpt>
      <trkpt lat="46.23495" lon="6.46321">
        <ele>920</ele>
        <time>2020-08-25T21:08:47Z</time>
      </trkpt>
      <trkpt lat="46.23496" lon="6.4641">
        <ele>932</ele>
        <time>2020-08-25T21:08:58Z</time>
      </trkpt>
      <trkpt lat="46.235" lon="6.46422">
        <ele>934</ele>
        <time>2020-08-25T21:08:59Z</time>
      </trkpt>
      <trkpt lat="46.2351" lon="6.46431">
        <ele>935</ele>
        <time>2020-08-25T21:09:01Z</time>
      </trkpt>
      <trkpt lat="46.23523" lon="6.46437">
        <ele>936</ele>
        <time>2020-08-25T21:09:04Z</time>
      </trkpt>
      <trkpt lat="46.23544" lon="6.46437">
        <ele>936</ele>
        <time>2020-08-25T21:09:07Z</time>
      </trkpt>
      <trkpt lat="46.23559" lon="6.4643">
        <ele>935</ele>
        <time>2020-08-25T21:09:10Z</time>
      </trkpt>
      <trkpt lat="46.23567" lon="6.46412">
        <ele>933</ele>
        <time>2020-08-25T21:09:13Z</time>
      </trkpt>
      <trkpt lat="46.2357" lon="6.46396">
        <ele>932</ele>
        <time>2020-08-25T21:09:15Z</time>
      </trkpt>
      <trkpt lat="46.23576" lon="6.46321">
        <ele>925</ele>
        <time>2020-08-25T21:09:24Z</time>
      </trkpt>
      <trkpt lat="46.23583" lon="6.46309">
        <ele>924</ele>
        <time>2020-08-25T21:09:26Z</time>
      </trkpt>
      <trkpt lat="46.23595" lon="6.46306">
        <ele>924</ele>
        <time>2020-08-25T21:09:28Z</time>
      </trkpt>
      <trkpt lat="46.23602" lon="6.46317">
        <ele>926</ele>
        <time>2020-08-25T21:09:30Z</time>
      </trkpt>
      <trkpt lat="46.23616" lon="6.46358">
        <ele>931</ele>
        <time>2020-08-25T21:09:36Z</time>
      </trkpt>
      <trkpt lat="46.23619" lon="6.46414">
        <ele>937</ele>
        <time>2020-08-25T21:09:43Z</time>
      </trkpt>
      <trkpt lat="46.23613" lon="6.46482">
        <ele>940</ele>
        <time>2020-08-25T21:09:51Z</time>
      </trkpt>
      <trkpt lat="46.23619" lon="6.46535">
        <ele>945</ele>
        <time>2020-08-25T21:09:58Z</time>
      </trkpt>
      <trkpt lat="46.23624" lon="6.46555">
        <ele>947</ele>
        <time>2020-08-25T21:10:00Z</time>
      </trkpt>
      <trkpt lat="46.23624" lon="6.46583">
        <ele>949</ele>
        <time>2020-08-25T21:10:04Z</time>
      </trkpt>
      <trkpt lat="46.23621" lon="6.46592">
        <ele>949</ele>
        <time>2020-08-25T21:10:05Z</time>
      </trkpt>
      <trkpt lat="46.23623" lon="6.46626">
        <ele>951</ele>
        <time>2020-08-25T21:10:09Z</time>
      </trkpt>
      <trkpt lat="46.23619" lon="6.46661">
        <ele>953</ele>
        <time>2020-08-25T21:10:14Z</time>
      </trkpt>
      <trkpt lat="46.23615" lon="6.46678">
        <ele>955</ele>
        <time>2020-08-25T21:10:16Z</time>
      </trkpt>
      <trkpt lat="46.23606" lon="6.46691">
        <ele>956</ele>
        <time>2020-08-25T21:10:18Z</time>
      </trkpt>
      <trkpt lat="46.23598" lon="6.46692">
        <ele>955</ele>
        <time>2020-08-25T21:10:20Z</time>
      </trkpt>
      <trkpt lat="46.2356" lon="6.46686">
        <ele>957</ele>
        <time>2020-08-25T21:10:26Z</time>
      </trkpt>
      <trkpt lat="46.2354" lon="6.4669">
        <ele>961</ele>
        <time>2020-08-25T21:10:30Z</time>
      </trkpt>
      <trkpt lat="46.23524" lon="6.46687">
        <ele>964</ele>
        <time>2020-08-25T21:10:33Z</time>
      </trkpt>
      <trkpt lat="46.23468" lon="6.46595">
        <ele>960</ele>
        <time>2020-08-25T21:10:48Z</time>
      </trkpt>
      <trkpt lat="46.23456" lon="6.46589">
        <ele>960</ele>
        <time>2020-08-25T21:10:50Z</time>
      </trkpt>
      <trkpt lat="46.23445" lon="6.46587">
        <ele>961</ele>
        <time>2020-08-25T21:10:52Z</time>
      </trkpt>
      <trkpt lat="46.23402" lon="6.46585">
        <ele>966</ele>
        <time>2020-08-25T21:11:00Z</time>
      </trkpt>
      <trkpt lat="46.23377" lon="6.46563">
        <ele>965</ele>
        <time>2020-08-25T21:11:05Z</time>
      </trkpt>
      <trkpt lat="46.23338" lon="6.46519">
        <ele>964</ele>
        <time>2020-08-25T21:11:14Z</time>
      </trkpt>
      <trkpt lat="46.23242" lon="6.46343">
        <ele>959</ele>
        <time>2020-08-25T21:11:41Z</time>
      </trkpt>
      <trkpt lat="46.23207" lon="6.46291">
        <ele>963</ele>
        <time>2020-08-25T21:11:50Z</time>
      </trkpt>
      <trkpt lat="46.23181" lon="6.46236">
        <ele>959</ele>
        <time>2020-08-25T21:11:58Z</time>
      </trkpt>
      <trkpt lat="46.23128" lon="6.46176">
        <ele>966</ele>
        <time>2020-08-25T21:12:10Z</time>
      </trkpt>
      <trkpt lat="46.23038" lon="6.46067">
        <ele>963</ele>
        <time>2020-08-25T21:12:31Z</time>
      </trkpt>
      <trkpt lat="46.23029" lon="6.46059">
        <ele>964</ele>
        <time>2020-08-25T21:12:33Z</time>
      </trkpt>
      <trkpt lat="46.22992" lon="6.46053">
        <ele>971</ele>
        <time>2020-08-25T21:12:40Z</time>
      </trkpt>
      <trkpt lat="46.22981" lon="6.46047">
        <ele>972</ele>
        <time>2020-08-25T21:12:42Z</time>
      </trkpt>
      <trkpt lat="46.22952" lon="6.46007">
        <ele>971</ele>
        <time>2020-08-25T21:12:49Z</time>
      </trkpt>
      <trkpt lat="46.22934" lon="6.45992">
        <ele>970</ele>
        <time>2020-08-25T21:12:53Z</time>
      </trkpt>
      <trkpt lat="46.22896" lon="6.45969">
        <ele>968</ele>
        <time>2020-08-25T21:13:00Z</time>
      </trkpt>
      <trkpt lat="46.22861" lon="6.45939">
        <ele>962</ele>
        <time>2020-08-25T21:13:07Z</time>
      </trkpt>
      <trkpt lat="46.22847" lon="6.45933">
        <ele>962</ele>
        <time>2020-08-25T21:13:10Z</time>
      </trkpt>
      <trkpt lat="46.22833" lon="6.45923">
        <ele>960</ele>
        <time>2020-08-25T21:13:13Z</time>
      </trkpt>
      <trkpt lat="46.22809" lon="6.45901">
        <ele>959</ele>
        <time>2020-08-25T21:13:18Z</time>
      </trkpt>
      <trkpt lat="46.22782" lon="6.45843">
        <ele>955</ele>
        <time>2020-08-25T21:13:26Z</time>
      </trkpt>
      <trkpt lat="46.22739" lon="6.45793">
        <ele>958</ele>
        <time>2020-08-25T21:13:36Z</time>
      </trkpt>
      <trkpt lat="46.2272" lon="6.45781">
        <ele>958</ele>
        <time>2020-08-25T21:13:40Z</time>
      </trkpt>
      <trkpt lat="46.22676" lon="6.45766">
        <ele>962</ele>
        <time>2020-08-25T21:13:48Z</time>
      </trkpt>
      <trkpt lat="46.22676" lon="6.45759">
        <ele>961</ele>
        <time>2020-08-25T21:13:49Z</time>
      </trkpt>
      <trkpt lat="46.22634" lon="6.45692">
        <ele>956</ele>
        <time>2020-08-25T21:14:00Z</time>
      </trkpt>
      <trkpt lat="46.22621" lon="6.45664">
        <ele>955</ele>
        <time>2020-08-25T21:14:04Z</time>
      </trkpt>
      <trkpt lat="46.22599" lon="6.45563">
        <ele>948</ele>
        <time>2020-08-25T21:14:17Z</time>
      </trkpt>
      <trkpt lat="46.22604" lon="6.45577">
        <ele>949</ele>
        <time>2020-08-25T21:14:19Z</time>
      </trkpt>
      <trkpt lat="46.2262" lon="6.45663">
        <ele>955</ele>
        <time>2020-08-25T21:14:30Z</time>
      </trkpt>
      <trkpt lat="46.22624" lon="6.45675">
        <ele>955</ele>
        <time>2020-08-25T21:14:32Z</time>
      </trkpt>
      <trkpt lat="46.22645" lon="6.45716">
        <ele>958</ele>
        <time>2020-08-25T21:14:38Z</time>
      </trkpt>
      <trkpt lat="46.22669" lon="6.45749">
        <ele>961</ele>
        <time>2020-08-25T21:14:44Z</time>
      </trkpt>
      <trkpt lat="46.22678" lon="6.45768">
        <ele>962</ele>
        <time>2020-08-25T21:14:47Z</time>
      </trkpt>
      <trkpt lat="46.22669" lon="6.45798">
        <ele>965</ele>
        <time>2020-08-25T21:14:51Z</time>
      </trkpt>
      <trkpt lat="46.22674" lon="6.45808">
        <ele>966</ele>
        <time>2020-08-25T21:14:52Z</time>
      </trkpt>
      <trkpt lat="46.22697" lon="6.45829">
        <ele>966</ele>
        <time>2020-08-25T21:14:57Z</time>
      </trkpt>
      <trkpt lat="46.22702" lon="6.45843">
        <ele>967</ele>
        <time>2020-08-25T21:14:59Z</time>
      </trkpt>
      <trkpt lat="46.227" lon="6.45856">
        <ele>968</ele>
        <time>2020-08-25T21:15:01Z</time>
      </trkpt>
      <trkpt lat="46.2269" lon="6.45866">
        <ele>970</ele>
        <time>2020-08-25T21:15:03Z</time>
      </trkpt>
      <trkpt lat="46.22681" lon="6.45858">
        <ele>970</ele>
        <time>2020-08-25T21:15:05Z</time>
      </trkpt>
      <trkpt lat="46.22656" lon="6.45846">
        <ele>971</ele>
        <time>2020-08-25T21:15:09Z</time>
      </trkpt>
      <trkpt lat="46.22637" lon="6.45845">
        <ele>972</ele>
        <time>2020-08-25T21:15:13Z</time>
      </trkpt>
      <trkpt lat="46.22619" lon="6.45848">
        <ele>973</ele>
        <time>2020-08-25T21:15:16Z</time>
      </trkpt>
      <trkpt lat="46.22603" lon="6.45845">
        <ele>974</ele>
        <time>2020-08-25T21:15:19Z</time>
      </trkpt>
      <trkpt lat="46.22584" lon="6.45834">
        <ele>972</ele>
        <time>2020-08-25T21:15:22Z</time>
      </trkpt>
      <trkpt lat="46.22464" lon="6.4572">
        <ele>975</ele>
        <time>2020-08-25T21:15:48Z</time>
      </trkpt>
      <trkpt lat="46.22384" lon="6.45657">
        <ele>976</ele>
        <time>2020-08-25T21:16:04Z</time>
      </trkpt>
      <trkpt lat="46.22368" lon="6.4564">
        <ele>976</ele>
        <time>2020-08-25T21:16:08Z</time>
      </trkpt>
      <trkpt lat="46.22354" lon="6.4563">
        <ele>976</ele>
        <time>2020-08-25T21:16:11Z</time>
      </trkpt>
      <trkpt lat="46.22231" lon="6.45573">
        <ele>972</ele>
        <time>2020-08-25T21:16:34Z</time>
      </trkpt>
      <trkpt lat="46.22222" lon="6.45566">
        <ele>972</ele>
        <time>2020-08-25T21:16:35Z</time>
      </trkpt>
      <trkpt lat="46.22182" lon="6.45506">
        <ele>969</ele>
        <time>2020-08-25T21:16:46Z</time>
      </trkpt>
      <trkpt lat="46.22172" lon="6.45487">
        <ele>968</ele>
        <time>2020-08-25T21:16:49Z</time>
      </trkpt>
      <trkpt lat="46.22167" lon="6.45464">
        <ele>967</ele>
        <time>2020-08-25T21:16:51Z</time>
      </trkpt>
      <trkpt lat="46.22158" lon="6.45394">
        <ele>961</ele>
        <time>2020-08-25T21:17:00Z</time>
      </trkpt>
      <trkpt lat="46.22149" lon="6.45371">
        <ele>959</ele>
        <time>2020-08-25T21:17:04Z</time>
      </trkpt>
      <trkpt lat="46.22126" lon="6.45328">
        <ele>954</ele>
        <time>2020-08-25T21:17:10Z</time>
      </trkpt>
      <trkpt lat="46.22094" lon="6.45249">
        <ele>947</ele>
        <time>2020-08-25T21:17:21Z</time>
      </trkpt>
      <trkpt lat="46.22066" lon="6.4521">
        <ele>945</ele>
        <time>2020-08-25T21:17:28Z</time>
      </trkpt>
      <trkpt lat="46.22032" lon="6.45179">
        <ele>943</ele>
        <time>2020-08-25T21:17:36Z</time>
      </trkpt>
      <trkpt lat="46.21991" lon="6.45137">
        <ele>939</ele>
        <time>2020-08-25T21:17:44Z</time>
      </trkpt>
      <trkpt lat="46.21937" lon="6.45066">
        <ele>934</ele>
        <time>2020-08-25T21:17:57Z</time>
      </trkpt>
      <trkpt lat="46.21922" lon="6.45061">
        <ele>935</ele>
        <time>2020-08-25T21:18:00Z</time>
      </trkpt>
      <trkpt lat="46.21854" lon="6.45081">
        <ele>933</ele>
        <time>2020-08-25T21:18:13Z</time>
      </trkpt>
      <trkpt lat="46.21838" lon="6.45081">
        <ele>932</ele>
        <time>2020-08-25T21:18:15Z</time>
      </trkpt>
      <trkpt lat="46.21811" lon="6.4508">
        <ele>930</ele>
        <time>2020-08-25T21:18:20Z</time>
      </trkpt>
      <trkpt lat="46.21748" lon="6.45069">
        <ele>925</ele>
        <time>2020-08-25T21:18:32Z</time>
      </trkpt>
      <trkpt lat="46.21717" lon="6.45058">
        <ele>925</ele>
        <time>2020-08-25T21:18:37Z</time>
      </trkpt>
      <trkpt lat="46.21669" lon="6.45021">
        <ele>918</ele>
        <time>2020-08-25T21:18:47Z</time>
      </trkpt>
      <trkpt lat="46.21652" lon="6.45002">
        <ele>915</ele>
        <time>2020-08-25T21:18:51Z</time>
      </trkpt>
      <trkpt lat="46.21597" lon="6.44917">
        <ele>905</ele>
        <time>2020-08-25T21:19:05Z</time>
      </trkpt>
      <trkpt lat="46.21566" lon="6.44886">
        <ele>901</ele>
        <time>2020-08-25T21:19:12Z</time>
      </trkpt>
      <trkpt lat="46.21528" lon="6.4486">
        <ele>899</ele>
        <time>2020-08-25T21:19:19Z</time>
      </trkpt>
      <trkpt lat="46.21445" lon="6.4482">
        <ele>897</ele>
        <time>2020-08-25T21:19:35Z</time>
      </trkpt>
      <trkpt lat="46.21402" lon="6.44803">
        <ele>897</ele>
        <time>2020-08-25T21:19:43Z</time>
      </trkpt>
      <trkpt lat="46.21384" lon="6.44793">
        <ele>897</ele>
        <time>2020-08-25T21:19:46Z</time>
      </trkpt>
      <trkpt lat="46.21378" lon="6.44786">
        <ele>896</ele>
        <time>2020-08-25T21:19:48Z</time>
      </trkpt>
      <trkpt lat="46.21375" lon="6.44772">
        <ele>894</ele>
        <time>2020-08-25T21:19:49Z</time>
      </trkpt>
      <trkpt lat="46.2138" lon="6.44762">
        <ele>892</ele>
        <time>2020-08-25T21:19:51Z</time>
      </trkpt>
      <trkpt lat="46.21389" lon="6.44758">
        <ele>890</ele>
        <time>2020-08-25T21:19:53Z</time>
      </trkpt>
      <trkpt lat="46.21394" lon="6.44757">
        <ele>889</ele>
        <time>2020-08-25T21:19:53Z</time>
      </trkpt>
      <trkpt lat="46.21438" lon="6.44764">
        <ele>886</ele>
        <time>2020-08-25T21:20:01Z</time>
      </trkpt>
      <trkpt lat="46.21469" lon="6.44764">
        <ele>884</ele>
        <time>2020-08-25T21:20:07Z</time>
      </trkpt>
      <trkpt lat="46.21503" lon="6.44755">
        <ele>881</ele>
        <time>2020-08-25T21:20:13Z</time>
      </trkpt>
      <trkpt lat="46.21544" lon="6.44729">
        <ele>876</ele>
        <time>2020-08-25T21:20:21Z</time>
      </trkpt>
      <trkpt lat="46.21593" lon="6.44684">
        <ele>871</ele>
        <time>2020-08-25T21:20:31Z</time>
      </trkpt>
      <trkpt lat="46.21618" lon="6.44667">
        <ele>871</ele>
        <time>2020-08-25T21:20:36Z</time>
      </trkpt>
      <trkpt lat="46.21647" lon="6.44656">
        <ele>871</ele>
        <time>2020-08-25T21:20:41Z</time>
      </trkpt>
      <trkpt lat="46.21652" lon="6.44652">
        <ele>871</ele>
        <time>2020-08-25T21:20:43Z</time>
      </trkpt>
      <trkpt lat="46.21658" lon="6.44642">
        <ele>870</ele>
        <time>2020-08-25T21:20:44Z</time>
      </trkpt>
      <trkpt lat="46.21659" lon="6.44635">
        <ele>869</ele>
        <time>2020-08-25T21:20:45Z</time>
      </trkpt>
      <trkpt lat="46.21655" lon="6.4462">
        <ele>867</ele>
        <time>2020-08-25T21:20:47Z</time>
      </trkpt>
      <trkpt lat="46.21651" lon="6.44614">
        <ele>866</ele>
        <time>2020-08-25T21:20:48Z</time>
      </trkpt>
      <trkpt lat="46.21603" lon="6.44587">
        <ele>862</ele>
        <time>2020-08-25T21:20:57Z</time>
      </trkpt>
      <trkpt lat="46.21593" lon="6.44577">
        <ele>861</ele>
        <time>2020-08-25T21:20:59Z</time>
      </trkpt>
      <trkpt lat="46.21589" lon="6.4456">
        <ele>859</ele>
        <time>2020-08-25T21:21:02Z</time>
      </trkpt>
      <trkpt lat="46.21592" lon="6.44541">
        <ele>857</ele>
        <time>2020-08-25T21:21:04Z</time>
      </trkpt>
      <trkpt lat="46.21606" lon="6.44514">
        <ele>855</ele>
        <time>2020-08-25T21:21:08Z</time>
      </trkpt>
      <trkpt lat="46.21623" lon="6.44492">
        <ele>853</ele>
        <time>2020-08-25T21:21:12Z</time>
      </trkpt>
      <trkpt lat="46.2164" lon="6.44476">
        <ele>853</ele>
        <time>2020-08-25T21:21:16Z</time>
      </trkpt>
      <trkpt lat="46.21646" lon="6.44474">
        <ele>853</ele>
        <time>2020-08-25T21:21:17Z</time>
      </trkpt>
      <trkpt lat="46.2167" lon="6.44477">
        <ele>854</ele>
        <time>2020-08-25T21:21:21Z</time>
      </trkpt>
      <trkpt lat="46.21682" lon="6.44475">
        <ele>853</ele>
        <time>2020-08-25T21:21:23Z</time>
      </trkpt>
      <trkpt lat="46.21702" lon="6.44479">
        <ele>852</ele>
        <time>2020-08-25T21:21:27Z</time>
      </trkpt>
      <trkpt lat="46.21719" lon="6.44479">
        <ele>851</ele>
        <time>2020-08-25T21:21:30Z</time>
      </trkpt>
      <trkpt lat="46.21743" lon="6.44471">
        <ele>849</ele>
        <time>2020-08-25T21:21:34Z</time>
      </trkpt>
      <trkpt lat="46.21764" lon="6.44469">
        <ele>848</ele>
        <time>2020-08-25T21:21:38Z</time>
      </trkpt>
      <trkpt lat="46.21793" lon="6.44479">
        <ele>848</ele>
        <time>2020-08-25T21:21:43Z</time>
      </trkpt>
      <trkpt lat="46.21815" lon="6.44483">
        <ele>847</ele>
        <time>2020-08-25T21:21:47Z</time>
      </trkpt>
      <trkpt lat="46.2182" lon="6.4448">
        <ele>847</ele>
        <time>2020-08-25T21:21:48Z</time>
      </trkpt>
      <trkpt lat="46.21827" lon="6.4447">
        <ele>845</ele>
        <time>2020-08-25T21:21:50Z</time>
      </trkpt>
      <trkpt lat="46.21828" lon="6.44458">
        <ele>843</ele>
        <time>2020-08-25T21:21:52Z</time>
      </trkpt>
      <trkpt lat="46.21824" lon="6.44446">
        <ele>841</ele>
        <time>2020-08-25T21:21:53Z</time>
      </trkpt>
      <trkpt lat="46.21791" lon="6.44411">
        <ele>839</ele>
        <time>2020-08-25T21:22:00Z</time>
      </trkpt>
      <trkpt lat="46.21752" lon="6.44376">
        <ele>838</ele>
        <time>2020-08-25T21:22:09Z</time>
      </trkpt>
      <trkpt lat="46.21748" lon="6.44369">
        <ele>838</ele>
        <time>2020-08-25T21:22:10Z</time>
      </trkpt>
      <trkpt lat="46.21738" lon="6.44345">
        <ele>836</ele>
        <time>2020-08-25T21:22:13Z</time>
      </trkpt>
      <trkpt lat="46.21714" lon="6.44251">
        <ele>829</ele>
        <time>2020-08-25T21:22:26Z</time>
      </trkpt>
      <trkpt lat="46.21713" lon="6.44235">
        <ele>828</ele>
        <time>2020-08-25T21:22:27Z</time>
      </trkpt>
      <trkpt lat="46.21715" lon="6.44231">
        <ele>828</ele>
        <time>2020-08-25T21:22:28Z</time>
      </trkpt>
      <trkpt lat="46.21723" lon="6.44227">
        <ele>827</ele>
        <time>2020-08-25T21:22:30Z</time>
      </trkpt>
      <trkpt lat="46.21735" lon="6.44233">
        <ele>827</ele>
        <time>2020-08-25T21:22:32Z</time>
      </trkpt>
      <trkpt lat="46.21758" lon="6.44256">
        <ele>827</ele>
        <time>2020-08-25T21:22:37Z</time>
      </trkpt>
      <trkpt lat="46.21725" lon="6.44225">
        <ele>827</ele>
        <time>2020-08-25T21:22:44Z</time>
      </trkpt>
      <trkpt lat="46.21718" lon="6.44209">
        <ele>827</ele>
        <time>2020-08-25T21:22:46Z</time>
      </trkpt>
      <trkpt lat="46.21712" lon="6.44182">
        <ele>826</ele>
        <time>2020-08-25T21:22:50Z</time>
      </trkpt>
      <trkpt lat="46.2171" lon="6.44143">
        <ele>823</ele>
        <time>2020-08-25T21:22:54Z</time>
      </trkpt>
      <trkpt lat="46.21711" lon="6.44137">
        <ele>822</ele>
        <time>2020-08-25T21:22:55Z</time>
      </trkpt>
      <trkpt lat="46.2172" lon="6.44127">
        <ele>822</ele>
        <time>2020-08-25T21:22:57Z</time>
      </trkpt>
      <trkpt lat="46.2175" lon="6.44129">
        <ele>821</ele>
        <time>2020-08-25T21:23:03Z</time>
      </trkpt>
      <trkpt lat="46.21758" lon="6.44123">
        <ele>820</ele>
        <time>2020-08-25T21:23:04Z</time>
      </trkpt>
      <trkpt lat="46.21764" lon="6.44112">
        <ele>819</ele>
        <time>2020-08-25T21:23:06Z</time>
      </trkpt>
      <trkpt lat="46.21767" lon="6.44098">
        <ele>818</ele>
        <time>2020-08-25T21:23:08Z</time>
      </trkpt>
      <trkpt lat="46.21765" lon="6.44077">
        <ele>816</ele>
        <time>2020-08-25T21:23:10Z</time>
      </trkpt>
      <trkpt lat="46.21754" lon="6.44061">
        <ele>816</ele>
        <time>2020-08-25T21:23:13Z</time>
      </trkpt>
      <trkpt lat="46.21734" lon="6.44044">
        <ele>814</ele>
        <time>2020-08-25T21:23:17Z</time>
      </trkpt>
      <trkpt lat="46.21696" lon="6.44025">
        <ele>812</ele>
        <time>2020-08-25T21:23:24Z</time>
      </trkpt>
      <trkpt lat="46.21636" lon="6.43989">
        <ele>813</ele>
        <time>2020-08-25T21:23:36Z</time>
      </trkpt>
      <trkpt lat="46.21625" lon="6.43975">
        <ele>812</ele>
        <time>2020-08-25T21:23:39Z</time>
      </trkpt>
      <trkpt lat="46.21604" lon="6.43921">
        <ele>807</ele>
        <time>2020-08-25T21:23:46Z</time>
      </trkpt>
      <trkpt lat="46.21592" lon="6.43873">
        <ele>802</ele>
        <time>2020-08-25T21:23:52Z</time>
      </trkpt>
      <trkpt lat="46.21589" lon="6.43869">
        <ele>802</ele>
        <time>2020-08-25T21:23:53Z</time>
      </trkpt>
      <trkpt lat="46.2156" lon="6.43853">
        <ele>800</ele>
        <time>2020-08-25T21:23:59Z</time>
      </trkpt>
      <trkpt lat="46.2154" lon="6.43833">
        <ele>797</ele>
        <time>2020-08-25T21:24:03Z</time>
      </trkpt>
      <trkpt lat="46.21523" lon="6.43807">
        <ele>796</ele>
        <time>2020-08-25T21:24:07Z</time>
      </trkpt>
      <trkpt lat="46.21517" lon="6.43786">
        <ele>794</ele>
        <time>2020-08-25T21:24:10Z</time>
      </trkpt>
      <trkpt lat="46.21518" lon="6.43768">
        <ele>793</ele>
        <time>2020-08-25T21:24:12Z</time>
      </trkpt>
      <trkpt lat="46.21515" lon="6.43722">
        <ele>791</ele>
        <time>2020-08-25T21:24:18Z</time>
      </trkpt>
      <trkpt lat="46.21506" lon="6.43682">
        <ele>789</ele>
        <time>2020-08-25T21:24:23Z</time>
      </trkpt>
      <trkpt lat="46.21493" lon="6.43637">
        <ele>788</ele>
        <time>2020-08-25T21:24:29Z</time>
      </trkpt>
      <trkpt lat="46.21459" lon="6.43558">
        <ele>785</ele>
        <time>2020-08-25T21:24:41Z</time>
      </trkpt>
      <trkpt lat="46.21432" lon="6.43497">
        <ele>784</ele>
        <time>2020-08-25T21:24:50Z</time>
      </trkpt>
      <trkpt lat="46.2138" lon="6.4339">
        <ele>782</ele>
        <time>2020-08-25T21:25:06Z</time>
      </trkpt>
      <trkpt lat="46.21333" lon="6.43331">
        <ele>781</ele>
        <time>2020-08-25T21:25:17Z</time>
      </trkpt>
      <trkpt lat="46.21307" lon="6.43294">
        <ele>782</ele>
        <time>2020-08-25T21:25:23Z</time>
      </trkpt>
      <trkpt lat="46.21249" lon="6.43143">
        <ele>777</ele>
        <time>2020-08-25T21:25:45Z</time>
      </trkpt>
      <trkpt lat="46.21228" lon="6.43053">
        <ele>777</ele>
        <time>2020-08-25T21:25:56Z</time>
      </trkpt>
      <trkpt lat="46.21214" lon="6.43009">
        <ele>778</ele>
        <time>2020-08-25T21:26:02Z</time>
      </trkpt>
      <trkpt lat="46.21205" lon="6.4299">
        <ele>778</ele>
        <time>2020-08-25T21:26:05Z</time>
      </trkpt>
      <trkpt lat="46.21191" lon="6.42968">
        <ele>779</ele>
        <time>2020-08-25T21:26:09Z</time>
      </trkpt>
      <trkpt lat="46.21161" lon="6.42939">
        <ele>781</ele>
        <time>2020-08-25T21:26:15Z</time>
      </trkpt>
      <trkpt lat="46.21128" lon="6.42901">
        <ele>782</ele>
        <time>2020-08-25T21:26:23Z</time>
      </trkpt>
      <trkpt lat="46.21106" lon="6.42863">
        <ele>783</ele>
        <time>2020-08-25T21:26:29Z</time>
      </trkpt>
      <trkpt lat="46.21082" lon="6.42779">
        <ele>782</ele>
        <time>2020-08-25T21:26:40Z</time>
      </trkpt>
      <trkpt lat="46.21074" lon="6.42739">
        <ele>783</ele>
        <time>2020-08-25T21:26:45Z</time>
      </trkpt>
      <trkpt lat="46.21073" lon="6.42699">
        <ele>785</ele>
        <time>2020-08-25T21:26:50Z</time>
      </trkpt>
      <trkpt lat="46.21076" lon="6.42669">
        <ele>785</ele>
        <time>2020-08-25T21:26:54Z</time>
      </trkpt>
      <trkpt lat="46.2109" lon="6.42592">
        <ele>782</ele>
        <time>2020-08-25T21:27:04Z</time>
      </trkpt>
      <trkpt lat="46.21086" lon="6.42554">
        <ele>782</ele>
        <time>2020-08-25T21:27:08Z</time>
      </trkpt>
      <trkpt lat="46.21073" lon="6.42508">
        <ele>783</ele>
        <time>2020-08-25T21:27:14Z</time>
      </trkpt>
      <trkpt lat="46.2104" lon="6.42409">
        <ele>783</ele>
        <time>2020-08-25T21:27:28Z</time>
      </trkpt>
      <trkpt lat="46.20981" lon="6.42251">
        <ele>786</ele>
        <time>2020-08-25T21:27:50Z</time>
      </trkpt>
      <trkpt lat="46.20973" lon="6.42211">
        <ele>789</ele>
        <time>2020-08-25T21:27:55Z</time>
      </trkpt>
      <trkpt lat="46.2097" lon="6.42149">
        <ele>791</ele>
        <time>2020-08-25T21:28:03Z</time>
      </trkpt>
      <trkpt lat="46.21002" lon="6.41712">
        <ele>775</ele>
        <time>2020-08-25T21:28:57Z</time>
      </trkpt>
      <trkpt lat="46.21" lon="6.41665">
        <ele>773</ele>
        <time>2020-08-25T21:29:03Z</time>
      </trkpt>
      <trkpt lat="46.20991" lon="6.41616">
        <ele>771</ele>
        <time>2020-08-25T21:29:09Z</time>
      </trkpt>
      <trkpt lat="46.2093" lon="6.41343">
        <ele>756</ele>
        <time>2020-08-25T21:29:44Z</time>
      </trkpt>
      <trkpt lat="46.20912" lon="6.41292">
        <ele>753</ele>
        <time>2020-08-25T21:29:51Z</time>
      </trkpt>
      <trkpt lat="46.20846" lon="6.41159">
        <ele>750</ele>
        <time>2020-08-25T21:30:12Z</time>
      </trkpt>
      <trkpt lat="46.20758" lon="6.40972">
        <ele>741</ele>
        <time>2020-08-25T21:30:39Z</time>
      </trkpt>
      <trkpt lat="46.20731" lon="6.4092">
        <ele>741</ele>
        <time>2020-08-25T21:30:47Z</time>
      </trkpt>
      <trkpt lat="46.20683" lon="6.4084">
        <ele>740</ele>
        <time>2020-08-25T21:31:00Z</time>
      </trkpt>
      <trkpt lat="46.20677" lon="6.40797">
        <ele>738</ele>
        <time>2020-08-25T21:31:06Z</time>
      </trkpt>
      <trkpt lat="46.20621" lon="6.40745">
        <ele>738</ele>
        <time>2020-08-25T21:31:18Z</time>
      </trkpt>
      <trkpt lat="46.20591" lon="6.40724">
        <ele>738</ele>
        <time>2020-08-25T21:31:24Z</time>
      </trkpt>
      <trkpt lat="46.20526" lon="6.40688">
        <ele>741</ele>
        <time>2020-08-25T21:31:36Z</time>
      </trkpt>
      <trkpt lat="46.20491" lon="6.40661">
        <ele>740</ele>
        <time>2020-08-25T21:31:43Z</time>
      </trkpt>
      <trkpt lat="46.20449" lon="6.40651">
        <ele>742</ele>
        <time>2020-08-25T21:31:51Z</time>
      </trkpt>
      <trkpt lat="46.20437" lon="6.40646">
        <ele>743</ele>
        <time>2020-08-25T21:31:53Z</time>
      </trkpt>
      <trkpt lat="46.20427" lon="6.4064">
        <ele>743</ele>
        <time>2020-08-25T21:31:55Z</time>
      </trkpt>
      <trkpt lat="46.2039" lon="6.40606">
        <ele>740</ele>
        <time>2020-08-25T21:32:03Z</time>
      </trkpt>
      <trkpt lat="46.20358" lon="6.40581">
        <ele>739</ele>
        <time>2020-08-25T21:32:09Z</time>
      </trkpt>
      <trkpt lat="46.20321" lon="6.40562">
        <ele>740</ele>
        <time>2020-08-25T21:32:16Z</time>
      </trkpt>
      <trkpt lat="46.20227" lon="6.4052">
        <ele>739</ele>
        <time>2020-08-25T21:32:34Z</time>
      </trkpt>
      <trkpt lat="46.20159" lon="6.40478">
        <ele>739</ele>
        <time>2020-08-25T21:32:47Z</time>
      </trkpt>
      <trkpt lat="46.20069" lon="6.40433">
        <ele>738</ele>
        <time>2020-08-25T21:33:04Z</time>
      </trkpt>
      <trkpt lat="46.2004" lon="6.40415">
        <ele>739</ele>
        <time>2020-08-25T21:33:09Z</time>
      </trkpt>
      <trkpt lat="46.20009" lon="6.40384">
        <ele>739</ele>
        <time>2020-08-25T21:33:16Z</time>
      </trkpt>
      <trkpt lat="46.19954" lon="6.40345">
        <ele>740</ele>
        <time>2020-08-25T21:33:27Z</time>
      </trkpt>
      <trkpt lat="46.19937" lon="6.40336">
        <ele>740</ele>
        <time>2020-08-25T21:33:30Z</time>
      </trkpt>
      <trkpt lat="46.19921" lon="6.40333">
        <ele>741</ele>
        <time>2020-08-25T21:33:33Z</time>
      </trkpt>
      <trkpt lat="46.19873" lon="6.40339">
        <ele>743</ele>
        <time>2020-08-25T21:33:42Z</time>
      </trkpt>
      <trkpt lat="46.19852" lon="6.40336">
        <ele>744</ele>
        <time>2020-08-25T21:33:45Z</time>
      </trkpt>
      <trkpt lat="46.19837" lon="6.40329">
        <ele>744</ele>
        <time>2020-08-25T21:33:48Z</time>
      </trkpt>
      <trkpt lat="46.1979" lon="6.40295">
        <ele>745</ele>
        <time>2020-08-25T21:33:57Z</time>
      </trkpt>
      <trkpt lat="46.19694" lon="6.40247">
        <ele>747</ele>
        <time>2020-08-25T21:34:16Z</time>
      </trkpt>
      <trkpt lat="46.19677" lon="6.40236">
        <ele>747</ele>
        <time>2020-08-25T21:34:19Z</time>
      </trkpt>
      <trkpt lat="46.1966" lon="6.40224">
        <ele>747</ele>
        <time>2020-08-25T21:34:22Z</time>
      </trkpt>
      <trkpt lat="46.19632" lon="6.40197">
        <ele>745</ele>
        <time>2020-08-25T21:34:28Z</time>
      </trkpt>
      <trkpt lat="46.196" lon="6.40174">
        <ele>744</ele>
        <time>2020-08-25T21:34:35Z</time>
      </trkpt>
      <trkpt lat="46.19531" lon="6.40138">
        <ele>745</ele>
        <time>2020-08-25T21:34:48Z</time>
      </trkpt>
      <trkpt lat="46.19507" lon="6.40132">
        <ele>745</ele>
        <time>2020-08-25T21:34:52Z</time>
      </trkpt>
      <trkpt lat="46.1939" lon="6.4009">
        <ele>749</ele>
        <time>2020-08-25T21:35:13Z</time>
      </trkpt>
      <trkpt lat="46.19344" lon="6.40055">
        <ele>747</ele>
        <time>2020-08-25T21:35:23Z</time>
      </trkpt>
      <trkpt lat="46.19274" lon="6.40024">
        <ele>751</ele>
        <time>2020-08-25T21:35:36Z</time>
      </trkpt>
      <trkpt lat="46.19228" lon="6.3999">
        <ele>752</ele>
        <time>2020-08-25T21:35:45Z</time>
      </trkpt>
      <trkpt lat="46.19213" lon="6.39973">
        <ele>753</ele>
        <time>2020-08-25T21:35:48Z</time>
      </trkpt>
      <trkpt lat="46.19195" lon="6.39943">
        <ele>752</ele>
        <time>2020-08-25T21:35:53Z</time>
      </trkpt>
      <trkpt lat="46.19188" lon="6.39916">
        <ele>749</ele>
        <time>2020-08-25T21:35:57Z</time>
      </trkpt>
      <trkpt lat="46.1919" lon="6.39882">
        <ele>744</ele>
        <time>2020-08-25T21:36:01Z</time>
      </trkpt>
      <trkpt lat="46.19205" lon="6.39766">
        <ele>734</ele>
        <time>2020-08-25T21:36:15Z</time>
      </trkpt>
      <trkpt lat="46.19204" lon="6.39671">
        <ele>729</ele>
        <time>2020-08-25T21:36:27Z</time>
      </trkpt>
      <trkpt lat="46.19196" lon="6.39641">
        <ele>729</ele>
        <time>2020-08-25T21:36:31Z</time>
      </trkpt>
      <trkpt lat="46.19185" lon="6.39624">
        <ele>729</ele>
        <time>2020-08-25T21:36:34Z</time>
      </trkpt>
      <trkpt lat="46.19171" lon="6.39612">
        <ele>729</ele>
        <time>2020-08-25T21:36:37Z</time>
      </trkpt>
      <trkpt lat="46.19149" lon="6.39598">
        <ele>730</ele>
        <time>2020-08-25T21:36:41Z</time>
      </trkpt>
      <trkpt lat="46.1914" lon="6.39586">
        <ele>731</ele>
        <time>2020-08-25T21:36:43Z</time>
      </trkpt>
      <trkpt lat="46.1914" lon="6.39567">
        <ele>730</ele>
        <time>2020-08-25T21:36:46Z</time>
      </trkpt>
      <trkpt lat="46.19149" lon="6.39554">
        <ele>730</ele>
        <time>2020-08-25T21:36:48Z</time>
      </trkpt>
      <trkpt lat="46.19254" lon="6.39516">
        <ele>722</ele>
        <time>2020-08-25T21:37:07Z</time>
      </trkpt>
      <trkpt lat="46.19276" lon="6.39504">
        <ele>721</ele>
        <time>2020-08-25T21:37:11Z</time>
      </trkpt>
      <trkpt lat="46.19288" lon="6.39493">
        <ele>720</ele>
        <time>2020-08-25T21:37:14Z</time>
      </trkpt>
      <trkpt lat="46.19303" lon="6.39469">
        <ele>718</ele>
        <time>2020-08-25T21:37:18Z</time>
      </trkpt>
      <trkpt lat="46.19311" lon="6.3945">
        <ele>717</ele>
        <time>2020-08-25T21:37:21Z</time>
      </trkpt>
      <trkpt lat="46.19317" lon="6.39418">
        <ele>715</ele>
        <time>2020-08-25T21:37:25Z</time>
      </trkpt>
      <trkpt lat="46.19318" lon="6.39396">
        <ele>715</ele>
        <time>2020-08-25T21:37:27Z</time>
      </trkpt>
      <trkpt lat="46.19316" lon="6.39359">
        <ele>714</ele>
        <time>2020-08-25T21:37:32Z</time>
      </trkpt>
      <trkpt lat="46.19305" lon="6.39304">
        <ele>713</ele>
        <time>2020-08-25T21:37:39Z</time>
      </trkpt>
      <trkpt lat="46.19286" lon="6.39253">
        <ele>713</ele>
        <time>2020-08-25T21:37:46Z</time>
      </trkpt>
      <trkpt lat="46.19228" lon="6.39116">
        <ele>721</ele>
        <time>2020-08-25T21:38:06Z</time>
      </trkpt>
      <trkpt lat="46.19218" lon="6.39084">
        <ele>721</ele>
        <time>2020-08-25T21:38:10Z</time>
      </trkpt>
      <trkpt lat="46.19215" lon="6.39061">
        <ele>722</ele>
        <time>2020-08-25T21:38:13Z</time>
      </trkpt>
      <trkpt lat="46.19215" lon="6.39036">
        <ele>723</ele>
        <time>2020-08-25T21:38:16Z</time>
      </trkpt>
      <trkpt lat="46.19217" lon="6.38996">
        <ele>724</ele>
        <time>2020-08-25T21:38:21Z</time>
      </trkpt>
      <trkpt lat="46.19228" lon="6.38955">
        <ele>727</ele>
        <time>2020-08-25T21:38:27Z</time>
      </trkpt>
      <trkpt lat="46.19258" lon="6.38896">
        <ele>731</ele>
        <time>2020-08-25T21:38:36Z</time>
      </trkpt>
      <trkpt lat="46.19284" lon="6.3883">
        <ele>736</ele>
        <time>2020-08-25T21:38:45Z</time>
      </trkpt>
      <trkpt lat="46.19314" lon="6.38771">
        <ele>740</ele>
        <time>2020-08-25T21:38:54Z</time>
      </trkpt>
      <trkpt lat="46.19318" lon="6.38761">
        <ele>741</ele>
        <time>2020-08-25T21:38:55Z</time>
      </trkpt>
      <trkpt lat="46.19317" lon="6.38739">
        <ele>742</ele>
        <time>2020-08-25T21:38:58Z</time>
      </trkpt>
      <trkpt lat="46.19303" lon="6.38711">
        <ele>743</ele>
        <time>2020-08-25T21:39:02Z</time>
      </trkpt>
      <trkpt lat="46.19291" lon="6.38705">
        <ele>743</ele>
        <time>2020-08-25T21:39:05Z</time>
      </trkpt>
      <trkpt lat="46.1928" lon="6.38684">
        <ele>744</ele>
        <time>2020-08-25T21:39:08Z</time>
      </trkpt>
      <trkpt lat="46.19221" lon="6.38618">
        <ele>746</ele>
        <time>2020-08-25T21:39:21Z</time>
      </trkpt>
      <trkpt lat="46.19203" lon="6.38591">
        <ele>746</ele>
        <time>2020-08-25T21:39:26Z</time>
      </trkpt>
      <trkpt lat="46.19193" lon="6.38571">
        <ele>745</ele>
        <time>2020-08-25T21:39:29Z</time>
      </trkpt>
      <trkpt lat="46.19188" lon="6.38557">
        <ele>745</ele>
        <time>2020-08-25T21:39:31Z</time>
      </trkpt>
      <trkpt lat="46.19182" lon="6.38523">
        <ele>744</ele>
        <time>2020-08-25T21:39:35Z</time>
      </trkpt>
      <trkpt lat="46.19177" lon="6.3844">
        <ele>744</ele>
        <time>2020-08-25T21:39:45Z</time>
      </trkpt>
      <trkpt lat="46.19173" lon="6.38409">
        <ele>744</ele>
        <time>2020-08-25T21:39:49Z</time>
      </trkpt>
      <trkpt lat="46.1916" lon="6.38364">
        <ele>743</ele>
        <time>2020-08-25T21:39:55Z</time>
      </trkpt>
      <trkpt lat="46.19092" lon="6.38176">
        <ele>739</ele>
        <time>2020-08-25T21:40:21Z</time>
      </trkpt>
      <trkpt lat="46.19073" lon="6.38136">
        <ele>740</ele>
        <time>2020-08-25T21:40:27Z</time>
      </trkpt>
      <trkpt lat="46.19044" lon="6.38091">
        <ele>741</ele>
        <time>2020-08-25T21:40:35Z</time>
      </trkpt>
      <trkpt lat="46.18948" lon="6.37984">
        <ele>729</ele>
        <time>2020-08-25T21:40:57Z</time>
      </trkpt>
      <trkpt lat="46.18682" lon="6.37698">
        <ele>716</ele>
        <time>2020-08-25T21:41:56Z</time>
      </trkpt>
      <trkpt lat="46.18654" lon="6.37671">
        <ele>717</ele>
        <time>2020-08-25T21:42:01Z</time>
      </trkpt>
      <trkpt lat="46.18646" lon="6.37666">
        <ele>717</ele>
        <time>2020-08-25T21:42:03Z</time>
      </trkpt>
      <trkpt lat="46.18623" lon="6.3766">
        <ele>716</ele>
        <time>2020-08-25T21:42:07Z</time>
      </trkpt>
      <trkpt lat="46.1859" lon="6.37664">
        <ele>714</ele>
        <time>2020-08-25T21:42:13Z</time>
      </trkpt>
      <trkpt lat="46.18538" lon="6.37679">
        <ele>708</ele>
        <time>2020-08-25T21:42:23Z</time>
      </trkpt>
      <trkpt lat="46.18475" lon="6.37691">
        <ele>702</ele>
        <time>2020-08-25T21:42:34Z</time>
      </trkpt>
      <trkpt lat="46.18449" lon="6.3769">
        <ele>700</ele>
        <time>2020-08-25T21:42:38Z</time>
      </trkpt>
      <trkpt lat="46.18433" lon="6.37685">
        <ele>700</ele>
        <time>2020-08-25T21:42:41Z</time>
      </trkpt>
      <trkpt lat="46.18419" lon="6.37678">
        <ele>700</ele>
        <time>2020-08-25T21:42:44Z</time>
      </trkpt>
      <trkpt lat="46.18405" lon="6.37667">
        <ele>699</ele>
        <time>2020-08-25T21:42:47Z</time>
      </trkpt>
      <trkpt lat="46.18384" lon="6.37646">
        <ele>696</ele>
        <time>2020-08-25T21:42:51Z</time>
      </trkpt>
      <trkpt lat="46.18364" lon="6.37621">
        <ele>694</ele>
        <time>2020-08-25T21:42:56Z</time>
      </trkpt>
      <trkpt lat="46.18315" lon="6.37545">
        <ele>692</ele>
        <time>2020-08-25T21:43:09Z</time>
      </trkpt>
      <trkpt lat="46.18301" lon="6.37528">
        <ele>691</ele>
        <time>2020-08-25T21:43:12Z</time>
      </trkpt>
      <trkpt lat="46.18254" lon="6.37492">
        <ele>686</ele>
        <time>2020-08-25T21:43:22Z</time>
      </trkpt>
      <trkpt lat="46.18241" lon="6.37475">
        <ele>685</ele>
        <time>2020-08-25T21:43:25Z</time>
      </trkpt>
      <trkpt lat="46.18208" lon="6.37398">
        <ele>690</ele>
        <time>2020-08-25T21:43:36Z</time>
      </trkpt>
      <trkpt lat="46.18201" lon="6.37388">
        <ele>690</ele>
        <time>2020-08-25T21:43:38Z</time>
      </trkpt>
      <trkpt lat="46.18177" lon="6.37363">
        <ele>690</ele>
        <time>2020-08-25T21:43:43Z</time>
      </trkpt>
      <trkpt lat="46.18116" lon="6.37318">
        <ele>685</ele>
        <time>2020-08-25T21:43:55Z</time>
      </trkpt>
      <trkpt lat="46.18079" lon="6.37282">
        <ele>681</ele>
        <time>2020-08-25T21:44:03Z</time>
      </trkpt>
      <trkpt lat="46.18069" lon="6.37261">
        <ele>680</ele>
        <time>2020-08-25T21:44:06Z</time>
      </trkpt>
      <trkpt lat="46.18062" lon="6.37237">
        <ele>679</ele>
        <time>2020-08-25T21:44:09Z</time>
      </trkpt>
      <trkpt lat="46.1806" lon="6.37223">
        <ele>679</ele>
        <time>2020-08-25T21:44:11Z</time>
      </trkpt>
      <trkpt lat="46.1806" lon="6.37162">
        <ele>680</ele>
        <time>2020-08-25T21:44:19Z</time>
      </trkpt>
      <trkpt lat="46.18056" lon="6.37134">
        <ele>679</ele>
        <time>2020-08-25T21:44:22Z</time>
      </trkpt>
      <trkpt lat="46.18038" lon="6.37103">
        <ele>676</ele>
        <time>2020-08-25T21:44:27Z</time>
      </trkpt>
      <trkpt lat="46.1802" lon="6.37089">
        <ele>673</ele>
        <time>2020-08-25T21:44:31Z</time>
      </trkpt>
      <trkpt lat="46.1801" lon="6.37085">
        <ele>672</ele>
        <time>2020-08-25T21:44:33Z</time>
      </trkpt>
      <trkpt lat="46.17947" lon="6.37075">
        <ele>669</ele>
        <time>2020-08-25T21:44:44Z</time>
      </trkpt>
      <trkpt lat="46.17932" lon="6.37069">
        <ele>669</ele>
        <time>2020-08-25T21:44:47Z</time>
      </trkpt>
      <trkpt lat="46.17904" lon="6.3705">
        <ele>669</ele>
        <time>2020-08-25T21:44:52Z</time>
      </trkpt>
      <trkpt lat="46.17862" lon="6.36991">
        <ele>672</ele>
        <time>2020-08-25T21:45:03Z</time>
      </trkpt>
      <trkpt lat="46.17841" lon="6.36968">
        <ele>673</ele>
        <time>2020-08-25T21:45:07Z</time>
      </trkpt>
      <trkpt lat="46.17824" lon="6.36958">
        <ele>673</ele>
        <time>2020-08-25T21:45:11Z</time>
      </trkpt>
      <trkpt lat="46.17787" lon="6.3695">
        <ele>672</ele>
        <time>2020-08-25T21:45:17Z</time>
      </trkpt>
      <trkpt lat="46.17759" lon="6.36953">
        <ele>669</ele>
        <time>2020-08-25T21:45:22Z</time>
      </trkpt>
      <trkpt lat="46.17749" lon="6.36958">
        <ele>668</ele>
        <time>2020-08-25T21:45:24Z</time>
      </trkpt>
      <trkpt lat="46.17655" lon="6.37016">
        <ele>664</ele>
        <time>2020-08-25T21:45:42Z</time>
      </trkpt>
      <trkpt lat="46.17543" lon="6.37119">
        <ele>655</ele>
        <time>2020-08-25T21:46:06Z</time>
      </trkpt>
      <trkpt lat="46.17504" lon="6.37143">
        <ele>653</ele>
        <time>2020-08-25T21:46:13Z</time>
      </trkpt>
      <trkpt lat="46.17469" lon="6.37144">
        <ele>652</ele>
        <time>2020-08-25T21:46:20Z</time>
      </trkpt>
      <trkpt lat="46.17419" lon="6.37124">
        <ele>653</ele>
        <time>2020-08-25T21:46:29Z</time>
      </trkpt>
      <trkpt lat="46.17394" lon="6.37119">
        <ele>652</ele>
        <time>2020-08-25T21:46:33Z</time>
      </trkpt>
      <trkpt lat="46.17253" lon="6.37108">
        <ele>645</ele>
        <time>2020-08-25T21:46:59Z</time>
      </trkpt>
      <trkpt lat="46.17247" lon="6.37098">
        <ele>646</ele>
        <time>2020-08-25T21:47:00Z</time>
      </trkpt>
      <trkpt lat="46.1725" lon="6.37081">
        <ele>647</ele>
        <time>2020-08-25T21:47:02Z</time>
      </trkpt>
      <trkpt lat="46.17264" lon="6.37045">
        <ele>649</ele>
        <time>2020-08-25T21:47:07Z</time>
      </trkpt>
      <trkpt lat="46.17301" lon="6.36921">
        <ele>657</ele>
        <time>2020-08-25T21:47:24Z</time>
      </trkpt>
      <trkpt lat="46.1731" lon="6.36885">
        <ele>661</ele>
        <time>2020-08-25T21:47:29Z</time>
      </trkpt>
      <trkpt lat="46.17311" lon="6.36865">
        <ele>664</ele>
        <time>2020-08-25T21:47:31Z</time>
      </trkpt>
      <trkpt lat="46.17278" lon="6.36855">
        <ele>660</ele>
        <time>2020-08-25T21:47:37Z</time>
      </trkpt>
      <trkpt lat="46.17239" lon="6.36848">
        <ele>656</ele>
        <time>2020-08-25T21:47:44Z</time>
      </trkpt>
      <trkpt lat="46.17201" lon="6.36836">
        <ele>656</ele>
        <time>2020-08-25T21:47:51Z</time>
      </trkpt>
      <trkpt lat="46.17171" lon="6.36822">
        <ele>657</ele>
        <time>2020-08-25T21:47:57Z</time>
      </trkpt>
      <trkpt lat="46.17125" lon="6.36794">
        <ele>659</ele>
        <time>2020-08-25T21:48:06Z</time>
      </trkpt>
      <trkpt lat="46.17096" lon="6.36782">
        <ele>660</ele>
        <time>2020-08-25T21:48:11Z</time>
      </trkpt>
      <trkpt lat="46.1709" lon="6.36783">
        <ele>660</ele>
        <time>2020-08-25T21:48:12Z</time>
      </trkpt>
      <trkpt lat="46.17038" lon="6.36809">
        <ele>657</ele>
        <time>2020-08-25T21:48:22Z</time>
      </trkpt>
      <trkpt lat="46.16969" lon="6.36822">
        <ele>654</ele>
        <time>2020-08-25T21:48:34Z</time>
      </trkpt>
      <trkpt lat="46.16915" lon="6.36823">
        <ele>652</ele>
        <time>2020-08-25T21:48:44Z</time>
      </trkpt>
      <trkpt lat="46.16906" lon="6.3683">
        <ele>652</ele>
        <time>2020-08-25T21:48:46Z</time>
      </trkpt>
      <trkpt lat="46.16894" lon="6.36859">
        <ele>649</ele>
        <time>2020-08-25T21:48:50Z</time>
      </trkpt>
      <trkpt lat="46.16885" lon="6.36872">
        <ele>648</ele>
        <time>2020-08-25T21:48:52Z</time>
      </trkpt>
      <trkpt lat="46.16874" lon="6.36882">
        <ele>646</ele>
        <time>2020-08-25T21:48:54Z</time>
      </trkpt>
      <trkpt lat="46.16816" lon="6.369">
        <ele>642</ele>
        <time>2020-08-25T21:49:05Z</time>
      </trkpt>
      <trkpt lat="46.16792" lon="6.36912">
        <ele>640</ele>
        <time>2020-08-25T21:49:10Z</time>
      </trkpt>
      <trkpt lat="46.16736" lon="6.36949">
        <ele>632</ele>
        <time>2020-08-25T21:49:20Z</time>
      </trkpt>
      <trkpt lat="46.16723" lon="6.36949">
        <ele>631</ele>
        <time>2020-08-25T21:49:23Z</time>
      </trkpt>
      <trkpt lat="46.1671" lon="6.36943">
        <ele>631</ele>
        <time>2020-08-25T21:49:25Z</time>
      </trkpt>
      <trkpt lat="46.1668" lon="6.36918">
        <ele>631</ele>
        <time>2020-08-25T21:49:31Z</time>
      </trkpt>
      <trkpt lat="46.16654" lon="6.3689">
        <ele>632</ele>
        <time>2020-08-25T21:49:37Z</time>
      </trkpt>
      <trkpt lat="46.16617" lon="6.36841">
        <ele>630</ele>
        <time>2020-08-25T21:49:46Z</time>
      </trkpt>
      <trkpt lat="46.16595" lon="6.36822">
        <ele>626</ele>
        <time>2020-08-25T21:49:51Z</time>
      </trkpt>
      <trkpt lat="46.16586" lon="6.36799">
        <ele>626</ele>
        <time>2020-08-25T21:49:54Z</time>
      </trkpt>
      <trkpt lat="46.16579" lon="6.36761">
        <ele>627</ele>
        <time>2020-08-25T21:49:59Z</time>
      </trkpt>
      <trkpt lat="46.16571" lon="6.36746">
        <ele>626</ele>
        <time>2020-08-25T21:50:01Z</time>
      </trkpt>
      <trkpt lat="46.16544" lon="6.36712">
        <ele>619</ele>
        <time>2020-08-25T21:50:07Z</time>
      </trkpt>
      <trkpt lat="46.16519" lon="6.36685">
        <ele>614</ele>
        <time>2020-08-25T21:50:13Z</time>
      </trkpt>
      <trkpt lat="46.16506" lon="6.36622">
        <ele>613</ele>
        <time>2020-08-25T21:50:21Z</time>
      </trkpt>
      <trkpt lat="46.165" lon="6.36572">
        <ele>611</ele>
        <time>2020-08-25T21:50:27Z</time>
      </trkpt>
      <trkpt lat="46.16498" lon="6.36426">
        <ele>605</ele>
        <time>2020-08-25T21:50:45Z</time>
      </trkpt>
      <trkpt lat="46.16507" lon="6.36395">
        <ele>607</ele>
        <time>2020-08-25T21:50:49Z</time>
      </trkpt>
      <trkpt lat="46.16532" lon="6.36337">
        <ele>612</ele>
        <time>2020-08-25T21:50:58Z</time>
      </trkpt>
      <trkpt lat="46.16543" lon="6.36295">
        <ele>614</ele>
        <time>2020-08-25T21:51:03Z</time>
      </trkpt>
      <trkpt lat="46.16547" lon="6.36251">
        <ele>614</ele>
        <time>2020-08-25T21:51:09Z</time>
      </trkpt>
      <trkpt lat="46.16551" lon="6.36124">
        <ele>608</ele>
        <time>2020-08-25T21:51:25Z</time>
      </trkpt>
      <trkpt lat="46.16549" lon="6.36112">
        <ele>606</ele>
        <time>2020-08-25T21:51:26Z</time>
      </trkpt>
      <trkpt lat="46.16541" lon="6.36097">
        <ele>604</ele>
        <time>2020-08-25T21:51:28Z</time>
      </trkpt>
      <trkpt lat="46.16516" lon="6.3608">
        <ele>598</ele>
        <time>2020-08-25T21:51:33Z</time>
      </trkpt>
      <trkpt lat="46.16501" lon="6.36062">
        <ele>594</ele>
        <time>2020-08-25T21:51:37Z</time>
      </trkpt>
      <trkpt lat="46.16493" lon="6.36011">
        <ele>589</ele>
        <time>2020-08-25T21:51:43Z</time>
      </trkpt>
      <trkpt lat="46.16498" lon="6.35987">
        <ele>589</ele>
        <time>2020-08-25T21:51:46Z</time>
      </trkpt>
      <trkpt lat="46.16506" lon="6.35891">
        <ele>585</ele>
        <time>2020-08-25T21:51:58Z</time>
      </trkpt>
      <trkpt lat="46.1652" lon="6.35767">
        <ele>586</ele>
        <time>2020-08-25T21:52:14Z</time>
      </trkpt>
      <trkpt lat="46.16516" lon="6.35731">
        <ele>585</ele>
        <time>2020-08-25T21:52:18Z</time>
      </trkpt>
      <trkpt lat="46.16516" lon="6.35652">
        <ele>584</ele>
        <time>2020-08-25T21:52:28Z</time>
      </trkpt>
      <trkpt lat="46.16545" lon="6.35513">
        <ele>588</ele>
        <time>2020-08-25T21:52:46Z</time>
      </trkpt>
      <trkpt lat="46.16546" lon="6.3549">
        <ele>587</ele>
        <time>2020-08-25T21:52:49Z</time>
      </trkpt>
      <trkpt lat="46.16543" lon="6.35429">
        <ele>586</ele>
        <time>2020-08-25T21:52:56Z</time>
      </trkpt>
      <trkpt lat="46.16544" lon="6.3541">
        <ele>586</ele>
        <time>2020-08-25T21:52:59Z</time>
      </trkpt>
      <trkpt lat="46.16555" lon="6.35351">
        <ele>589</ele>
        <time>2020-08-25T21:53:06Z</time>
      </trkpt>
      <trkpt lat="46.16556" lon="6.35302">
        <ele>590</ele>
        <time>2020-08-25T21:53:12Z</time>
      </trkpt>
      <trkpt lat="46.16565" lon="6.3527">
        <ele>592</ele>
        <time>2020-08-25T21:53:16Z</time>
      </trkpt>
      <trkpt lat="46.16574" lon="6.35254">
        <ele>594</ele>
        <time>2020-08-25T21:53:19Z</time>
      </trkpt>
      <trkpt lat="46.16582" lon="6.35231">
        <ele>596</ele>
        <time>2020-08-25T21:53:22Z</time>
      </trkpt>
      <trkpt lat="46.16585" lon="6.35205">
        <ele>597</ele>
        <time>2020-08-25T21:53:25Z</time>
      </trkpt>
      <trkpt lat="46.16583" lon="6.35163">
        <ele>597</ele>
        <time>2020-08-25T21:53:31Z</time>
      </trkpt>
      <trkpt lat="46.16574" lon="6.35101">
        <ele>591</ele>
        <time>2020-08-25T21:53:38Z</time>
      </trkpt>
      <trkpt lat="46.16553" lon="6.35035">
        <ele>583</ele>
        <time>2020-08-25T21:53:47Z</time>
      </trkpt>
      <trkpt lat="46.16555" lon="6.34994">
        <ele>582</ele>
        <time>2020-08-25T21:53:52Z</time>
      </trkpt>
      <trkpt lat="46.16567" lon="6.34913">
        <ele>583</ele>
        <time>2020-08-25T21:54:03Z</time>
      </trkpt>
      <trkpt lat="46.16581" lon="6.34844">
        <ele>581</ele>
        <time>2020-08-25T21:54:11Z</time>
      </trkpt>
      <trkpt lat="46.16597" lon="6.348">
        <ele>581</ele>
        <time>2020-08-25T21:54:18Z</time>
      </trkpt>
      <trkpt lat="46.16614" lon="6.34759">
        <ele>582</ele>
        <time>2020-08-25T21:54:23Z</time>
      </trkpt>
      <trkpt lat="46.16639" lon="6.34713">
        <ele>583</ele>
        <time>2020-08-25T21:54:31Z</time>
      </trkpt>
      <trkpt lat="46.16666" lon="6.34651">
        <ele>583</ele>
        <time>2020-08-25T21:54:40Z</time>
      </trkpt>
      <trkpt lat="46.16692" lon="6.34556">
        <ele>582</ele>
        <time>2020-08-25T21:54:52Z</time>
      </trkpt>
      <trkpt lat="46.16701" lon="6.3451">
        <ele>581</ele>
        <time>2020-08-25T21:54:58Z</time>
      </trkpt>
      <trkpt lat="46.1672" lon="6.34454">
        <ele>582</ele>
        <time>2020-08-25T21:55:06Z</time>
      </trkpt>
      <trkpt lat="46.16725" lon="6.34409">
        <ele>579</ele>
        <time>2020-08-25T21:55:11Z</time>
      </trkpt>
      <trkpt lat="46.16732" lon="6.34371">
        <ele>579</ele>
        <time>2020-08-25T21:55:16Z</time>
      </trkpt>
      <trkpt lat="46.16737" lon="6.34357">
        <ele>579</ele>
        <time>2020-08-25T21:55:18Z</time>
      </trkpt>
      <trkpt lat="46.16789" lon="6.34269">
        <ele>585</ele>
        <time>2020-08-25T21:55:33Z</time>
      </trkpt>
      <trkpt lat="46.16809" lon="6.34256">
        <ele>587</ele>
        <time>2020-08-25T21:55:36Z</time>
      </trkpt>
      <trkpt lat="46.16825" lon="6.34242">
        <ele>587</ele>
        <time>2020-08-25T21:55:40Z</time>
      </trkpt>
      <trkpt lat="46.16843" lon="6.34215">
        <ele>587</ele>
        <time>2020-08-25T21:55:44Z</time>
      </trkpt>
      <trkpt lat="46.1685" lon="6.342">
        <ele>587</ele>
        <time>2020-08-25T21:55:47Z</time>
      </trkpt>
      <trkpt lat="46.16858" lon="6.34178">
        <ele>586</ele>
        <time>2020-08-25T21:55:50Z</time>
      </trkpt>
      <trkpt lat="46.16863" lon="6.3413">
        <ele>582</ele>
        <time>2020-08-25T21:55:56Z</time>
      </trkpt>
      <trkpt lat="46.16878" lon="6.34061">
        <ele>579</ele>
        <time>2020-08-25T21:56:05Z</time>
      </trkpt>
      <trkpt lat="46.16896" lon="6.34012">
        <ele>578</ele>
        <time>2020-08-25T21:56:11Z</time>
      </trkpt>
      <trkpt lat="46.16947" lon="6.33902">
        <ele>577</ele>
        <time>2020-08-25T21:56:28Z</time>
      </trkpt>
      <trkpt lat="46.16974" lon="6.33831">
        <ele>577</ele>
        <time>2020-08-25T21:56:38Z</time>
      </trkpt>
      <trkpt lat="46.16979" lon="6.3379">
        <ele>574</ele>
        <time>2020-08-25T21:56:43Z</time>
      </trkpt>
      <trkpt lat="46.16969" lon="6.33603">
        <ele>563</ele>
        <time>2020-08-25T21:57:06Z</time>
      </trkpt>
      <trkpt lat="46.16974" lon="6.33571">
        <ele>563</ele>
        <time>2020-08-25T21:57:10Z</time>
      </trkpt>
      <trkpt lat="46.17008" lon="6.33443">
        <ele>563</ele>
        <time>2020-08-25T21:57:27Z</time>
      </trkpt>
      <trkpt lat="46.17022" lon="6.33402">
        <ele>563</ele>
        <time>2020-08-25T21:57:32Z</time>
      </trkpt>
      <trkpt lat="46.17077" lon="6.33361">
        <ele>565</ele>
        <time>2020-08-25T21:57:43Z</time>
      </trkpt>
      <trkpt lat="46.17085" lon="6.33339">
        <ele>564</ele>
        <time>2020-08-25T21:57:47Z</time>
      </trkpt>
      <trkpt lat="46.17084" lon="6.3331">
        <ele>564</ele>
        <time>2020-08-25T21:57:50Z</time>
      </trkpt>
      <trkpt lat="46.17048" lon="6.33093">
        <ele>557</ele>
        <time>2020-08-25T21:58:18Z</time>
      </trkpt>
      <trkpt lat="46.17045" lon="6.33026">
        <ele>555</ele>
        <time>2020-08-25T21:58:26Z</time>
      </trkpt>
      <trkpt lat="46.17053" lon="6.32998">
        <ele>555</ele>
        <time>2020-08-25T21:58:30Z</time>
      </trkpt>
      <trkpt lat="46.17084" lon="6.32933">
        <ele>553</ele>
        <time>2020-08-25T21:58:39Z</time>
      </trkpt>
      <trkpt lat="46.17096" lon="6.32882">
        <ele>552</ele>
        <time>2020-08-25T21:58:46Z</time>
      </trkpt>
      <trkpt lat="46.171" lon="6.32827">
        <ele>550</ele>
        <time>2020-08-25T21:58:53Z</time>
      </trkpt>
      <trkpt lat="46.17112" lon="6.32792">
        <ele>551</ele>
        <time>2020-08-25T21:58:58Z</time>
      </trkpt>
      <trkpt lat="46.17133" lon="6.3274">
        <ele>551</ele>
        <time>2020-08-25T21:59:05Z</time>
      </trkpt>
      <trkpt lat="46.17188" lon="6.3262">
        <ele>548</ele>
        <time>2020-08-25T21:59:23Z</time>
      </trkpt>
      <trkpt lat="46.17209" lon="6.32557">
        <ele>546</ele>
        <time>2020-08-25T21:59:31Z</time>
      </trkpt>
      <trkpt lat="46.17221" lon="6.3251">
        <ele>545</ele>
        <time>2020-08-25T21:59:38Z</time>
      </trkpt>
      <trkpt lat="46.17232" lon="6.32424">
        <ele>541</ele>
        <time>2020-08-25T21:59:48Z</time>
      </trkpt>
      <trkpt lat="46.17235" lon="6.32355">
        <ele>538</ele>
        <time>2020-08-25T21:59:57Z</time>
      </trkpt>
      <trkpt lat="46.17242" lon="6.32292">
        <ele>537</ele>
        <time>2020-08-25T22:00:05Z</time>
      </trkpt>
      <trkpt lat="46.17247" lon="6.3227">
        <ele>536</ele>
        <time>2020-08-25T22:00:08Z</time>
      </trkpt>
      <trkpt lat="46.17254" lon="6.3225">
        <ele>536</ele>
        <time>2020-08-25T22:00:10Z</time>
      </trkpt>
      <trkpt lat="46.17277" lon="6.32206">
        <ele>538</ele>
        <time>2020-08-25T22:00:17Z</time>
      </trkpt>
      <trkpt lat="46.17321" lon="6.32099">
        <ele>535</ele>
        <time>2020-08-25T22:00:32Z</time>
      </trkpt>
      <trkpt lat="46.17347" lon="6.32047">
        <ele>534</ele>
        <time>2020-08-25T22:00:40Z</time>
      </trkpt>
      <trkpt lat="46.17397" lon="6.31927">
        <ele>532</ele>
        <time>2020-08-25T22:00:58Z</time>
      </trkpt>
      <trkpt lat="46.17457" lon="6.31817">
        <ele>530</ele>
        <time>2020-08-25T22:01:15Z</time>
      </trkpt>
      <trkpt lat="46.17485" lon="6.31736">
        <ele>525</ele>
        <time>2020-08-25T22:01:26Z</time>
      </trkpt>
      <trkpt lat="46.17498" lon="6.31712">
        <ele>523</ele>
        <time>2020-08-25T22:01:30Z</time>
      </trkpt>
      <trkpt lat="46.17606" lon="6.31602">
        <ele>521</ele>
        <time>2020-08-25T22:01:53Z</time>
      </trkpt>
      <trkpt lat="46.17627" lon="6.31585">
        <ele>522</ele>
        <time>2020-08-25T22:01:58Z</time>
      </trkpt>
      <trkpt lat="46.17643" lon="6.31578">
        <ele>523</ele>
        <time>2020-08-25T22:02:01Z</time>
      </trkpt>
      <trkpt lat="46.1767" lon="6.31561">
        <ele>524</ele>
        <time>2020-08-25T22:02:06Z</time>
      </trkpt>
      <trkpt lat="46.17701" lon="6.31533">
        <ele>525</ele>
        <time>2020-08-25T22:02:12Z</time>
      </trkpt>
      <trkpt lat="46.1773" lon="6.31501">
        <ele>526</ele>
        <time>2020-08-25T22:02:19Z</time>
      </trkpt>
      <trkpt lat="46.17749" lon="6.31488">
        <ele>527</ele>
        <time>2020-08-25T22:02:23Z</time>
      </trkpt>
      <trkpt lat="46.17781" lon="6.31442">
        <ele>524</ele>
        <time>2020-08-25T22:02:31Z</time>
      </trkpt>
      <trkpt lat="46.17839" lon="6.31326">
        <ele>519</ele>
        <time>2020-08-25T22:02:48Z</time>
      </trkpt>
      <trkpt lat="46.17948" lon="6.31132">
        <ele>520</ele>
        <time>2020-08-25T22:03:19Z</time>
      </trkpt>
      <trkpt lat="46.1796" lon="6.31123">
        <ele>522</ele>
        <time>2020-08-25T22:03:21Z</time>
      </trkpt>
      <trkpt lat="46.18001" lon="6.31103">
        <ele>527</ele>
        <time>2020-08-25T22:03:29Z</time>
      </trkpt>
      <trkpt lat="46.18029" lon="6.31096">
        <ele>531</ele>
        <time>2020-08-25T22:03:34Z</time>
      </trkpt>
      <trkpt lat="46.18036" lon="6.31092">
        <ele>532</ele>
        <time>2020-08-25T22:03:35Z</time>
      </trkpt>
      <trkpt lat="46.1804" lon="6.31078">
        <ele>532</ele>
        <time>2020-08-25T22:03:37Z</time>
      </trkpt>
      <trkpt lat="46.18028" lon="6.31014">
        <ele>528</ele>
        <time>2020-08-25T22:03:46Z</time>
      </trkpt>
      <trkpt lat="46.18034" lon="6.30959">
        <ele>525</ele>
        <time>2020-08-25T22:03:52Z</time>
      </trkpt>
      <trkpt lat="46.18034" lon="6.30922">
        <ele>522</ele>
        <time>2020-08-25T22:03:57Z</time>
      </trkpt>
      <trkpt lat="46.18043" lon="6.30887">
        <ele>520</ele>
        <time>2020-08-25T22:04:02Z</time>
      </trkpt>
      <trkpt lat="46.18058" lon="6.3086">
        <ele>520</ele>
        <time>2020-08-25T22:04:06Z</time>
      </trkpt>
      <trkpt lat="46.18087" lon="6.30835">
        <ele>519</ele>
        <time>2020-08-25T22:04:12Z</time>
      </trkpt>
      <trkpt lat="46.18246" lon="6.30735">
        <ele>531</ele>
        <time>2020-08-25T22:04:43Z</time>
      </trkpt>
      <trkpt lat="46.18274" lon="6.30711">
        <ele>533</ele>
        <time>2020-08-25T22:04:48Z</time>
      </trkpt>
      <trkpt lat="46.18277" lon="6.307">
        <ele>533</ele>
        <time>2020-08-25T22:04:50Z</time>
      </trkpt>
      <trkpt lat="46.18229" lon="6.30617">
        <ele>527</ele>
        <time>2020-08-25T22:05:03Z</time>
      </trkpt>
      <trkpt lat="46.18222" lon="6.30587">
        <ele>525</ele>
        <time>2020-08-25T22:05:07Z</time>
      </trkpt>
      <trkpt lat="46.18206" lon="6.30561">
        <ele>524</ele>
        <time>2020-08-25T22:05:11Z</time>
      </trkpt>
      <trkpt lat="46.1818" lon="6.30487">
        <ele>521</ele>
        <time>2020-08-25T22:05:22Z</time>
      </trkpt>
      <trkpt lat="46.18166" lon="6.30458">
        <ele>520</ele>
        <time>2020-08-25T22:05:26Z</time>
      </trkpt>
      <trkpt lat="46.18076" lon="6.30326">
        <ele>517</ele>
        <time>2020-08-25T22:05:49Z</time>
      </trkpt>
      <trkpt lat="46.18046" lon="6.30276">
        <ele>515</ele>
        <time>2020-08-25T22:05:57Z</time>
      </trkpt>
      <trkpt lat="46.18019" lon="6.3024">
        <ele>513</ele>
        <time>2020-08-25T22:06:04Z</time>
      </trkpt>
      <trkpt lat="46.18007" lon="6.30228">
        <ele>513</ele>
        <time>2020-08-25T22:06:06Z</time>
      </trkpt>
      <trkpt lat="46.17979" lon="6.30207">
        <ele>511</ele>
        <time>2020-08-25T22:06:12Z</time>
      </trkpt>
      <trkpt lat="46.17971" lon="6.30197">
        <ele>511</ele>
        <time>2020-08-25T22:06:14Z</time>
      </trkpt>
      <trkpt lat="46.17962" lon="6.30169">
        <ele>510</ele>
        <time>2020-08-25T22:06:17Z</time>
      </trkpt>
      <trkpt lat="46.17962" lon="6.30122">
        <ele>510</ele>
        <time>2020-08-25T22:06:23Z</time>
      </trkpt>
      <trkpt lat="46.1797" lon="6.30058">
        <ele>508</ele>
        <time>2020-08-25T22:06:31Z</time>
      </trkpt>
      <trkpt lat="46.17997" lon="6.29949">
        <ele>502</ele>
        <time>2020-08-25T22:06:45Z</time>
      </trkpt>
      <trkpt lat="46.18052" lon="6.29706">
        <ele>497</ele>
        <time>2020-08-25T22:07:17Z</time>
      </trkpt>
      <trkpt lat="46.18054" lon="6.2967">
        <ele>496</ele>
        <time>2020-08-25T22:07:21Z</time>
      </trkpt>
      <trkpt lat="46.18042" lon="6.29522">
        <ele>495</ele>
        <time>2020-08-25T22:07:40Z</time>
      </trkpt>
      <trkpt lat="46.18045" lon="6.29443">
        <ele>495</ele>
        <time>2020-08-25T22:07:50Z</time>
      </trkpt>
      <trkpt lat="46.18062" lon="6.29364">
        <ele>492</ele>
        <time>2020-08-25T22:08:00Z</time>
      </trkpt>
      <trkpt lat="46.18072" lon="6.29338">
        <ele>491</ele>
        <time>2020-08-25T22:08:03Z</time>
      </trkpt>
      <trkpt lat="46.18097" lon="6.29296">
        <ele>490</ele>
        <time>2020-08-25T22:08:10Z</time>
      </trkpt>
      <trkpt lat="46.18118" lon="6.29251">
        <ele>491</ele>
        <time>2020-08-25T22:08:17Z</time>
      </trkpt>
      <trkpt lat="46.18126" lon="6.29228">
        <ele>492</ele>
        <time>2020-08-25T22:08:20Z</time>
      </trkpt>
      <trkpt lat="46.18133" lon="6.29184">
        <ele>494</ele>
        <time>2020-08-25T22:08:26Z</time>
      </trkpt>
      <trkpt lat="46.18131" lon="6.29156">
        <ele>496</ele>
        <time>2020-08-25T22:08:29Z</time>
      </trkpt>
      <trkpt lat="46.18119" lon="6.29116">
        <ele>497</ele>
        <time>2020-08-25T22:08:34Z</time>
      </trkpt>
      <trkpt lat="46.18096" lon="6.29079">
        <ele>497</ele>
        <time>2020-08-25T22:08:41Z</time>
      </trkpt>
      <trkpt lat="46.18064" lon="6.29038">
        <ele>498</ele>
        <time>2020-08-25T22:08:48Z</time>
      </trkpt>
      <trkpt lat="46.18041" lon="6.29002">
        <ele>499</ele>
        <time>2020-08-25T22:08:54Z</time>
      </trkpt>
      <trkpt lat="46.18024" lon="6.28928">
        <ele>501</ele>
        <time>2020-08-25T22:09:04Z</time>
      </trkpt>
      <trkpt lat="46.18022" lon="6.28895">
        <ele>501</ele>
        <time>2020-08-25T22:09:08Z</time>
      </trkpt>
      <trkpt lat="46.18027" lon="6.28873">
        <ele>502</ele>
        <time>2020-08-25T22:09:11Z</time>
      </trkpt>
      <trkpt lat="46.18039" lon="6.28839">
        <ele>502</ele>
        <time>2020-08-25T22:09:15Z</time>
      </trkpt>
      <trkpt lat="46.18043" lon="6.28811">
        <ele>502</ele>
        <time>2020-08-25T22:09:19Z</time>
      </trkpt>
      <trkpt lat="46.18057" lon="6.28783">
        <ele>502</ele>
        <time>2020-08-25T22:09:23Z</time>
      </trkpt>
      <trkpt lat="46.1807" lon="6.28749">
        <ele>501</ele>
        <time>2020-08-25T22:09:28Z</time>
      </trkpt>
      <trkpt lat="46.18135" lon="6.28612">
        <ele>499</ele>
        <time>2020-08-25T22:09:48Z</time>
      </trkpt>
      <trkpt lat="46.18258" lon="6.2831">
        <ele>494</ele>
        <time>2020-08-25T22:10:32Z</time>
      </trkpt>
      <trkpt lat="46.18317" lon="6.28171">
        <ele>492</ele>
        <time>2020-08-25T22:10:52Z</time>
      </trkpt>
      <trkpt lat="46.18327" lon="6.28149">
        <ele>492</ele>
        <time>2020-08-25T22:10:55Z</time>
      </trkpt>
      <trkpt lat="46.18336" lon="6.28138">
        <ele>492</ele>
        <time>2020-08-25T22:10:57Z</time>
      </trkpt>
      <trkpt lat="46.18356" lon="6.28131">
        <ele>491</ele>
        <time>2020-08-25T22:11:01Z</time>
      </trkpt>
      <trkpt lat="46.18364" lon="6.28124">
        <ele>491</ele>
        <time>2020-08-25T22:11:02Z</time>
      </trkpt>
      <trkpt lat="46.18365" lon="6.28116">
        <ele>491</ele>
        <time>2020-08-25T22:11:03Z</time>
      </trkpt>
      <trkpt lat="46.18358" lon="6.281">
        <ele>491</ele>
        <time>2020-08-25T22:11:06Z</time>
      </trkpt>
      <trkpt lat="46.18358" lon="6.28091">
        <ele>491</ele>
        <time>2020-08-25T22:11:07Z</time>
      </trkpt>
      <trkpt lat="46.18378" lon="6.28041">
        <ele>490</ele>
        <time>2020-08-25T22:11:14Z</time>
      </trkpt>
      <trkpt lat="46.18387" lon="6.28027">
        <ele>490</ele>
        <time>2020-08-25T22:11:16Z</time>
      </trkpt>
      <trkpt lat="46.18395" lon="6.27994">
        <ele>489</ele>
        <time>2020-08-25T22:11:21Z</time>
      </trkpt>
      <trkpt lat="46.18498" lon="6.27749">
        <ele>490</ele>
        <time>2020-08-25T22:11:56Z</time>
      </trkpt>
      <trkpt lat="46.18537" lon="6.27667">
        <ele>491</ele>
        <time>2020-08-25T22:12:08Z</time>
      </trkpt>
      <trkpt lat="46.18607" lon="6.27509">
        <ele>489</ele>
        <time>2020-08-25T22:12:31Z</time>
      </trkpt>
      <trkpt lat="46.18671" lon="6.27323">
        <ele>490</ele>
        <time>2020-08-25T22:12:57Z</time>
      </trkpt>
      <trkpt lat="46.18722" lon="6.27196">
        <ele>488</ele>
        <time>2020-08-25T22:13:15Z</time>
      </trkpt>
      <trkpt lat="46.18719" lon="6.2718">
        <ele>488</ele>
        <time>2020-08-25T22:13:17Z</time>
      </trkpt>
      <trkpt lat="46.18728" lon="6.27157">
        <ele>487</ele>
        <time>2020-08-25T22:13:20Z</time>
      </trkpt>
      <trkpt lat="46.18723" lon="6.27121">
        <ele>487</ele>
        <time>2020-08-25T22:13:25Z</time>
      </trkpt>
      <trkpt lat="46.18736" lon="6.27082">
        <ele>486</ele>
        <time>2020-08-25T22:13:30Z</time>
      </trkpt>
      <trkpt lat="46.18734" lon="6.27075">
        <ele>486</ele>
        <time>2020-08-25T22:13:31Z</time>
      </trkpt>
      <trkpt lat="46.1871" lon="6.27042">
        <ele>487</ele>
        <time>2020-08-25T22:13:37Z</time>
      </trkpt>
      <trkpt lat="46.18714" lon="6.26995">
        <ele>486</ele>
        <time>2020-08-25T22:13:43Z</time>
      </trkpt>
      <trkpt lat="46.18718" lon="6.26984">
        <ele>486</ele>
        <time>2020-08-25T22:13:44Z</time>
      </trkpt>
      <trkpt lat="46.1873" lon="6.26968">
        <ele>486</ele>
        <time>2020-08-25T22:13:47Z</time>
      </trkpt>
      <trkpt lat="46.18743" lon="6.26939">
        <ele>485</ele>
        <time>2020-08-25T22:13:51Z</time>
      </trkpt>
      <trkpt lat="46.18759" lon="6.26901">
        <ele>485</ele>
        <time>2020-08-25T22:13:57Z</time>
      </trkpt>
      <trkpt lat="46.18769" lon="6.26869">
        <ele>485</ele>
        <time>2020-08-25T22:14:01Z</time>
      </trkpt>
      <trkpt lat="46.18772" lon="6.26839">
        <ele>486</ele>
        <time>2020-08-25T22:14:05Z</time>
      </trkpt>
      <trkpt lat="46.18784" lon="6.268">
        <ele>486</ele>
        <time>2020-08-25T22:14:10Z</time>
      </trkpt>
      <trkpt lat="46.18799" lon="6.26732">
        <ele>486</ele>
        <time>2020-08-25T22:14:19Z</time>
      </trkpt>
      <trkpt lat="46.18832" lon="6.26531">
        <ele>487</ele>
        <time>2020-08-25T22:14:44Z</time>
      </trkpt>
      <trkpt lat="46.18845" lon="6.26479">
        <ele>486</ele>
        <time>2020-08-25T22:14:51Z</time>
      </trkpt>
      <trkpt lat="46.18875" lon="6.26331">
        <ele>486</ele>
        <time>2020-08-25T22:15:10Z</time>
      </trkpt>
      <trkpt lat="46.18891" lon="6.26297">
        <ele>486</ele>
        <time>2020-08-25T22:15:15Z</time>
      </trkpt>
      <trkpt lat="46.18946" lon="6.26212">
        <ele>483</ele>
        <time>2020-08-25T22:15:30Z</time>
      </trkpt>
      <trkpt lat="46.18962" lon="6.26177">
        <ele>483</ele>
        <time>2020-08-25T22:15:35Z</time>
      </trkpt>
      <trkpt lat="46.18983" lon="6.26118">
        <ele>482</ele>
        <time>2020-08-25T22:15:43Z</time>
      </trkpt>
      <trkpt lat="46.18998" lon="6.26058">
        <ele>482</ele>
        <time>2020-08-25T22:15:51Z</time>
      </trkpt>
      <trkpt lat="46.19045" lon="6.25777">
        <ele>477</ele>
        <time>2020-08-25T22:16:26Z</time>
      </trkpt>
      <trkpt lat="46.19075" lon="6.25661">
        <ele>475</ele>
        <time>2020-08-25T22:16:42Z</time>
      </trkpt>
      <trkpt lat="46.19082" lon="6.25625">
        <ele>475</ele>
        <time>2020-08-25T22:16:46Z</time>
      </trkpt>
      <trkpt lat="46.19088" lon="6.25572">
        <ele>474</ele>
        <time>2020-08-25T22:16:53Z</time>
      </trkpt>
      <trkpt lat="46.19086" lon="6.25376">
        <ele>466</ele>
        <time>2020-08-25T22:17:17Z</time>
      </trkpt>
      <trkpt lat="46.19078" lon="6.25314">
        <ele>461</ele>
        <time>2020-08-25T22:17:25Z</time>
      </trkpt>
      <trkpt lat="46.19072" lon="6.25229">
        <ele>460</ele>
        <time>2020-08-25T22:17:35Z</time>
      </trkpt>
      <trkpt lat="46.19052" lon="6.25116">
        <ele>458</ele>
        <time>2020-08-25T22:17:50Z</time>
      </trkpt>
      <trkpt lat="46.19045" lon="6.25106">
        <ele>458</ele>
        <time>2020-08-25T22:17:52Z</time>
      </trkpt>
      <trkpt lat="46.19045" lon="6.25088">
        <ele>458</ele>
        <time>2020-08-25T22:17:54Z</time>
      </trkpt>
      <trkpt lat="46.19035" lon="6.25064">
        <ele>457</ele>
        <time>2020-08-25T22:17:57Z</time>
      </trkpt>
      <trkpt lat="46.19036" lon="6.24947">
        <ele>454</ele>
        <time>2020-08-25T22:18:12Z</time>
      </trkpt>
      <trkpt lat="46.19038" lon="6.24906">
        <ele>453</ele>
        <time>2020-08-25T22:18:17Z</time>
      </trkpt>
      <trkpt lat="46.19046" lon="6.24841">
        <ele>453</ele>
        <time>2020-08-25T22:18:25Z</time>
      </trkpt>
      <trkpt lat="46.19054" lon="6.24806">
        <ele>452</ele>
        <time>2020-08-25T22:18:29Z</time>
      </trkpt>
      <trkpt lat="46.19063" lon="6.24747">
        <ele>450</ele>
        <time>2020-08-25T22:18:37Z</time>
      </trkpt>
      <trkpt lat="46.19073" lon="6.24709">
        <ele>448</ele>
        <time>2020-08-25T22:18:42Z</time>
      </trkpt>
      <trkpt lat="46.19091" lon="6.24587">
        <ele>446</ele>
        <time>2020-08-25T22:18:57Z</time>
      </trkpt>
      <trkpt lat="46.19101" lon="6.24489">
        <ele>444</ele>
        <time>2020-08-25T22:19:09Z</time>
      </trkpt>
      <trkpt lat="46.19124" lon="6.2434">
        <ele>441</ele>
        <time>2020-08-25T22:19:28Z</time>
      </trkpt>
      <trkpt lat="46.19129" lon="6.24339">
        <ele>441</ele>
        <time>2020-08-25T22:19:29Z</time>
      </trkpt>
      <trkpt lat="46.19193" lon="6.24394">
        <ele>441</ele>
        <time>2020-08-25T22:19:42Z</time>
      </trkpt>
      <trkpt lat="46.19279" lon="6.24461">
        <ele>441</ele>
        <time>2020-08-25T22:20:00Z</time>
      </trkpt>
      <trkpt lat="46.19357" lon="6.24504">
        <ele>440</ele>
        <time>2020-08-25T22:20:15Z</time>
      </trkpt>
      <trkpt lat="46.19389" lon="6.24526">
        <ele>440</ele>
        <time>2020-08-25T22:20:21Z</time>
      </trkpt>
      <trkpt lat="46.1941" lon="6.24537">
        <ele>439</ele>
        <time>2020-08-25T22:20:25Z</time>
      </trkpt>
      <trkpt lat="46.19422" lon="6.24534">
        <ele>439</ele>
        <time>2020-08-25T22:20:27Z</time>
      </trkpt>
      <trkpt lat="46.19431" lon="6.24519">
        <ele>439</ele>
        <time>2020-08-25T22:20:29Z</time>
      </trkpt>
      <trkpt lat="46.19445" lon="6.24513">
        <ele>439</ele>
        <time>2020-08-25T22:20:32Z</time>
      </trkpt>
      <trkpt lat="46.19468" lon="6.24466">
        <ele>439</ele>
        <time>2020-08-25T22:20:39Z</time>
      </trkpt>
      <trkpt lat="46.19525" lon="6.24377">
        <ele>439</ele>
        <time>2020-08-25T22:20:54Z</time>
      </trkpt>
      <trkpt lat="46.19547" lon="6.24351">
        <ele>440</ele>
        <time>2020-08-25T22:20:59Z</time>
      </trkpt>
      <trkpt lat="46.19556" lon="6.24327">
        <ele>440</ele>
        <time>2020-08-25T22:21:02Z</time>
      </trkpt>
      <trkpt lat="46.19573" lon="6.24294">
        <ele>441</ele>
        <time>2020-08-25T22:21:08Z</time>
      </trkpt>
      <trkpt lat="46.19594" lon="6.24266">
        <ele>441</ele>
        <time>2020-08-25T22:21:13Z</time>
      </trkpt>
      <trkpt lat="46.1962" lon="6.24217">
        <ele>439</ele>
        <time>2020-08-25T22:21:20Z</time>
      </trkpt>
      <trkpt lat="46.19631" lon="6.24216">
        <ele>439</ele>
        <time>2020-08-25T22:21:22Z</time>
      </trkpt>
      <trkpt lat="46.19644" lon="6.24224">
        <ele>439</ele>
        <time>2020-08-25T22:21:25Z</time>
      </trkpt>
      <trkpt lat="46.19831" lon="6.24383">
        <ele>441</ele>
        <time>2020-08-25T22:22:03Z</time>
      </trkpt>
      <trkpt lat="46.19855" lon="6.24407">
        <ele>441</ele>
        <time>2020-08-25T22:22:09Z</time>
      </trkpt>
      <trkpt lat="46.19913" lon="6.24478">
        <ele>440</ele>
        <time>2020-08-25T22:22:22Z</time>
      </trkpt>
      <trkpt lat="46.1995" lon="6.2453">
        <ele>439</ele>
        <time>2020-08-25T22:22:31Z</time>
      </trkpt>
      <trkpt lat="46.19996" lon="6.24575">
        <ele>440</ele>
        <time>2020-08-25T22:22:41Z</time>
      </trkpt>
      <trkpt lat="46.20058" lon="6.2461">
        <ele>441</ele>
        <time>2020-08-25T22:22:53Z</time>
      </trkpt>
      <trkpt lat="46.20111" lon="6.24631">
        <ele>442</ele>
        <time>2020-08-25T22:23:03Z</time>
      </trkpt>
      <trkpt lat="46.2015" lon="6.2464">
        <ele>443</ele>
        <time>2020-08-25T22:23:10Z</time>
      </trkpt>
      <trkpt lat="46.20156" lon="6.2463">
        <ele>443</ele>
        <time>2020-08-25T22:23:11Z</time>
      </trkpt>
      <trkpt lat="46.20156" lon="6.24618">
        <ele>442</ele>
        <time>2020-08-25T22:23:13Z</time>
      </trkpt>
      <trkpt lat="46.2015" lon="6.24588">
        <ele>441</ele>
        <time>2020-08-25T22:23:17Z</time>
      </trkpt>
      <trkpt lat="46.2015" lon="6.24582">
        <ele>441</ele>
        <time>2020-08-25T22:23:17Z</time>
      </trkpt>
      <trkpt lat="46.20155" lon="6.24572">
        <ele>441</ele>
        <time>2020-08-25T22:23:19Z</time>
      </trkpt>
      <trkpt lat="46.20167" lon="6.24573">
        <ele>441</ele>
        <time>2020-08-25T22:23:21Z</time>
      </trkpt>
      <trkpt lat="46.20209" lon="6.24591">
        <ele>440</ele>
        <time>2020-08-25T22:23:29Z</time>
      </trkpt>
      <trkpt lat="46.20212" lon="6.2459">
        <ele>440</ele>
        <time>2020-08-25T22:23:29Z</time>
      </trkpt>
      <trkpt lat="46.20225" lon="6.24548">
        <ele>439</ele>
        <time>2020-08-25T22:23:35Z</time>
      </trkpt>
      <trkpt lat="46.20228" lon="6.24525">
        <ele>438</ele>
        <time>2020-08-25T22:23:38Z</time>
      </trkpt>
      <trkpt lat="46.20236" lon="6.24526">
        <ele>438</ele>
        <time>2020-08-25T22:23:39Z</time>
      </trkpt>
      <trkpt lat="46.20221" lon="6.24569">
        <ele>439</ele>
        <time>2020-08-25T22:23:45Z</time>
      </trkpt>
      <trkpt lat="46.20215" lon="6.2458">
        <ele>440</ele>
        <time>2020-08-25T22:23:47Z</time>
      </trkpt>
      <trkpt lat="46.20162" lon="6.24552">
        <ele>440</ele>
        <time>2020-08-25T22:23:57Z</time>
      </trkpt>
      <trkpt lat="46.20137" lon="6.24542">
        <ele>440</ele>
        <time>2020-08-25T22:24:02Z</time>
      </trkpt>
      <trkpt lat="46.2013" lon="6.24531">
        <ele>439</ele>
        <time>2020-08-25T22:24:04Z</time>
      </trkpt>
      <trkpt lat="46.20118" lon="6.24475">
        <ele>439</ele>
        <time>2020-08-25T22:24:11Z</time>
      </trkpt>
      <trkpt lat="46.20116" lon="6.24435">
        <ele>438</ele>
        <time>2020-08-25T22:24:16Z</time>
      </trkpt>
      <trkpt lat="46.20114" lon="6.24433">
        <ele>438</ele>
        <time>2020-08-25T22:24:16Z</time>
      </trkpt>
      <trkpt lat="46.20109" lon="6.24382">
        <ele>437</ele>
        <time>2020-08-25T22:24:23Z</time>
      </trkpt>
      <trkpt lat="46.20077" lon="6.24329">
        <ele>436</ele>
        <time>2020-08-25T22:24:31Z</time>
      </trkpt>
      <trkpt lat="46.20039" lon="6.24253">
        <ele>438</ele>
        <time>2020-08-25T22:24:43Z</time>
      </trkpt>
      <trkpt lat="46.19959" lon="6.24081">
        <ele>436</ele>
        <time>2020-08-25T22:25:08Z</time>
      </trkpt>
      <trkpt lat="46.19957" lon="6.24065">
        <ele>436</ele>
        <time>2020-08-25T22:25:10Z</time>
      </trkpt>
      <trkpt lat="46.19959" lon="6.2406">
        <ele>436</ele>
        <time>2020-08-25T22:25:11Z</time>
      </trkpt>
      <trkpt lat="46.19993" lon="6.2407">
        <ele>436</ele>
        <time>2020-08-25T22:25:17Z</time>
      </trkpt>
      <trkpt lat="46.20001" lon="6.24064">
        <ele>436</ele>
        <time>2020-08-25T22:25:19Z</time>
      </trkpt>
      <trkpt lat="46.20004" lon="6.24058">
        <ele>436</ele>
        <time>2020-08-25T22:25:20Z</time>
      </trkpt>
    </trkseg>
  </trk>
</gpx>